<?xml version="1.0" encoding="UTF-8" standalone="no" ?><gpx xmlns="http://www.topografix.com/GPX/1/1" xmlns:gpxx="http://www.garmin.com/xmlschemas/GpxExtensions/v3" xmlns:wptx1="http://www.garmin.com/xmlschemas/WaypointExtension/v1" xmlns:gpxtpx="http://www.garmin.com/xmlschemas/TrackPointExtension/v1" creator="GuideVTT.com" version="1.1" xmlns:xsi="http://www.w3.org/2001/XMLSchema-instance" xsi:schemaLocation="http://www.topografix.com/GPX/1/1 http://www.topografix.com/GPX/1/1/gpx.xsd http://www.garmin.com/xmlschemas/GpxExtensions/v3 http://www8.garmin.com/xmlschemas/GpxExtensionsv3.xsd http://www.garmin.com/xmlschemas/WaypointExtension/v1 http://www8.garmin.com/xmlschemas/WaypointExtensionv1.xsd http://www.garmin.com/xmlschemas/TrackPointExtension/v1 http://www.garmin.com/xmlschemas/TrackPointExtensionv1.xsd">
<metadata><link href="http://www.garmin.com"><text>Garmin International</text></link><time>2013-06-22T15:13:50Z</time></metadata>
<trk><name>vtt_2015-07-03_55c0bf6a6cc1ce63fa03327a.gpx</name><extensions><gpxx:TrackExtension><gpxx:DisplayColor>Cyan</gpxx:DisplayColor></gpxx:TrackExtension></extensions><trkseg>
<trkpt lat="48.883953094482" lon="2.6309235095978"><ele></ele><time>2025-5-16T21:54:15Z</time></trkpt>
<trkpt lat="48.884078979492" lon="2.630695104599"><ele></ele><time>2025-5-16T21:54:18Z</time></trkpt>
<trkpt lat="48.884078979492" lon="2.630695104599"><ele></ele><time>2025-5-16T21:54:21Z</time></trkpt>
<trkpt lat="48.884185791016" lon="2.6305887699127"><ele></ele><time>2025-5-16T21:54:24Z</time></trkpt>
<trkpt lat="48.884243011475" lon="2.6305298805237"><ele></ele><time>2025-5-16T21:54:27Z</time></trkpt>
<trkpt lat="48.884243011475" lon="2.6305298805237"><ele></ele><time>2025-5-16T21:54:30Z</time></trkpt>
<trkpt lat="48.884304046631" lon="2.6304616928101"><ele></ele><time>2025-5-16T21:54:33Z</time></trkpt>
<trkpt lat="48.884376525879" lon="2.6303858757019"><ele></ele><time>2025-5-16T21:54:36Z</time></trkpt>
<trkpt lat="48.884437561035" lon="2.6303026676178"><ele></ele><time>2025-5-16T21:54:39Z</time></trkpt>
<trkpt lat="48.884494781494" lon="2.6302115917206"><ele></ele><time>2025-5-16T21:54:42Z</time></trkpt>
<trkpt lat="48.88455581665" lon="2.6301259994507"><ele></ele><time>2025-5-16T21:54:45Z</time></trkpt>
<trkpt lat="48.88455581665" lon="2.6301259994507"><ele></ele><time>2025-5-16T21:54:48Z</time></trkpt>
<trkpt lat="48.884616851807" lon="2.6300323009491"><ele></ele><time>2025-5-16T21:54:51Z</time></trkpt>
<trkpt lat="48.88468170166" lon="2.6299526691437"><ele></ele><time>2025-5-16T21:54:54Z</time></trkpt>
<trkpt lat="48.884746551514" lon="2.6298723220825"><ele></ele><time>2025-5-16T21:54:57Z</time></trkpt>
<trkpt lat="48.884746551514" lon="2.6298723220825"><ele></ele><time>2025-5-16T21:55:0Z</time></trkpt>
<trkpt lat="48.88480758667" lon="2.6297974586487"><ele></ele><time>2025-5-16T21:55:3Z</time></trkpt>
<trkpt lat="48.884860992432" lon="2.6297426223755"><ele></ele><time>2025-5-16T21:55:6Z</time></trkpt>
<trkpt lat="48.884925842285" lon="2.6296935081482"><ele></ele><time>2025-5-16T21:55:9Z</time></trkpt>
<trkpt lat="48.884990692139" lon="2.6296310424805"><ele></ele><time>2025-5-16T21:55:12Z</time></trkpt>
<trkpt lat="48.885059356689" lon="2.6295630931854"><ele></ele><time>2025-5-16T21:55:15Z</time></trkpt>
<trkpt lat="48.885059356689" lon="2.6295630931854"><ele></ele><time>2025-5-16T21:55:18Z</time></trkpt>
<trkpt lat="48.885120391846" lon="2.6294856071472"><ele></ele><time>2025-5-16T21:55:21Z</time></trkpt>
<trkpt lat="48.885185241699" lon="2.6294186115265"><ele></ele><time>2025-5-16T21:55:24Z</time></trkpt>
<trkpt lat="48.885246276855" lon="2.6293375492096"><ele></ele><time>2025-5-16T21:55:27Z</time></trkpt>
<trkpt lat="48.885299682617" lon="2.629246711731"><ele></ele><time>2025-5-16T21:55:30Z</time></trkpt>
<trkpt lat="48.885356903076" lon="2.6291556358337"><ele></ele><time>2025-5-16T21:55:33Z</time></trkpt>
<trkpt lat="48.885356903076" lon="2.6291556358337"><ele></ele><time>2025-5-16T21:55:36Z</time></trkpt>
<trkpt lat="48.885414123535" lon="2.6290826797485"><ele></ele><time>2025-5-16T21:55:39Z</time></trkpt>
<trkpt lat="48.885471343994" lon="2.6290280818939"><ele></ele><time>2025-5-16T21:55:42Z</time></trkpt>
<trkpt lat="48.88553237915" lon="2.628977060318"><ele></ele><time>2025-5-16T21:55:45Z</time></trkpt>
<trkpt lat="48.885601043701" lon="2.6289458274841"><ele></ele><time>2025-5-16T21:55:48Z</time></trkpt>
<trkpt lat="48.885662078857" lon="2.6289699077606"><ele></ele><time>2025-5-16T21:55:51Z</time></trkpt>
<trkpt lat="48.885719299316" lon="2.6290040016174"><ele></ele><time>2025-5-16T21:55:54Z</time></trkpt>
<trkpt lat="48.885795593262" lon="2.6289865970612"><ele></ele><time>2025-5-16T21:55:57Z</time></trkpt>
<trkpt lat="48.885860443115" lon="2.6289346218109"><ele></ele><time>2025-5-16T21:56:0Z</time></trkpt>
<trkpt lat="48.885929107666" lon="2.6288504600525"><ele></ele><time>2025-5-16T21:56:3Z</time></trkpt>
<trkpt lat="48.885982513428" lon="2.6287636756897"><ele></ele><time>2025-5-16T21:56:6Z</time></trkpt>
<trkpt lat="48.886024475098" lon="2.6286995410919"><ele></ele><time>2025-5-16T21:56:9Z</time></trkpt>
<trkpt lat="48.886024475098" lon="2.6286995410919"><ele></ele><time>2025-5-16T21:56:12Z</time></trkpt>
<trkpt lat="48.886074066162" lon="2.6285994052887"><ele></ele><time>2025-5-16T21:56:15Z</time></trkpt>
<trkpt lat="48.886119842529" lon="2.6285381317139"><ele></ele><time>2025-5-16T21:56:18Z</time></trkpt>
<trkpt lat="48.886169433594" lon="2.6284832954407"><ele></ele><time>2025-5-16T21:56:21Z</time></trkpt>
<trkpt lat="48.88623046875" lon="2.6284530162811"><ele></ele><time>2025-5-16T21:56:24Z</time></trkpt>
<trkpt lat="48.886295318604" lon="2.6284174919128"><ele></ele><time>2025-5-16T21:56:27Z</time></trkpt>
<trkpt lat="48.88635635376" lon="2.6283569335938"><ele></ele><time>2025-5-16T21:56:30Z</time></trkpt>
<trkpt lat="48.886405944824" lon="2.628261089325"><ele></ele><time>2025-5-16T21:56:33Z</time></trkpt>
<trkpt lat="48.886470794678" lon="2.628155708313"><ele></ele><time>2025-5-16T21:56:36Z</time></trkpt>
<trkpt lat="48.886470794678" lon="2.628155708313"><ele></ele><time>2025-5-16T21:56:39Z</time></trkpt>
<trkpt lat="48.886516571045" lon="2.628068447113"><ele></ele><time>2025-5-16T21:56:42Z</time></trkpt>
<trkpt lat="48.886577606201" lon="2.627970457077"><ele></ele><time>2025-5-16T21:56:45Z</time></trkpt>
<trkpt lat="48.886577606201" lon="2.627970457077"><ele></ele><time>2025-5-16T21:56:48Z</time></trkpt>
<trkpt lat="48.886680603027" lon="2.6279079914093"><ele></ele><time>2025-5-16T21:56:51Z</time></trkpt>
<trkpt lat="48.886680603027" lon="2.6279079914093"><ele></ele><time>2025-5-16T21:56:54Z</time></trkpt>
<trkpt lat="48.886680603027" lon="2.6279079914093"><ele></ele><time>2025-5-16T21:56:57Z</time></trkpt>
<trkpt lat="48.886791229248" lon="2.6278419494629"><ele></ele><time>2025-5-16T21:57:0Z</time></trkpt>
<trkpt lat="48.886856079102" lon="2.6277871131897"><ele></ele><time>2025-5-16T21:57:3Z</time></trkpt>
<trkpt lat="48.886913299561" lon="2.6277134418488"><ele></ele><time>2025-5-16T21:57:6Z</time></trkpt>
<trkpt lat="48.886978149414" lon="2.6276321411133"><ele></ele><time>2025-5-16T21:57:9Z</time></trkpt>
<trkpt lat="48.887046813965" lon="2.6275486946106"><ele></ele><time>2025-5-16T21:57:12Z</time></trkpt>
<trkpt lat="48.887107849121" lon="2.6274569034576"><ele></ele><time>2025-5-16T21:57:15Z</time></trkpt>
<trkpt lat="48.887168884277" lon="2.6273553371429"><ele></ele><time>2025-5-16T21:57:18Z</time></trkpt>
<trkpt lat="48.887229919434" lon="2.6272666454315"><ele></ele><time>2025-5-16T21:57:21Z</time></trkpt>
<trkpt lat="48.887287139893" lon="2.6271932125092"><ele></ele><time>2025-5-16T21:57:24Z</time></trkpt>
<trkpt lat="48.887340545654" lon="2.6271312236786"><ele></ele><time>2025-5-16T21:57:27Z</time></trkpt>
<trkpt lat="48.887340545654" lon="2.6271312236786"><ele></ele><time>2025-5-16T21:57:30Z</time></trkpt>
<trkpt lat="48.887413024902" lon="2.6270909309387"><ele></ele><time>2025-5-16T21:57:33Z</time></trkpt>
<trkpt lat="48.887470245361" lon="2.6270554065704"><ele></ele><time>2025-5-16T21:57:36Z</time></trkpt>
<trkpt lat="48.887535095215" lon="2.6269798278809"><ele></ele><time>2025-5-16T21:57:39Z</time></trkpt>
<trkpt lat="48.887588500977" lon="2.6269071102142"><ele></ele><time>2025-5-16T21:57:42Z</time></trkpt>
<trkpt lat="48.887588500977" lon="2.6269071102142"><ele></ele><time>2025-5-16T21:57:45Z</time></trkpt>
<trkpt lat="48.887672424316" lon="2.6268615722656"><ele></ele><time>2025-5-16T21:57:48Z</time></trkpt>
<trkpt lat="48.887672424316" lon="2.6268615722656"><ele></ele><time>2025-5-16T21:57:51Z</time></trkpt>
<trkpt lat="48.887672424316" lon="2.6268615722656"><ele></ele><time>2025-5-16T21:57:54Z</time></trkpt>
<trkpt lat="48.88773727417" lon="2.6268701553345"><ele></ele><time>2025-5-16T21:57:57Z</time></trkpt>
<trkpt lat="48.88777923584" lon="2.6269311904907"><ele></ele><time>2025-5-16T21:58:0Z</time></trkpt>
<trkpt lat="48.887828826904" lon="2.626987695694"><ele></ele><time>2025-5-16T21:58:3Z</time></trkpt>
<trkpt lat="48.887870788574" lon="2.6270723342896"><ele></ele><time>2025-5-16T21:58:6Z</time></trkpt>
<trkpt lat="48.887928009033" lon="2.627162694931"><ele></ele><time>2025-5-16T21:58:9Z</time></trkpt>
<trkpt lat="48.887985229492" lon="2.6272664070129"><ele></ele><time>2025-5-16T21:58:12Z</time></trkpt>
<trkpt lat="48.888042449951" lon="2.6273832321167"><ele></ele><time>2025-5-16T21:58:15Z</time></trkpt>
<trkpt lat="48.888107299805" lon="2.6274974346161"><ele></ele><time>2025-5-16T21:58:18Z</time></trkpt>
<trkpt lat="48.888175964355" lon="2.6276125907898"><ele></ele><time>2025-5-16T21:58:21Z</time></trkpt>
<trkpt lat="48.888252258301" lon="2.627739906311"><ele></ele><time>2025-5-16T21:58:24Z</time></trkpt>
<trkpt lat="48.888332366943" lon="2.6278727054596"><ele></ele><time>2025-5-16T21:58:27Z</time></trkpt>
<trkpt lat="48.888408660889" lon="2.6280078887939"><ele></ele><time>2025-5-16T21:58:30Z</time></trkpt>
<trkpt lat="48.888484954834" lon="2.628139257431"><ele></ele><time>2025-5-16T21:58:33Z</time></trkpt>
<trkpt lat="48.888484954834" lon="2.628139257431"><ele></ele><time>2025-5-16T21:58:36Z</time></trkpt>
<trkpt lat="48.888561248779" lon="2.6282851696014"><ele></ele><time>2025-5-16T21:58:39Z</time></trkpt>
<trkpt lat="48.888633728027" lon="2.6284282207489"><ele></ele><time>2025-5-16T21:58:42Z</time></trkpt>
<trkpt lat="48.888706207275" lon="2.6285669803619"><ele></ele><time>2025-5-16T21:58:45Z</time></trkpt>
<trkpt lat="48.888778686523" lon="2.6287083625793"><ele></ele><time>2025-5-16T21:58:48Z</time></trkpt>
<trkpt lat="48.888858795166" lon="2.6288526058197"><ele></ele><time>2025-5-16T21:58:51Z</time></trkpt>
<trkpt lat="48.888942718506" lon="2.6290059089661"><ele></ele><time>2025-5-16T21:58:54Z</time></trkpt>
<trkpt lat="48.889030456543" lon="2.6291725635529"><ele></ele><time>2025-5-16T21:58:57Z</time></trkpt>
<trkpt lat="48.88911819458" lon="2.6293435096741"><ele></ele><time>2025-5-16T21:59:0Z</time></trkpt>
<trkpt lat="48.889221191406" lon="2.6295382976532"><ele></ele><time>2025-5-16T21:59:3Z</time></trkpt>
<trkpt lat="48.889324188232" lon="2.6297233104706"><ele></ele><time>2025-5-16T21:59:6Z</time></trkpt>
<trkpt lat="48.889419555664" lon="2.629894733429"><ele></ele><time>2025-5-16T21:59:9Z</time></trkpt>
<trkpt lat="48.889511108398" lon="2.6300692558289"><ele></ele><time>2025-5-16T21:59:12Z</time></trkpt>
<trkpt lat="48.889595031738" lon="2.630229473114"><ele></ele><time>2025-5-16T21:59:15Z</time></trkpt>
<trkpt lat="48.889675140381" lon="2.6303811073303"><ele></ele><time>2025-5-16T21:59:18Z</time></trkpt>
<trkpt lat="48.889675140381" lon="2.6303811073303"><ele></ele><time>2025-5-16T21:59:21Z</time></trkpt>
<trkpt lat="48.889766693115" lon="2.6305544376373"><ele></ele><time>2025-5-16T21:59:24Z</time></trkpt>
<trkpt lat="48.889862060547" lon="2.6307318210602"><ele></ele><time>2025-5-16T21:59:27Z</time></trkpt>
<trkpt lat="48.889957427979" lon="2.6308908462524"><ele></ele><time>2025-5-16T21:59:30Z</time></trkpt>
<trkpt lat="48.890048980713" lon="2.6310474872589"><ele></ele><time>2025-5-16T21:59:33Z</time></trkpt>
<trkpt lat="48.89013671875" lon="2.6312067508698"><ele></ele><time>2025-5-16T21:59:36Z</time></trkpt>
<trkpt lat="48.890213012695" lon="2.6313469409943"><ele></ele><time>2025-5-16T21:59:39Z</time></trkpt>
<trkpt lat="48.890285491943" lon="2.6314814090729"><ele></ele><time>2025-5-16T21:59:42Z</time></trkpt>
<trkpt lat="48.890354156494" lon="2.6316120624542"><ele></ele><time>2025-5-16T21:59:45Z</time></trkpt>
<trkpt lat="48.89041519165" lon="2.6317281723022"><ele></ele><time>2025-5-16T21:59:48Z</time></trkpt>
<trkpt lat="48.890464782715" lon="2.6318225860596"><ele></ele><time>2025-5-16T21:59:51Z</time></trkpt>
<trkpt lat="48.890514373779" lon="2.6319074630737"><ele></ele><time>2025-5-16T21:59:54Z</time></trkpt>
<trkpt lat="48.890567779541" lon="2.6319971084595"><ele></ele><time>2025-5-16T21:59:57Z</time></trkpt>
<trkpt lat="48.890617370605" lon="2.6320929527283"><ele></ele><time>2025-5-16T22:0:0Z</time></trkpt>
<trkpt lat="48.890659332275" lon="2.6321821212769"><ele></ele><time>2025-5-16T22:0:3Z</time></trkpt>
<trkpt lat="48.890659332275" lon="2.6321821212769"><ele></ele><time>2025-5-16T22:0:6Z</time></trkpt>
<trkpt lat="48.890727996826" lon="2.6323251724243"><ele></ele><time>2025-5-16T22:0:9Z</time></trkpt>
<trkpt lat="48.890727996826" lon="2.6323251724243"><ele></ele><time>2025-5-16T22:0:12Z</time></trkpt>
<trkpt lat="48.890796661377" lon="2.6324417591095"><ele></ele><time>2025-5-16T22:0:15Z</time></trkpt>
<trkpt lat="48.890796661377" lon="2.6324417591095"><ele></ele><time>2025-5-16T22:0:18Z</time></trkpt>
<trkpt lat="48.89087677002" lon="2.6325635910034"><ele></ele><time>2025-5-16T22:0:21Z</time></trkpt>
<trkpt lat="48.890888214111" lon="2.6326639652252"><ele></ele><time>2025-5-16T22:0:24Z</time></trkpt>
<trkpt lat="48.890884399414" lon="2.6327605247498"><ele></ele><time>2025-5-16T22:0:27Z</time></trkpt>
<trkpt lat="48.890892028809" lon="2.6328730583191"><ele></ele><time>2025-5-16T22:0:30Z</time></trkpt>
<trkpt lat="48.890899658203" lon="2.6329798698425"><ele></ele><time>2025-5-16T22:0:33Z</time></trkpt>
<trkpt lat="48.890895843506" lon="2.6330666542053"><ele></ele><time>2025-5-16T22:0:36Z</time></trkpt>
<trkpt lat="48.890911102295" lon="2.6331822872162"><ele></ele><time>2025-5-16T22:0:39Z</time></trkpt>
<trkpt lat="48.890956878662" lon="2.633275270462"><ele></ele><time>2025-5-16T22:0:42Z</time></trkpt>
<trkpt lat="48.891036987305" lon="2.6333539485931"><ele></ele><time>2025-5-16T22:0:45Z</time></trkpt>
<trkpt lat="48.891036987305" lon="2.6333539485931"><ele></ele><time>2025-5-16T22:0:48Z</time></trkpt>
<trkpt lat="48.891101837158" lon="2.6334311962128"><ele></ele><time>2025-5-16T22:0:51Z</time></trkpt>
<trkpt lat="48.891101837158" lon="2.6334311962128"><ele></ele><time>2025-5-16T22:0:54Z</time></trkpt>
<trkpt lat="48.89115524292" lon="2.6335461139679"><ele></ele><time>2025-5-16T22:0:57Z</time></trkpt>
<trkpt lat="48.891193389893" lon="2.6336262226105"><ele></ele><time>2025-5-16T22:1:0Z</time></trkpt>
<trkpt lat="48.891227722168" lon="2.6337101459503"><ele></ele><time>2025-5-16T22:1:3Z</time></trkpt>
<trkpt lat="48.891262054443" lon="2.6338093280792"><ele></ele><time>2025-5-16T22:1:6Z</time></trkpt>
<trkpt lat="48.891300201416" lon="2.6339168548584"><ele></ele><time>2025-5-16T22:1:9Z</time></trkpt>
<trkpt lat="48.891345977783" lon="2.6340160369873"><ele></ele><time>2025-5-16T22:1:12Z</time></trkpt>
<trkpt lat="48.89136505127" lon="2.6341109275818"><ele></ele><time>2025-5-16T22:1:15Z</time></trkpt>
<trkpt lat="48.89139175415" lon="2.6342442035675"><ele></ele><time>2025-5-16T22:1:18Z</time></trkpt>
<trkpt lat="48.891414642334" lon="2.6343595981598"><ele></ele><time>2025-5-16T22:1:21Z</time></trkpt>
<trkpt lat="48.891414642334" lon="2.6343595981598"><ele></ele><time>2025-5-16T22:1:24Z</time></trkpt>
<trkpt lat="48.891490936279" lon="2.6345262527466"><ele></ele><time>2025-5-16T22:1:27Z</time></trkpt>
<trkpt lat="48.891532897949" lon="2.6345944404602"><ele></ele><time>2025-5-16T22:1:30Z</time></trkpt>
<trkpt lat="48.891567230225" lon="2.6346731185913"><ele></ele><time>2025-5-16T22:1:33Z</time></trkpt>
<trkpt lat="48.891613006592" lon="2.6347932815552"><ele></ele><time>2025-5-16T22:1:36Z</time></trkpt>
<trkpt lat="48.891654968262" lon="2.6349248886108"><ele></ele><time>2025-5-16T22:1:39Z</time></trkpt>
<trkpt lat="48.891654968262" lon="2.6349248886108"><ele></ele><time>2025-5-16T22:1:42Z</time></trkpt>
<trkpt lat="48.891681671143" lon="2.6350283622742"><ele></ele><time>2025-5-16T22:1:45Z</time></trkpt>
<trkpt lat="48.891716003418" lon="2.6351516246796"><ele></ele><time>2025-5-16T22:1:48Z</time></trkpt>
<trkpt lat="48.891750335693" lon="2.6352896690369"><ele></ele><time>2025-5-16T22:1:51Z</time></trkpt>
<trkpt lat="48.891780853271" lon="2.6354112625122"><ele></ele><time>2025-5-16T22:1:54Z</time></trkpt>
<trkpt lat="48.891780853271" lon="2.6354112625122"><ele></ele><time>2025-5-16T22:1:57Z</time></trkpt>
<trkpt lat="48.8918800354" lon="2.6356418132782"><ele></ele><time>2025-5-16T22:2:0Z</time></trkpt>
<trkpt lat="48.891929626465" lon="2.6357409954071"><ele></ele><time>2025-5-16T22:2:3Z</time></trkpt>
<trkpt lat="48.891971588135" lon="2.6358513832092"><ele></ele><time>2025-5-16T22:2:6Z</time></trkpt>
<trkpt lat="48.892009735107" lon="2.6360132694244"><ele></ele><time>2025-5-16T22:2:9Z</time></trkpt>
<trkpt lat="48.892040252686" lon="2.636173248291"><ele></ele><time>2025-5-16T22:2:12Z</time></trkpt>
<trkpt lat="48.892063140869" lon="2.6362812519073"><ele></ele><time>2025-5-16T22:2:15Z</time></trkpt>
<trkpt lat="48.892063140869" lon="2.6362812519073"><ele></ele><time>2025-5-16T22:2:18Z</time></trkpt>
<trkpt lat="48.892139434814" lon="2.6364629268646"><ele></ele><time>2025-5-16T22:2:21Z</time></trkpt>
<trkpt lat="48.892139434814" lon="2.6364629268646"><ele></ele><time>2025-5-16T22:2:24Z</time></trkpt>
<trkpt lat="48.892177581787" lon="2.6365864276886"><ele></ele><time>2025-5-16T22:2:27Z</time></trkpt>
<trkpt lat="48.89221572876" lon="2.6366531848907"><ele></ele><time>2025-5-16T22:2:30Z</time></trkpt>
<trkpt lat="48.892261505127" lon="2.6367697715759"><ele></ele><time>2025-5-16T22:2:33Z</time></trkpt>
<trkpt lat="48.892261505127" lon="2.6367697715759"><ele></ele><time>2025-5-16T22:2:36Z</time></trkpt>
<trkpt lat="48.892307281494" lon="2.6368637084961"><ele></ele><time>2025-5-16T22:2:39Z</time></trkpt>
<trkpt lat="48.892349243164" lon="2.6369607448578"><ele></ele><time>2025-5-16T22:2:42Z</time></trkpt>
<trkpt lat="48.892387390137" lon="2.6370620727539"><ele></ele><time>2025-5-16T22:2:45Z</time></trkpt>
<trkpt lat="48.892387390137" lon="2.6370620727539"><ele></ele><time>2025-5-16T22:2:48Z</time></trkpt>
<trkpt lat="48.892421722412" lon="2.6371603012085"><ele></ele><time>2025-5-16T22:2:51Z</time></trkpt>
<trkpt lat="48.892505645752" lon="2.6372644901276"><ele></ele><time>2025-5-16T22:2:54Z</time></trkpt>
<trkpt lat="48.892646789551" lon="2.6375136375427"><ele></ele><time>2025-5-16T22:2:57Z</time></trkpt>
<trkpt lat="48.892734527588" lon="2.637638092041"><ele></ele><time>2025-5-16T22:3:0Z</time></trkpt>
<trkpt lat="48.89282989502" lon="2.6377675533295"><ele></ele><time>2025-5-16T22:3:3Z</time></trkpt>
<trkpt lat="48.892906188965" lon="2.6378917694092"><ele></ele><time>2025-5-16T22:3:6Z</time></trkpt>
<trkpt lat="48.892971038818" lon="2.6379799842834"><ele></ele><time>2025-5-16T22:3:9Z</time></trkpt>
<trkpt lat="48.89302444458" lon="2.6380817890167"><ele></ele><time>2025-5-16T22:3:12Z</time></trkpt>
<trkpt lat="48.893077850342" lon="2.6381883621216"><ele></ele><time>2025-5-16T22:3:15Z</time></trkpt>
<trkpt lat="48.893169403076" lon="2.6382622718811"><ele></ele><time>2025-5-16T22:3:18Z</time></trkpt>
<trkpt lat="48.893291473389" lon="2.6382629871368"><ele></ele><time>2025-5-16T22:3:21Z</time></trkpt>
<trkpt lat="48.893291473389" lon="2.6382629871368"><ele></ele><time>2025-5-16T22:3:24Z</time></trkpt>
<trkpt lat="48.893363952637" lon="2.63835978508"><ele></ele><time>2025-5-16T22:3:27Z</time></trkpt>
<trkpt lat="48.893402099609" lon="2.6384572982788"><ele></ele><time>2025-5-16T22:3:30Z</time></trkpt>
<trkpt lat="48.893447875977" lon="2.6385722160339"><ele></ele><time>2025-5-16T22:3:33Z</time></trkpt>
<trkpt lat="48.893447875977" lon="2.6385722160339"><ele></ele><time>2025-5-16T22:3:36Z</time></trkpt>
<trkpt lat="48.893501281738" lon="2.6386280059814"><ele></ele><time>2025-5-16T22:3:39Z</time></trkpt>
<trkpt lat="48.893501281738" lon="2.6386280059814"><ele></ele><time>2025-5-16T22:3:42Z</time></trkpt>
<trkpt lat="48.893676757812" lon="2.6386387348175"><ele></ele><time>2025-5-16T22:3:45Z</time></trkpt>
<trkpt lat="48.893676757812" lon="2.6386387348175"><ele></ele><time>2025-5-16T22:3:48Z</time></trkpt>
<trkpt lat="48.893783569336" lon="2.6386303901672"><ele></ele><time>2025-5-16T22:3:51Z</time></trkpt>
<trkpt lat="48.89387512207" lon="2.638614654541"><ele></ele><time>2025-5-16T22:3:54Z</time></trkpt>
<trkpt lat="48.893966674805" lon="2.6385962963104"><ele></ele><time>2025-5-16T22:3:57Z</time></trkpt>
<trkpt lat="48.893966674805" lon="2.6385962963104"><ele></ele><time>2025-5-16T22:4:0Z</time></trkpt>
<trkpt lat="48.894027709961" lon="2.6385877132416"><ele></ele><time>2025-5-16T22:4:3Z</time></trkpt>
<trkpt lat="48.894088745117" lon="2.6385884284973"><ele></ele><time>2025-5-16T22:4:6Z</time></trkpt>
<trkpt lat="48.894088745117" lon="2.6385884284973"><ele></ele><time>2025-5-16T22:4:9Z</time></trkpt>
<trkpt lat="48.894088745117" lon="2.6385884284973"><ele></ele><time>2025-5-16T22:4:12Z</time></trkpt>
<trkpt lat="48.894149780273" lon="2.6386408805847"><ele></ele><time>2025-5-16T22:4:15Z</time></trkpt>
<trkpt lat="48.894149780273" lon="2.6386408805847"><ele></ele><time>2025-5-16T22:4:18Z</time></trkpt>
<trkpt lat="48.894207000732" lon="2.6387600898743"><ele></ele><time>2025-5-16T22:4:21Z</time></trkpt>
<trkpt lat="48.894207000732" lon="2.6387600898743"><ele></ele><time>2025-5-16T22:4:24Z</time></trkpt>
<trkpt lat="48.894245147705" lon="2.6388566493988"><ele></ele><time>2025-5-16T22:4:27Z</time></trkpt>
<trkpt lat="48.894268035889" lon="2.6389472484589"><ele></ele><time>2025-5-16T22:4:30Z</time></trkpt>
<trkpt lat="48.89429473877" lon="2.6390604972839"><ele></ele><time>2025-5-16T22:4:33Z</time></trkpt>
<trkpt lat="48.89429473877" lon="2.6390604972839"><ele></ele><time>2025-5-16T22:4:36Z</time></trkpt>
<trkpt lat="48.894351959229" lon="2.6392571926117"><ele></ele><time>2025-5-16T22:4:39Z</time></trkpt>
<trkpt lat="48.894351959229" lon="2.6392571926117"><ele></ele><time>2025-5-16T22:4:42Z</time></trkpt>
<trkpt lat="48.894351959229" lon="2.6392571926117"><ele></ele><time>2025-5-16T22:4:45Z</time></trkpt>
<trkpt lat="48.894412994385" lon="2.639365196228"><ele></ele><time>2025-5-16T22:4:48Z</time></trkpt>
<trkpt lat="48.894458770752" lon="2.6394488811493"><ele></ele><time>2025-5-16T22:4:51Z</time></trkpt>
<trkpt lat="48.894504547119" lon="2.6395392417908"><ele></ele><time>2025-5-16T22:4:54Z</time></trkpt>
<trkpt lat="48.894504547119" lon="2.6395392417908"><ele></ele><time>2025-5-16T22:4:57Z</time></trkpt>
<trkpt lat="48.894584655762" lon="2.639762878418"><ele></ele><time>2025-5-16T22:5:0Z</time></trkpt>
<trkpt lat="48.894630432129" lon="2.6398849487305"><ele></ele><time>2025-5-16T22:5:3Z</time></trkpt>
<trkpt lat="48.894630432129" lon="2.6398849487305"><ele></ele><time>2025-5-16T22:5:6Z</time></trkpt>
<trkpt lat="48.894660949707" lon="2.6399955749512"><ele></ele><time>2025-5-16T22:5:9Z</time></trkpt>
<trkpt lat="48.894676208496" lon="2.6401200294495"><ele></ele><time>2025-5-16T22:5:12Z</time></trkpt>
<trkpt lat="48.894676208496" lon="2.6401200294495"><ele></ele><time>2025-5-16T22:5:15Z</time></trkpt>
<trkpt lat="48.894718170166" lon="2.6403012275696"><ele></ele><time>2025-5-16T22:5:18Z</time></trkpt>
<trkpt lat="48.894802093506" lon="2.6405274868011"><ele></ele><time>2025-5-16T22:5:21Z</time></trkpt>
<trkpt lat="48.894802093506" lon="2.6405274868011"><ele></ele><time>2025-5-16T22:5:24Z</time></trkpt>
<trkpt lat="48.894802093506" lon="2.6405274868011"><ele></ele><time>2025-5-16T22:5:27Z</time></trkpt>
<trkpt lat="48.894866943359" lon="2.6407489776611"><ele></ele><time>2025-5-16T22:5:30Z</time></trkpt>
<trkpt lat="48.894866943359" lon="2.6407489776611"><ele></ele><time>2025-5-16T22:5:33Z</time></trkpt>
<trkpt lat="48.894981384277" lon="2.6409482955933"><ele></ele><time>2025-5-16T22:5:36Z</time></trkpt>
<trkpt lat="48.89506149292" lon="2.6410510540009"><ele></ele><time>2025-5-16T22:5:39Z</time></trkpt>
<trkpt lat="48.895130157471" lon="2.6411528587341"><ele></ele><time>2025-5-16T22:5:42Z</time></trkpt>
<trkpt lat="48.895130157471" lon="2.6411528587341"><ele></ele><time>2025-5-16T22:5:45Z</time></trkpt>
<trkpt lat="48.895130157471" lon="2.6411528587341"><ele></ele><time>2025-5-16T22:5:48Z</time></trkpt>
<trkpt lat="48.895473480225" lon="2.6416177749634"><ele></ele><time>2025-5-16T22:5:51Z</time></trkpt>
<trkpt lat="48.895576477051" lon="2.6417360305786"><ele></ele><time>2025-5-16T22:5:54Z</time></trkpt>
<trkpt lat="48.895690917969" lon="2.6418738365173"><ele></ele><time>2025-5-16T22:5:57Z</time></trkpt>
<trkpt lat="48.895771026611" lon="2.6419999599457"><ele></ele><time>2025-5-16T22:6:0Z</time></trkpt>
<trkpt lat="48.895854949951" lon="2.6421010494232"><ele></ele><time>2025-5-16T22:6:3Z</time></trkpt>
<trkpt lat="48.895915985107" lon="2.6421818733215"><ele></ele><time>2025-5-16T22:6:6Z</time></trkpt>
<trkpt lat="48.895999908447" lon="2.6422915458679"><ele></ele><time>2025-5-16T22:6:9Z</time></trkpt>
<trkpt lat="48.896083831787" lon="2.6424157619476"><ele></ele><time>2025-5-16T22:6:12Z</time></trkpt>
<trkpt lat="48.896152496338" lon="2.6425323486328"><ele></ele><time>2025-5-16T22:6:15Z</time></trkpt>
<trkpt lat="48.896209716797" lon="2.6426570415497"><ele></ele><time>2025-5-16T22:6:18Z</time></trkpt>
<trkpt lat="48.896263122559" lon="2.6427750587463"><ele></ele><time>2025-5-16T22:6:21Z</time></trkpt>
<trkpt lat="48.896373748779" lon="2.643054485321"><ele></ele><time>2025-5-16T22:6:24Z</time></trkpt>
<trkpt lat="48.896373748779" lon="2.643054485321"><ele></ele><time>2025-5-16T22:6:27Z</time></trkpt>
<trkpt lat="48.896472930908" lon="2.6431677341461"><ele></ele><time>2025-5-16T22:6:30Z</time></trkpt>
<trkpt lat="48.896659851074" lon="2.6431336402893"><ele></ele><time>2025-5-16T22:6:33Z</time></trkpt>
<trkpt lat="48.896659851074" lon="2.6431336402893"><ele></ele><time>2025-5-16T22:6:36Z</time></trkpt>
<trkpt lat="48.896747589111" lon="2.6430950164795"><ele></ele><time>2025-5-16T22:6:39Z</time></trkpt>
<trkpt lat="48.896839141846" lon="2.6430659294128"><ele></ele><time>2025-5-16T22:6:42Z</time></trkpt>
<trkpt lat="48.896919250488" lon="2.6430497169495"><ele></ele><time>2025-5-16T22:6:45Z</time></trkpt>
<trkpt lat="48.896919250488" lon="2.6430497169495"><ele></ele><time>2025-5-16T22:6:48Z</time></trkpt>
<trkpt lat="48.89701461792" lon="2.6430039405823"><ele></ele><time>2025-5-16T22:6:51Z</time></trkpt>
<trkpt lat="48.897117614746" lon="2.6429555416107"><ele></ele><time>2025-5-16T22:6:54Z</time></trkpt>
<trkpt lat="48.897212982178" lon="2.6429035663605"><ele></ele><time>2025-5-16T22:6:57Z</time></trkpt>
<trkpt lat="48.897300720215" lon="2.6428492069244"><ele></ele><time>2025-5-16T22:7:0Z</time></trkpt>
<trkpt lat="48.897361755371" lon="2.6427915096283"><ele></ele><time>2025-5-16T22:7:3Z</time></trkpt>
<trkpt lat="48.897361755371" lon="2.6427915096283"><ele></ele><time>2025-5-16T22:7:6Z</time></trkpt>
<trkpt lat="48.897430419922" lon="2.6427192687988"><ele></ele><time>2025-5-16T22:7:9Z</time></trkpt>
<trkpt lat="48.897514343262" lon="2.6426544189453"><ele></ele><time>2025-5-16T22:7:12Z</time></trkpt>
<trkpt lat="48.897514343262" lon="2.6426544189453"><ele></ele><time>2025-5-16T22:7:15Z</time></trkpt>
<trkpt lat="48.897583007812" lon="2.6426222324371"><ele></ele><time>2025-5-16T22:7:18Z</time></trkpt>
<trkpt lat="48.897583007812" lon="2.6426222324371"><ele></ele><time>2025-5-16T22:7:21Z</time></trkpt>
<trkpt lat="48.897583007812" lon="2.6426222324371"><ele></ele><time>2025-5-16T22:7:24Z</time></trkpt>
<trkpt lat="48.897319793701" lon="2.6427850723267"><ele></ele><time>2025-5-16T22:7:27Z</time></trkpt>
<trkpt lat="48.897319793701" lon="2.6427850723267"><ele></ele><time>2025-5-16T22:7:30Z</time></trkpt>
<trkpt lat="48.897239685059" lon="2.6428344249725"><ele></ele><time>2025-5-16T22:7:33Z</time></trkpt>
<trkpt lat="48.897178649902" lon="2.6428570747375"><ele></ele><time>2025-5-16T22:7:36Z</time></trkpt>
<trkpt lat="48.89709854126" lon="2.6428980827332"><ele></ele><time>2025-5-16T22:7:39Z</time></trkpt>
<trkpt lat="48.89709854126" lon="2.6428980827332"><ele></ele><time>2025-5-16T22:7:42Z</time></trkpt>
<trkpt lat="48.89701461792" lon="2.6429343223572"><ele></ele><time>2025-5-16T22:7:45Z</time></trkpt>
<trkpt lat="48.896915435791" lon="2.642968416214"><ele></ele><time>2025-5-16T22:7:48Z</time></trkpt>
<trkpt lat="48.896831512451" lon="2.6430070400238"><ele></ele><time>2025-5-16T22:7:51Z</time></trkpt>
<trkpt lat="48.896831512451" lon="2.6430070400238"><ele></ele><time>2025-5-16T22:7:54Z</time></trkpt>
<trkpt lat="48.89673614502" lon="2.6430563926697"><ele></ele><time>2025-5-16T22:7:57Z</time></trkpt>
<trkpt lat="48.896648406982" lon="2.6431005001068"><ele></ele><time>2025-5-16T22:8:0Z</time></trkpt>
<trkpt lat="48.896545410156" lon="2.6432073116302"><ele></ele><time>2025-5-16T22:8:3Z</time></trkpt>
<trkpt lat="48.896518707275" lon="2.6433215141296"><ele></ele><time>2025-5-16T22:8:6Z</time></trkpt>
<trkpt lat="48.896518707275" lon="2.6433215141296"><ele></ele><time>2025-5-16T22:8:9Z</time></trkpt>
<trkpt lat="48.896606445312" lon="2.6435325145721"><ele></ele><time>2025-5-16T22:8:12Z</time></trkpt>
<trkpt lat="48.896640777588" lon="2.6437106132507"><ele></ele><time>2025-5-16T22:8:15Z</time></trkpt>
<trkpt lat="48.896686553955" lon="2.6438415050507"><ele></ele><time>2025-5-16T22:8:18Z</time></trkpt>
<trkpt lat="48.896686553955" lon="2.6438415050507"><ele></ele><time>2025-5-16T22:8:21Z</time></trkpt>
<trkpt lat="48.896686553955" lon="2.6438415050507"><ele></ele><time>2025-5-16T22:8:24Z</time></trkpt>
<trkpt lat="48.896770477295" lon="2.6439189910889"><ele></ele><time>2025-5-16T22:8:27Z</time></trkpt>
<trkpt lat="48.896770477295" lon="2.6439189910889"><ele></ele><time>2025-5-16T22:8:30Z</time></trkpt>
<trkpt lat="48.896770477295" lon="2.6439189910889"><ele></ele><time>2025-5-16T22:8:33Z</time></trkpt>
<trkpt lat="48.896854400635" lon="2.6440601348877"><ele></ele><time>2025-5-16T22:8:36Z</time></trkpt>
<trkpt lat="48.896854400635" lon="2.6440601348877"><ele></ele><time>2025-5-16T22:8:39Z</time></trkpt>
<trkpt lat="48.896942138672" lon="2.6442542076111"><ele></ele><time>2025-5-16T22:8:42Z</time></trkpt>
<trkpt lat="48.896942138672" lon="2.6442542076111"><ele></ele><time>2025-5-16T22:8:45Z</time></trkpt>
<trkpt lat="48.896942138672" lon="2.6442542076111"><ele></ele><time>2025-5-16T22:8:48Z</time></trkpt>
<trkpt lat="48.89701461792" lon="2.6444101333618"><ele></ele><time>2025-5-16T22:8:51Z</time></trkpt>
<trkpt lat="48.89701461792" lon="2.6444101333618"><ele></ele><time>2025-5-16T22:8:54Z</time></trkpt>
<trkpt lat="48.89701461792" lon="2.6444101333618"><ele></ele><time>2025-5-16T22:8:57Z</time></trkpt>
<trkpt lat="48.897087097168" lon="2.6445126533508"><ele></ele><time>2025-5-16T22:9:0Z</time></trkpt>
<trkpt lat="48.897087097168" lon="2.6445126533508"><ele></ele><time>2025-5-16T22:9:3Z</time></trkpt>
<trkpt lat="48.89720916748" lon="2.6449165344238"><ele></ele><time>2025-5-16T22:9:6Z</time></trkpt>
<trkpt lat="48.89725112915" lon="2.645081281662"><ele></ele><time>2025-5-16T22:9:9Z</time></trkpt>
<trkpt lat="48.89729309082" lon="2.6452400684357"><ele></ele><time>2025-5-16T22:9:12Z</time></trkpt>
<trkpt lat="48.89729309082" lon="2.6452400684357"><ele></ele><time>2025-5-16T22:9:15Z</time></trkpt>
<trkpt lat="48.897365570068" lon="2.6454951763153"><ele></ele><time>2025-5-16T22:9:18Z</time></trkpt>
<trkpt lat="48.897365570068" lon="2.6454951763153"><ele></ele><time>2025-5-16T22:9:21Z</time></trkpt>
<trkpt lat="48.897365570068" lon="2.6454951763153"><ele></ele><time>2025-5-16T22:9:24Z</time></trkpt>
<trkpt lat="48.897411346436" lon="2.6456520557404"><ele></ele><time>2025-5-16T22:9:27Z</time></trkpt>
<trkpt lat="48.897411346436" lon="2.6456520557404"><ele></ele><time>2025-5-16T22:9:30Z</time></trkpt>
<trkpt lat="48.897480010986" lon="2.6458401679993"><ele></ele><time>2025-5-16T22:9:33Z</time></trkpt>
<trkpt lat="48.897480010986" lon="2.6458401679993"><ele></ele><time>2025-5-16T22:9:36Z</time></trkpt>
<trkpt lat="48.89750289917" lon="2.6460971832275"><ele></ele><time>2025-5-16T22:9:39Z</time></trkpt>
<trkpt lat="48.89750289917" lon="2.6460971832275"><ele></ele><time>2025-5-16T22:9:42Z</time></trkpt>
<trkpt lat="48.89750289917" lon="2.6460971832275"><ele></ele><time>2025-5-16T22:9:45Z</time></trkpt>
<trkpt lat="48.89758682251" lon="2.6462049484253"><ele></ele><time>2025-5-16T22:9:48Z</time></trkpt>
<trkpt lat="48.897640228271" lon="2.6462795734406"><ele></ele><time>2025-5-16T22:9:51Z</time></trkpt>
<trkpt lat="48.897708892822" lon="2.6463634967804"><ele></ele><time>2025-5-16T22:9:54Z</time></trkpt>
<trkpt lat="48.897785186768" lon="2.6464462280273"><ele></ele><time>2025-5-16T22:9:57Z</time></trkpt>
<trkpt lat="48.897872924805" lon="2.6465311050415"><ele></ele><time>2025-5-16T22:10:0Z</time></trkpt>
<trkpt lat="48.897964477539" lon="2.646627664566"><ele></ele><time>2025-5-16T22:10:3Z</time></trkpt>
<trkpt lat="48.898082733154" lon="2.6467571258545"><ele></ele><time>2025-5-16T22:10:6Z</time></trkpt>
<trkpt lat="48.898204803467" lon="2.6468992233276"><ele></ele><time>2025-5-16T22:10:9Z</time></trkpt>
<trkpt lat="48.898326873779" lon="2.6470277309418"><ele></ele><time>2025-5-16T22:10:12Z</time></trkpt>
<trkpt lat="48.898426055908" lon="2.64710688591"><ele></ele><time>2025-5-16T22:10:15Z</time></trkpt>
<trkpt lat="48.898513793945" lon="2.647207736969"><ele></ele><time>2025-5-16T22:10:18Z</time></trkpt>
<trkpt lat="48.898601531982" lon="2.6473286151886"><ele></ele><time>2025-5-16T22:10:21Z</time></trkpt>
<trkpt lat="48.89868927002" lon="2.6474492549896"><ele></ele><time>2025-5-16T22:10:24Z</time></trkpt>
<trkpt lat="48.898784637451" lon="2.6475665569305"><ele></ele><time>2025-5-16T22:10:27Z</time></trkpt>
<trkpt lat="48.898921966553" lon="2.647745847702"><ele></ele><time>2025-5-16T22:10:30Z</time></trkpt>
<trkpt lat="48.898998260498" lon="2.6478352546692"><ele></ele><time>2025-5-16T22:10:33Z</time></trkpt>
<trkpt lat="48.899066925049" lon="2.6479163169861"><ele></ele><time>2025-5-16T22:10:36Z</time></trkpt>
<trkpt lat="48.899147033691" lon="2.6479794979095"><ele></ele><time>2025-5-16T22:10:39Z</time></trkpt>
<trkpt lat="48.899147033691" lon="2.6479794979095"><ele></ele><time>2025-5-16T22:10:42Z</time></trkpt>
<trkpt lat="48.899272918701" lon="2.6480193138123"><ele></ele><time>2025-5-16T22:10:45Z</time></trkpt>
<trkpt lat="48.899272918701" lon="2.6480193138123"><ele></ele><time>2025-5-16T22:10:48Z</time></trkpt>
<trkpt lat="48.899406433105" lon="2.6480305194855"><ele></ele><time>2025-5-16T22:10:51Z</time></trkpt>
<trkpt lat="48.899406433105" lon="2.6480305194855"><ele></ele><time>2025-5-16T22:10:54Z</time></trkpt>
<trkpt lat="48.899562835693" lon="2.648072719574"><ele></ele><time>2025-5-16T22:10:57Z</time></trkpt>
<trkpt lat="48.899562835693" lon="2.648072719574"><ele></ele><time>2025-5-16T22:11:0Z</time></trkpt>
<trkpt lat="48.899745941162" lon="2.6481287479401"><ele></ele><time>2025-5-16T22:11:3Z</time></trkpt>
<trkpt lat="48.899871826172" lon="2.6481471061707"><ele></ele><time>2025-5-16T22:11:6Z</time></trkpt>
<trkpt lat="48.900024414062" lon="2.6481688022614"><ele></ele><time>2025-5-16T22:11:9Z</time></trkpt>
<trkpt lat="48.900146484375" lon="2.6481592655182"><ele></ele><time>2025-5-16T22:11:12Z</time></trkpt>
<trkpt lat="48.900245666504" lon="2.6481487751007"><ele></ele><time>2025-5-16T22:11:15Z</time></trkpt>
<trkpt lat="48.900329589844" lon="2.6481308937073"><ele></ele><time>2025-5-16T22:11:18Z</time></trkpt>
<trkpt lat="48.900402069092" lon="2.6481170654297"><ele></ele><time>2025-5-16T22:11:21Z</time></trkpt>
<trkpt lat="48.900402069092" lon="2.6481170654297"><ele></ele><time>2025-5-16T22:11:24Z</time></trkpt>
<trkpt lat="48.900573730469" lon="2.6481349468231"><ele></ele><time>2025-5-16T22:11:27Z</time></trkpt>
<trkpt lat="48.900657653809" lon="2.6481766700745"><ele></ele><time>2025-5-16T22:11:30Z</time></trkpt>
<trkpt lat="48.900733947754" lon="2.6482174396515"><ele></ele><time>2025-5-16T22:11:33Z</time></trkpt>
<trkpt lat="48.900814056396" lon="2.6482820510864"><ele></ele><time>2025-5-16T22:11:36Z</time></trkpt>
<trkpt lat="48.900886535645" lon="2.6483426094055"><ele></ele><time>2025-5-16T22:11:39Z</time></trkpt>
<trkpt lat="48.900959014893" lon="2.6483860015869"><ele></ele><time>2025-5-16T22:11:42Z</time></trkpt>
<trkpt lat="48.900959014893" lon="2.6483860015869"><ele></ele><time>2025-5-16T22:11:45Z</time></trkpt>
<trkpt lat="48.901103973389" lon="2.6484863758087"><ele></ele><time>2025-5-16T22:11:48Z</time></trkpt>
<trkpt lat="48.901176452637" lon="2.6485548019409"><ele></ele><time>2025-5-16T22:11:51Z</time></trkpt>
<trkpt lat="48.901252746582" lon="2.6486146450043"><ele></ele><time>2025-5-16T22:11:54Z</time></trkpt>
<trkpt lat="48.90140914917" lon="2.6487793922424"><ele></ele><time>2025-5-16T22:11:57Z</time></trkpt>
<trkpt lat="48.901462554932" lon="2.6488466262817"><ele></ele><time>2025-5-16T22:12:0Z</time></trkpt>
<trkpt lat="48.901462554932" lon="2.6488466262817"><ele></ele><time>2025-5-16T22:12:3Z</time></trkpt>
<trkpt lat="48.901462554932" lon="2.6488466262817"><ele></ele><time>2025-5-16T22:12:6Z</time></trkpt>
<trkpt lat="48.901515960693" lon="2.6488826274872"><ele></ele><time>2025-5-16T22:12:9Z</time></trkpt>
<trkpt lat="48.901515960693" lon="2.6488826274872"><ele></ele><time>2025-5-16T22:12:12Z</time></trkpt>
<trkpt lat="48.901580810547" lon="2.6488928794861"><ele></ele><time>2025-5-16T22:12:15Z</time></trkpt>
<trkpt lat="48.901660919189" lon="2.6489851474762"><ele></ele><time>2025-5-16T22:12:18Z</time></trkpt>
<trkpt lat="48.901660919189" lon="2.6489851474762"><ele></ele><time>2025-5-16T22:12:21Z</time></trkpt>
<trkpt lat="48.90172958374" lon="2.6490485668182"><ele></ele><time>2025-5-16T22:12:24Z</time></trkpt>
<trkpt lat="48.901805877686" lon="2.6491477489471"><ele></ele><time>2025-5-16T22:12:27Z</time></trkpt>
<trkpt lat="48.901851654053" lon="2.6492075920105"><ele></ele><time>2025-5-16T22:12:30Z</time></trkpt>
<trkpt lat="48.901916503906" lon="2.6492881774902"><ele></ele><time>2025-5-16T22:12:33Z</time></trkpt>
<trkpt lat="48.901973724365" lon="2.6493470668793"><ele></ele><time>2025-5-16T22:12:36Z</time></trkpt>
<trkpt lat="48.902030944824" lon="2.649418592453"><ele></ele><time>2025-5-16T22:12:39Z</time></trkpt>
<trkpt lat="48.902088165283" lon="2.6494889259338"><ele></ele><time>2025-5-16T22:12:42Z</time></trkpt>
<trkpt lat="48.902145385742" lon="2.6495480537415"><ele></ele><time>2025-5-16T22:12:45Z</time></trkpt>
<trkpt lat="48.902206420898" lon="2.6496021747589"><ele></ele><time>2025-5-16T22:12:48Z</time></trkpt>
<trkpt lat="48.902252197266" lon="2.6496560573578"><ele></ele><time>2025-5-16T22:12:51Z</time></trkpt>
<trkpt lat="48.902297973633" lon="2.6497120857239"><ele></ele><time>2025-5-16T22:12:54Z</time></trkpt>
<trkpt lat="48.902297973633" lon="2.6497120857239"><ele></ele><time>2025-5-16T22:12:57Z</time></trkpt>
<trkpt lat="48.902351379395" lon="2.64976978302"><ele></ele><time>2025-5-16T22:13:0Z</time></trkpt>
<trkpt lat="48.902397155762" lon="2.649822473526"><ele></ele><time>2025-5-16T22:13:3Z</time></trkpt>
<trkpt lat="48.902439117432" lon="2.6498792171478"><ele></ele><time>2025-5-16T22:13:6Z</time></trkpt>
<trkpt lat="48.902439117432" lon="2.6498792171478"><ele></ele><time>2025-5-16T22:13:9Z</time></trkpt>
<trkpt lat="48.902526855469" lon="2.6499965190887"><ele></ele><time>2025-5-16T22:13:12Z</time></trkpt>
<trkpt lat="48.902526855469" lon="2.6499965190887"><ele></ele><time>2025-5-16T22:13:15Z</time></trkpt>
<trkpt lat="48.90259552002" lon="2.6501026153564"><ele></ele><time>2025-5-16T22:13:18Z</time></trkpt>
<trkpt lat="48.902648925781" lon="2.6501924991608"><ele></ele><time>2025-5-16T22:13:21Z</time></trkpt>
<trkpt lat="48.902709960938" lon="2.6503014564514"><ele></ele><time>2025-5-16T22:13:24Z</time></trkpt>
<trkpt lat="48.902759552002" lon="2.6503722667694"><ele></ele><time>2025-5-16T22:13:27Z</time></trkpt>
<trkpt lat="48.902809143066" lon="2.6504800319672"><ele></ele><time>2025-5-16T22:13:30Z</time></trkpt>
<trkpt lat="48.902809143066" lon="2.6504800319672"><ele></ele><time>2025-5-16T22:13:33Z</time></trkpt>
<trkpt lat="48.902988433838" lon="2.6508390903473"><ele></ele><time>2025-5-16T22:13:36Z</time></trkpt>
<trkpt lat="48.903045654297" lon="2.6509618759155"><ele></ele><time>2025-5-16T22:13:39Z</time></trkpt>
<trkpt lat="48.903091430664" lon="2.651073217392"><ele></ele><time>2025-5-16T22:13:42Z</time></trkpt>
<trkpt lat="48.903137207031" lon="2.6511664390564"><ele></ele><time>2025-5-16T22:13:45Z</time></trkpt>
<trkpt lat="48.903186798096" lon="2.6512629985809"><ele></ele><time>2025-5-16T22:13:48Z</time></trkpt>
<trkpt lat="48.903244018555" lon="2.6513738632202"><ele></ele><time>2025-5-16T22:13:51Z</time></trkpt>
<trkpt lat="48.903316497803" lon="2.6514976024628"><ele></ele><time>2025-5-16T22:13:54Z</time></trkpt>
<trkpt lat="48.903385162354" lon="2.6516151428223"><ele></ele><time>2025-5-16T22:13:57Z</time></trkpt>
<trkpt lat="48.903442382812" lon="2.6517150402069"><ele></ele><time>2025-5-16T22:14:0Z</time></trkpt>
<trkpt lat="48.903499603271" lon="2.651807308197"><ele></ele><time>2025-5-16T22:14:3Z</time></trkpt>
<trkpt lat="48.903499603271" lon="2.651807308197"><ele></ele><time>2025-5-16T22:14:6Z</time></trkpt>
<trkpt lat="48.903568267822" lon="2.6519045829773"><ele></ele><time>2025-5-16T22:14:9Z</time></trkpt>
<trkpt lat="48.903648376465" lon="2.6520040035248"><ele></ele><time>2025-5-16T22:14:12Z</time></trkpt>
<trkpt lat="48.903743743896" lon="2.6520965099335"><ele></ele><time>2025-5-16T22:14:15Z</time></trkpt>
<trkpt lat="48.903743743896" lon="2.6520965099335"><ele></ele><time>2025-5-16T22:14:18Z</time></trkpt>
<trkpt lat="48.903823852539" lon="2.6521639823914"><ele></ele><time>2025-5-16T22:14:21Z</time></trkpt>
<trkpt lat="48.903911590576" lon="2.6522312164307"><ele></ele><time>2025-5-16T22:14:24Z</time></trkpt>
<trkpt lat="48.904014587402" lon="2.6523015499115"><ele></ele><time>2025-5-16T22:14:27Z</time></trkpt>
<trkpt lat="48.904014587402" lon="2.6523015499115"><ele></ele><time>2025-5-16T22:14:30Z</time></trkpt>
<trkpt lat="48.904106140137" lon="2.6523649692535"><ele></ele><time>2025-5-16T22:14:33Z</time></trkpt>
<trkpt lat="48.904193878174" lon="2.6524369716644"><ele></ele><time>2025-5-16T22:14:36Z</time></trkpt>
<trkpt lat="48.904270172119" lon="2.6524937152863"><ele></ele><time>2025-5-16T22:14:39Z</time></trkpt>
<trkpt lat="48.904270172119" lon="2.6524937152863"><ele></ele><time>2025-5-16T22:14:42Z</time></trkpt>
<trkpt lat="48.904350280762" lon="2.6525588035583"><ele></ele><time>2025-5-16T22:14:45Z</time></trkpt>
<trkpt lat="48.904438018799" lon="2.6526272296906"><ele></ele><time>2025-5-16T22:14:48Z</time></trkpt>
<trkpt lat="48.904521942139" lon="2.6527037620544"><ele></ele><time>2025-5-16T22:14:51Z</time></trkpt>
<trkpt lat="48.904594421387" lon="2.6527531147003"><ele></ele><time>2025-5-16T22:14:54Z</time></trkpt>
<trkpt lat="48.90465927124" lon="2.6528007984161"><ele></ele><time>2025-5-16T22:14:57Z</time></trkpt>
<trkpt lat="48.904731750488" lon="2.6528568267822"><ele></ele><time>2025-5-16T22:15:0Z</time></trkpt>
<trkpt lat="48.904731750488" lon="2.6528568267822"><ele></ele><time>2025-5-16T22:15:3Z</time></trkpt>
<trkpt lat="48.904811859131" lon="2.6529157161713"><ele></ele><time>2025-5-16T22:15:6Z</time></trkpt>
<trkpt lat="48.904895782471" lon="2.6529905796051"><ele></ele><time>2025-5-16T22:15:9Z</time></trkpt>
<trkpt lat="48.904975891113" lon="2.6530749797821"><ele></ele><time>2025-5-16T22:15:12Z</time></trkpt>
<trkpt lat="48.904975891113" lon="2.6530749797821"><ele></ele><time>2025-5-16T22:15:15Z</time></trkpt>
<trkpt lat="48.905052185059" lon="2.6531608104706"><ele></ele><time>2025-5-16T22:15:18Z</time></trkpt>
<trkpt lat="48.905124664307" lon="2.6532330513"><ele></ele><time>2025-5-16T22:15:21Z</time></trkpt>
<trkpt lat="48.905200958252" lon="2.6533102989197"><ele></ele><time>2025-5-16T22:15:24Z</time></trkpt>
<trkpt lat="48.905200958252" lon="2.6533102989197"><ele></ele><time>2025-5-16T22:15:27Z</time></trkpt>
<trkpt lat="48.9052734375" lon="2.6533861160278"><ele></ele><time>2025-5-16T22:15:30Z</time></trkpt>
<trkpt lat="48.905364990234" lon="2.6534843444824"><ele></ele><time>2025-5-16T22:15:33Z</time></trkpt>
<trkpt lat="48.905448913574" lon="2.6535727977753"><ele></ele><time>2025-5-16T22:15:36Z</time></trkpt>
<trkpt lat="48.905448913574" lon="2.6535727977753"><ele></ele><time>2025-5-16T22:15:39Z</time></trkpt>
<trkpt lat="48.905529022217" lon="2.6536521911621"><ele></ele><time>2025-5-16T22:15:42Z</time></trkpt>
<trkpt lat="48.905609130859" lon="2.6537325382233"><ele></ele><time>2025-5-16T22:15:45Z</time></trkpt>
<trkpt lat="48.905685424805" lon="2.6538140773773"><ele></ele><time>2025-5-16T22:15:48Z</time></trkpt>
<trkpt lat="48.905685424805" lon="2.6538140773773"><ele></ele><time>2025-5-16T22:15:51Z</time></trkpt>
<trkpt lat="48.905757904053" lon="2.653892993927"><ele></ele><time>2025-5-16T22:15:54Z</time></trkpt>
<trkpt lat="48.905826568604" lon="2.6539707183838"><ele></ele><time>2025-5-16T22:15:57Z</time></trkpt>
<trkpt lat="48.905895233154" lon="2.654045343399"><ele></ele><time>2025-5-16T22:16:0Z</time></trkpt>
<trkpt lat="48.905895233154" lon="2.654045343399"><ele></ele><time>2025-5-16T22:16:3Z</time></trkpt>
<trkpt lat="48.905963897705" lon="2.654116153717"><ele></ele><time>2025-5-16T22:16:6Z</time></trkpt>
<trkpt lat="48.906032562256" lon="2.6541883945465"><ele></ele><time>2025-5-16T22:16:9Z</time></trkpt>
<trkpt lat="48.906105041504" lon="2.6542706489563"><ele></ele><time>2025-5-16T22:16:12Z</time></trkpt>
<trkpt lat="48.906105041504" lon="2.6542706489563"><ele></ele><time>2025-5-16T22:16:15Z</time></trkpt>
<trkpt lat="48.906173706055" lon="2.6543483734131"><ele></ele><time>2025-5-16T22:16:18Z</time></trkpt>
<trkpt lat="48.906246185303" lon="2.6544208526611"><ele></ele><time>2025-5-16T22:16:21Z</time></trkpt>
<trkpt lat="48.906322479248" lon="2.6544988155365"><ele></ele><time>2025-5-16T22:16:24Z</time></trkpt>
<trkpt lat="48.906387329102" lon="2.6545679569244"><ele></ele><time>2025-5-16T22:16:27Z</time></trkpt>
<trkpt lat="48.90645980835" lon="2.6546518802643"><ele></ele><time>2025-5-16T22:16:30Z</time></trkpt>
<trkpt lat="48.90645980835" lon="2.6546518802643"><ele></ele><time>2025-5-16T22:16:33Z</time></trkpt>
<trkpt lat="48.9065284729" lon="2.6547226905823"><ele></ele><time>2025-5-16T22:16:36Z</time></trkpt>
<trkpt lat="48.906604766846" lon="2.6547973155975"><ele></ele><time>2025-5-16T22:16:39Z</time></trkpt>
<trkpt lat="48.906673431396" lon="2.654860496521"><ele></ele><time>2025-5-16T22:16:42Z</time></trkpt>
<trkpt lat="48.90673828125" lon="2.654913187027"><ele></ele><time>2025-5-16T22:16:45Z</time></trkpt>
<trkpt lat="48.906803131104" lon="2.6549580097198"><ele></ele><time>2025-5-16T22:16:48Z</time></trkpt>
<trkpt lat="48.906875610352" lon="2.655011177063"><ele></ele><time>2025-5-16T22:16:51Z</time></trkpt>
<trkpt lat="48.906963348389" lon="2.655074596405"><ele></ele><time>2025-5-16T22:16:54Z</time></trkpt>
<trkpt lat="48.907051086426" lon="2.655121088028"><ele></ele><time>2025-5-16T22:16:57Z</time></trkpt>
<trkpt lat="48.90714263916" lon="2.6551752090454"><ele></ele><time>2025-5-16T22:17:0Z</time></trkpt>
<trkpt lat="48.90714263916" lon="2.6551752090454"><ele></ele><time>2025-5-16T22:17:3Z</time></trkpt>
<trkpt lat="48.907215118408" lon="2.655225276947"><ele></ele><time>2025-5-16T22:17:6Z</time></trkpt>
<trkpt lat="48.907283782959" lon="2.655266046524"><ele></ele><time>2025-5-16T22:17:9Z</time></trkpt>
<trkpt lat="48.907409667969" lon="2.6553320884705"><ele></ele><time>2025-5-16T22:17:12Z</time></trkpt>
<trkpt lat="48.907485961914" lon="2.6553721427917"><ele></ele><time>2025-5-16T22:17:15Z</time></trkpt>
<trkpt lat="48.907566070557" lon="2.6554188728333"><ele></ele><time>2025-5-16T22:17:18Z</time></trkpt>
<trkpt lat="48.907638549805" lon="2.6554610729218"><ele></ele><time>2025-5-16T22:17:21Z</time></trkpt>
<trkpt lat="48.907638549805" lon="2.6554610729218"><ele></ele><time>2025-5-16T22:17:24Z</time></trkpt>
<trkpt lat="48.907718658447" lon="2.6555035114288"><ele></ele><time>2025-5-16T22:17:27Z</time></trkpt>
<trkpt lat="48.907802581787" lon="2.6555445194244"><ele></ele><time>2025-5-16T22:17:30Z</time></trkpt>
<trkpt lat="48.907886505127" lon="2.6555869579315"><ele></ele><time>2025-5-16T22:17:33Z</time></trkpt>
<trkpt lat="48.907886505127" lon="2.6555869579315"><ele></ele><time>2025-5-16T22:17:36Z</time></trkpt>
<trkpt lat="48.907958984375" lon="2.6556224822998"><ele></ele><time>2025-5-16T22:17:39Z</time></trkpt>
<trkpt lat="48.908020019531" lon="2.6556506156921"><ele></ele><time>2025-5-16T22:17:42Z</time></trkpt>
<trkpt lat="48.908092498779" lon="2.6556828022003"><ele></ele><time>2025-5-16T22:17:45Z</time></trkpt>
<trkpt lat="48.908092498779" lon="2.6556828022003"><ele></ele><time>2025-5-16T22:17:48Z</time></trkpt>
<trkpt lat="48.908168792725" lon="2.6557214260101"><ele></ele><time>2025-5-16T22:17:51Z</time></trkpt>
<trkpt lat="48.908248901367" lon="2.6557672023773"><ele></ele><time>2025-5-16T22:17:54Z</time></trkpt>
<trkpt lat="48.908336639404" lon="2.65580701828"><ele></ele><time>2025-5-16T22:17:57Z</time></trkpt>
<trkpt lat="48.908336639404" lon="2.65580701828"><ele></ele><time>2025-5-16T22:18:0Z</time></trkpt>
<trkpt lat="48.908432006836" lon="2.6558480262756"><ele></ele><time>2025-5-16T22:18:3Z</time></trkpt>
<trkpt lat="48.908519744873" lon="2.655889749527"><ele></ele><time>2025-5-16T22:18:6Z</time></trkpt>
<trkpt lat="48.908592224121" lon="2.6559243202209"><ele></ele><time>2025-5-16T22:18:9Z</time></trkpt>
<trkpt lat="48.908592224121" lon="2.6559243202209"><ele></ele><time>2025-5-16T22:18:12Z</time></trkpt>
<trkpt lat="48.908664703369" lon="2.655953168869"><ele></ele><time>2025-5-16T22:18:15Z</time></trkpt>
<trkpt lat="48.908740997314" lon="2.6559844017029"><ele></ele><time>2025-5-16T22:18:18Z</time></trkpt>
<trkpt lat="48.908821105957" lon="2.6560142040253"><ele></ele><time>2025-5-16T22:18:21Z</time></trkpt>
<trkpt lat="48.908821105957" lon="2.6560142040253"><ele></ele><time>2025-5-16T22:18:24Z</time></trkpt>
<trkpt lat="48.9089012146" lon="2.6560437679291"><ele></ele><time>2025-5-16T22:18:27Z</time></trkpt>
<trkpt lat="48.908977508545" lon="2.6560697555542"><ele></ele><time>2025-5-16T22:18:30Z</time></trkpt>
<trkpt lat="48.90905380249" lon="2.6560966968536"><ele></ele><time>2025-5-16T22:18:33Z</time></trkpt>
<trkpt lat="48.90905380249" lon="2.6560966968536"><ele></ele><time>2025-5-16T22:18:36Z</time></trkpt>
<trkpt lat="48.909122467041" lon="2.6561253070831"><ele></ele><time>2025-5-16T22:18:39Z</time></trkpt>
<trkpt lat="48.909183502197" lon="2.656156539917"><ele></ele><time>2025-5-16T22:18:42Z</time></trkpt>
<trkpt lat="48.909183502197" lon="2.656156539917"><ele></ele><time>2025-5-16T22:18:45Z</time></trkpt>
<trkpt lat="48.909183502197" lon="2.656156539917"><ele></ele><time>2025-5-16T22:18:48Z</time></trkpt>
<trkpt lat="48.909271240234" lon="2.6562094688416"><ele></ele><time>2025-5-16T22:18:51Z</time></trkpt>
<trkpt lat="48.909332275391" lon="2.6562550067902"><ele></ele><time>2025-5-16T22:18:54Z</time></trkpt>
<trkpt lat="48.909332275391" lon="2.6562550067902"><ele></ele><time>2025-5-16T22:18:57Z</time></trkpt>
<trkpt lat="48.909332275391" lon="2.6562550067902"><ele></ele><time>2025-5-16T22:19:0Z</time></trkpt>
<trkpt lat="48.909435272217" lon="2.6563422679901"><ele></ele><time>2025-5-16T22:19:3Z</time></trkpt>
<trkpt lat="48.909492492676" lon="2.6563889980316"><ele></ele><time>2025-5-16T22:19:6Z</time></trkpt>
<trkpt lat="48.909545898438" lon="2.6564385890961"><ele></ele><time>2025-5-16T22:19:9Z</time></trkpt>
<trkpt lat="48.909595489502" lon="2.6564953327179"><ele></ele><time>2025-5-16T22:19:12Z</time></trkpt>
<trkpt lat="48.909652709961" lon="2.6565554141998"><ele></ele><time>2025-5-16T22:19:15Z</time></trkpt>
<trkpt lat="48.90970993042" lon="2.6566152572632"><ele></ele><time>2025-5-16T22:19:18Z</time></trkpt>
<trkpt lat="48.90970993042" lon="2.6566152572632"><ele></ele><time>2025-5-16T22:19:21Z</time></trkpt>
<trkpt lat="48.909763336182" lon="2.6566722393036"><ele></ele><time>2025-5-16T22:19:24Z</time></trkpt>
<trkpt lat="48.909820556641" lon="2.6567273139954"><ele></ele><time>2025-5-16T22:19:27Z</time></trkpt>
<trkpt lat="48.909881591797" lon="2.6567828655243"><ele></ele><time>2025-5-16T22:19:30Z</time></trkpt>
<trkpt lat="48.909881591797" lon="2.6567828655243"><ele></ele><time>2025-5-16T22:19:33Z</time></trkpt>
<trkpt lat="48.909938812256" lon="2.656839132309"><ele></ele><time>2025-5-16T22:19:36Z</time></trkpt>
<trkpt lat="48.909996032715" lon="2.6568915843964"><ele></ele><time>2025-5-16T22:19:39Z</time></trkpt>
<trkpt lat="48.910060882568" lon="2.6569457054138"><ele></ele><time>2025-5-16T22:19:42Z</time></trkpt>
<trkpt lat="48.910060882568" lon="2.6569457054138"><ele></ele><time>2025-5-16T22:19:45Z</time></trkpt>
<trkpt lat="48.910121917725" lon="2.6569950580597"><ele></ele><time>2025-5-16T22:19:48Z</time></trkpt>
<trkpt lat="48.910182952881" lon="2.6570436954498"><ele></ele><time>2025-5-16T22:19:51Z</time></trkpt>
<trkpt lat="48.910236358643" lon="2.6570906639099"><ele></ele><time>2025-5-16T22:19:54Z</time></trkpt>
<trkpt lat="48.910236358643" lon="2.6570906639099"><ele></ele><time>2025-5-16T22:19:57Z</time></trkpt>
<trkpt lat="48.910289764404" lon="2.6571424007416"><ele></ele><time>2025-5-16T22:20:0Z</time></trkpt>
<trkpt lat="48.910358428955" lon="2.657205581665"><ele></ele><time>2025-5-16T22:20:3Z</time></trkpt>
<trkpt lat="48.910423278809" lon="2.6572723388672"><ele></ele><time>2025-5-16T22:20:6Z</time></trkpt>
<trkpt lat="48.910423278809" lon="2.6572723388672"><ele></ele><time>2025-5-16T22:20:9Z</time></trkpt>
<trkpt lat="48.910491943359" lon="2.6573376655579"><ele></ele><time>2025-5-16T22:20:12Z</time></trkpt>
<trkpt lat="48.910568237305" lon="2.6574108600616"><ele></ele><time>2025-5-16T22:20:15Z</time></trkpt>
<trkpt lat="48.910652160645" lon="2.65749168396"><ele></ele><time>2025-5-16T22:20:18Z</time></trkpt>
<trkpt lat="48.910652160645" lon="2.65749168396"><ele></ele><time>2025-5-16T22:20:21Z</time></trkpt>
<trkpt lat="48.910709381104" lon="2.6575560569763"><ele></ele><time>2025-5-16T22:20:24Z</time></trkpt>
<trkpt lat="48.910774230957" lon="2.6576204299927"><ele></ele><time>2025-5-16T22:20:27Z</time></trkpt>
<trkpt lat="48.910842895508" lon="2.6576957702637"><ele></ele><time>2025-5-16T22:20:30Z</time></trkpt>
<trkpt lat="48.910842895508" lon="2.6576957702637"><ele></ele><time>2025-5-16T22:20:33Z</time></trkpt>
<trkpt lat="48.910919189453" lon="2.6577641963959"><ele></ele><time>2025-5-16T22:20:36Z</time></trkpt>
<trkpt lat="48.910991668701" lon="2.657820224762"><ele></ele><time>2025-5-16T22:20:39Z</time></trkpt>
<trkpt lat="48.911067962646" lon="2.6578764915466"><ele></ele><time>2025-5-16T22:20:42Z</time></trkpt>
<trkpt lat="48.911067962646" lon="2.6578764915466"><ele></ele><time>2025-5-16T22:20:45Z</time></trkpt>
<trkpt lat="48.911140441895" lon="2.6579270362854"><ele></ele><time>2025-5-16T22:20:48Z</time></trkpt>
<trkpt lat="48.911209106445" lon="2.6579563617706"><ele></ele><time>2025-5-16T22:20:51Z</time></trkpt>
<trkpt lat="48.911285400391" lon="2.6579747200012"><ele></ele><time>2025-5-16T22:20:54Z</time></trkpt>
<trkpt lat="48.911285400391" lon="2.6579747200012"><ele></ele><time>2025-5-16T22:20:57Z</time></trkpt>
<trkpt lat="48.911361694336" lon="2.6579780578613"><ele></ele><time>2025-5-16T22:21:0Z</time></trkpt>
<trkpt lat="48.911457061768" lon="2.6579840183258"><ele></ele><time>2025-5-16T22:21:3Z</time></trkpt>
<trkpt lat="48.911544799805" lon="2.6579780578613"><ele></ele><time>2025-5-16T22:21:6Z</time></trkpt>
<trkpt lat="48.911544799805" lon="2.6579780578613"><ele></ele><time>2025-5-16T22:21:9Z</time></trkpt>
<trkpt lat="48.911628723145" lon="2.6579692363739"><ele></ele><time>2025-5-16T22:21:12Z</time></trkpt>
<trkpt lat="48.911712646484" lon="2.6579616069794"><ele></ele><time>2025-5-16T22:21:15Z</time></trkpt>
<trkpt lat="48.911773681641" lon="2.6579596996307"><ele></ele><time>2025-5-16T22:21:18Z</time></trkpt>
<trkpt lat="48.911773681641" lon="2.6579596996307"><ele></ele><time>2025-5-16T22:21:21Z</time></trkpt>
<trkpt lat="48.911838531494" lon="2.657958984375"><ele></ele><time>2025-5-16T22:21:24Z</time></trkpt>
<trkpt lat="48.911903381348" lon="2.6579654216766"><ele></ele><time>2025-5-16T22:21:27Z</time></trkpt>
<trkpt lat="48.91198348999" lon="2.6579833030701"><ele></ele><time>2025-5-16T22:21:30Z</time></trkpt>
<trkpt lat="48.91198348999" lon="2.6579833030701"><ele></ele><time>2025-5-16T22:21:33Z</time></trkpt>
<trkpt lat="48.912078857422" lon="2.6580083370209"><ele></ele><time>2025-5-16T22:21:36Z</time></trkpt>
<trkpt lat="48.912155151367" lon="2.6580333709717"><ele></ele><time>2025-5-16T22:21:39Z</time></trkpt>
<trkpt lat="48.912223815918" lon="2.6580612659454"><ele></ele><time>2025-5-16T22:21:42Z</time></trkpt>
<trkpt lat="48.912223815918" lon="2.6580612659454"><ele></ele><time>2025-5-16T22:21:45Z</time></trkpt>
<trkpt lat="48.912300109863" lon="2.6580903530121"><ele></ele><time>2025-5-16T22:21:48Z</time></trkpt>
<trkpt lat="48.912376403809" lon="2.658118724823"><ele></ele><time>2025-5-16T22:21:51Z</time></trkpt>
<trkpt lat="48.912460327148" lon="2.6581561565399"><ele></ele><time>2025-5-16T22:21:54Z</time></trkpt>
<trkpt lat="48.912460327148" lon="2.6581561565399"><ele></ele><time>2025-5-16T22:21:57Z</time></trkpt>
<trkpt lat="48.912559509277" lon="2.6581897735596"><ele></ele><time>2025-5-16T22:22:0Z</time></trkpt>
<trkpt lat="48.912643432617" lon="2.6582138538361"><ele></ele><time>2025-5-16T22:22:3Z</time></trkpt>
<trkpt lat="48.912715911865" lon="2.6582386493683"><ele></ele><time>2025-5-16T22:22:6Z</time></trkpt>
<trkpt lat="48.912715911865" lon="2.6582386493683"><ele></ele><time>2025-5-16T22:22:9Z</time></trkpt>
<trkpt lat="48.912780761719" lon="2.6582536697388"><ele></ele><time>2025-5-16T22:22:12Z</time></trkpt>
<trkpt lat="48.912841796875" lon="2.6582705974579"><ele></ele><time>2025-5-16T22:22:15Z</time></trkpt>
<trkpt lat="48.912914276123" lon="2.658296585083"><ele></ele><time>2025-5-16T22:22:18Z</time></trkpt>
<trkpt lat="48.912914276123" lon="2.658296585083"><ele></ele><time>2025-5-16T22:22:21Z</time></trkpt>
<trkpt lat="48.912979125977" lon="2.6583156585693"><ele></ele><time>2025-5-16T22:22:24Z</time></trkpt>
<trkpt lat="48.912979125977" lon="2.6583156585693"><ele></ele><time>2025-5-16T22:22:27Z</time></trkpt>
<trkpt lat="48.913078308105" lon="2.6583542823792"><ele></ele><time>2025-5-16T22:22:30Z</time></trkpt>
<trkpt lat="48.913078308105" lon="2.6583542823792"><ele></ele><time>2025-5-16T22:22:33Z</time></trkpt>
<trkpt lat="48.913078308105" lon="2.6583542823792"><ele></ele><time>2025-5-16T22:22:36Z</time></trkpt>
<trkpt lat="48.913188934326" lon="2.6583876609802"><ele></ele><time>2025-5-16T22:22:39Z</time></trkpt>
<trkpt lat="48.913188934326" lon="2.6583876609802"><ele></ele><time>2025-5-16T22:22:42Z</time></trkpt>
<trkpt lat="48.913188934326" lon="2.6583876609802"><ele></ele><time>2025-5-16T22:22:45Z</time></trkpt>
<trkpt lat="48.913303375244" lon="2.6584143638611"><ele></ele><time>2025-5-16T22:22:48Z</time></trkpt>
<trkpt lat="48.913303375244" lon="2.6584143638611"><ele></ele><time>2025-5-16T22:22:51Z</time></trkpt>
<trkpt lat="48.913387298584" lon="2.6584339141846"><ele></ele><time>2025-5-16T22:22:54Z</time></trkpt>
<trkpt lat="48.913387298584" lon="2.6584339141846"><ele></ele><time>2025-5-16T22:22:57Z</time></trkpt>
<trkpt lat="48.913452148438" lon="2.6584491729736"><ele></ele><time>2025-5-16T22:23:0Z</time></trkpt>
<trkpt lat="48.913528442383" lon="2.6584632396698"><ele></ele><time>2025-5-16T22:23:3Z</time></trkpt>
<trkpt lat="48.913597106934" lon="2.6584830284119"><ele></ele><time>2025-5-16T22:23:6Z</time></trkpt>
<trkpt lat="48.913597106934" lon="2.6584830284119"><ele></ele><time>2025-5-16T22:23:9Z</time></trkpt>
<trkpt lat="48.91365814209" lon="2.6585168838501"><ele></ele><time>2025-5-16T22:23:12Z</time></trkpt>
<trkpt lat="48.913715362549" lon="2.6585597991943"><ele></ele><time>2025-5-16T22:23:15Z</time></trkpt>
<trkpt lat="48.913772583008" lon="2.6586191654205"><ele></ele><time>2025-5-16T22:23:18Z</time></trkpt>
<trkpt lat="48.913772583008" lon="2.6586191654205"><ele></ele><time>2025-5-16T22:23:21Z</time></trkpt>
<trkpt lat="48.913799285889" lon="2.6587460041046"><ele></ele><time>2025-5-16T22:23:24Z</time></trkpt>
<trkpt lat="48.913799285889" lon="2.6589274406433"><ele></ele><time>2025-5-16T22:23:27Z</time></trkpt>
<trkpt lat="48.913780212402" lon="2.6591000556946"><ele></ele><time>2025-5-16T22:23:30Z</time></trkpt>
<trkpt lat="48.913780212402" lon="2.6591000556946"><ele></ele><time>2025-5-16T22:23:33Z</time></trkpt>
<trkpt lat="48.913761138916" lon="2.659276008606"><ele></ele><time>2025-5-16T22:23:36Z</time></trkpt>
<trkpt lat="48.913749694824" lon="2.6594650745392"><ele></ele><time>2025-5-16T22:23:39Z</time></trkpt>
<trkpt lat="48.913734436035" lon="2.6596400737762"><ele></ele><time>2025-5-16T22:23:42Z</time></trkpt>
<trkpt lat="48.913734436035" lon="2.6596400737762"><ele></ele><time>2025-5-16T22:23:45Z</time></trkpt>
<trkpt lat="48.913711547852" lon="2.6598324775696"><ele></ele><time>2025-5-16T22:23:48Z</time></trkpt>
<trkpt lat="48.913681030273" lon="2.6600091457367"><ele></ele><time>2025-5-16T22:23:51Z</time></trkpt>
<trkpt lat="48.913650512695" lon="2.660187959671"><ele></ele><time>2025-5-16T22:23:54Z</time></trkpt>
<trkpt lat="48.913650512695" lon="2.660187959671"><ele></ele><time>2025-5-16T22:23:57Z</time></trkpt>
<trkpt lat="48.913623809814" lon="2.6603450775146"><ele></ele><time>2025-5-16T22:24:0Z</time></trkpt>
<trkpt lat="48.913600921631" lon="2.6604688167572"><ele></ele><time>2025-5-16T22:24:3Z</time></trkpt>
<trkpt lat="48.913597106934" lon="2.6605916023254"><ele></ele><time>2025-5-16T22:24:6Z</time></trkpt>
<trkpt lat="48.913597106934" lon="2.6605916023254"><ele></ele><time>2025-5-16T22:24:9Z</time></trkpt>
<trkpt lat="48.913597106934" lon="2.6607203483582"><ele></ele><time>2025-5-16T22:24:12Z</time></trkpt>
<trkpt lat="48.913600921631" lon="2.6608436107635"><ele></ele><time>2025-5-16T22:24:15Z</time></trkpt>
<trkpt lat="48.913600921631" lon="2.6608436107635"><ele></ele><time>2025-5-16T22:24:18Z</time></trkpt>
<trkpt lat="48.913612365723" lon="2.6610066890717"><ele></ele><time>2025-5-16T22:24:21Z</time></trkpt>
<trkpt lat="48.913612365723" lon="2.6610066890717"><ele></ele><time>2025-5-16T22:24:24Z</time></trkpt>
<trkpt lat="48.913612365723" lon="2.6610066890717"><ele></ele><time>2025-5-16T22:24:27Z</time></trkpt>
<trkpt lat="48.913650512695" lon="2.661120891571"><ele></ele><time>2025-5-16T22:24:30Z</time></trkpt>
<trkpt lat="48.913650512695" lon="2.661120891571"><ele></ele><time>2025-5-16T22:24:33Z</time></trkpt>
<trkpt lat="48.913646697998" lon="2.6612310409546"><ele></ele><time>2025-5-16T22:24:36Z</time></trkpt>
<trkpt lat="48.913646697998" lon="2.6612310409546"><ele></ele><time>2025-5-16T22:24:39Z</time></trkpt>
<trkpt lat="48.913646697998" lon="2.6612310409546"><ele></ele><time>2025-5-16T22:24:42Z</time></trkpt>
<trkpt lat="48.91365814209" lon="2.6613175868988"><ele></ele><time>2025-5-16T22:24:45Z</time></trkpt>
<trkpt lat="48.91365814209" lon="2.6613175868988"><ele></ele><time>2025-5-16T22:24:48Z</time></trkpt>
<trkpt lat="48.91365814209" lon="2.6613175868988"><ele></ele><time>2025-5-16T22:24:51Z</time></trkpt>
<trkpt lat="48.91365814209" lon="2.6613175868988"><ele></ele><time>2025-5-16T22:24:54Z</time></trkpt>
<trkpt lat="48.913677215576" lon="2.6615266799927"><ele></ele><time>2025-5-16T22:24:57Z</time></trkpt>
<trkpt lat="48.913677215576" lon="2.6615266799927"><ele></ele><time>2025-5-16T22:25:0Z</time></trkpt>
<trkpt lat="48.913681030273" lon="2.6616621017456"><ele></ele><time>2025-5-16T22:25:3Z</time></trkpt>
<trkpt lat="48.913681030273" lon="2.6616621017456"><ele></ele><time>2025-5-16T22:25:6Z</time></trkpt>
<trkpt lat="48.913665771484" lon="2.6617963314056"><ele></ele><time>2025-5-16T22:25:9Z</time></trkpt>
<trkpt lat="48.913665771484" lon="2.6617963314056"><ele></ele><time>2025-5-16T22:25:12Z</time></trkpt>
<trkpt lat="48.913654327393" lon="2.6619138717651"><ele></ele><time>2025-5-16T22:25:15Z</time></trkpt>
<trkpt lat="48.913654327393" lon="2.6619138717651"><ele></ele><time>2025-5-16T22:25:18Z</time></trkpt>
<trkpt lat="48.913654327393" lon="2.6619138717651"><ele></ele><time>2025-5-16T22:25:21Z</time></trkpt>
<trkpt lat="48.913650512695" lon="2.6620647907257"><ele></ele><time>2025-5-16T22:25:24Z</time></trkpt>
<trkpt lat="48.913650512695" lon="2.6620647907257"><ele></ele><time>2025-5-16T22:25:27Z</time></trkpt>
<trkpt lat="48.913650512695" lon="2.6620647907257"><ele></ele><time>2025-5-16T22:25:30Z</time></trkpt>
<trkpt lat="48.913661956787" lon="2.6622343063354"><ele></ele><time>2025-5-16T22:25:33Z</time></trkpt>
<trkpt lat="48.913661956787" lon="2.6622343063354"><ele></ele><time>2025-5-16T22:25:36Z</time></trkpt>
<trkpt lat="48.91370010376" lon="2.6623363494873"><ele></ele><time>2025-5-16T22:25:39Z</time></trkpt>
<trkpt lat="48.91370010376" lon="2.6623363494873"><ele></ele><time>2025-5-16T22:25:42Z</time></trkpt>
<trkpt lat="48.91370010376" lon="2.6623363494873"><ele></ele><time>2025-5-16T22:25:45Z</time></trkpt>
<trkpt lat="48.91370010376" lon="2.6623363494873"><ele></ele><time>2025-5-16T22:25:48Z</time></trkpt>
<trkpt lat="48.913726806641" lon="2.6624367237091"><ele></ele><time>2025-5-16T22:25:51Z</time></trkpt>
<trkpt lat="48.913726806641" lon="2.6624367237091"><ele></ele><time>2025-5-16T22:25:54Z</time></trkpt>
<trkpt lat="48.913726806641" lon="2.6624367237091"><ele></ele><time>2025-5-16T22:25:57Z</time></trkpt>
<trkpt lat="48.913726806641" lon="2.6624367237091"><ele></ele><time>2025-5-16T22:26:0Z</time></trkpt>
<trkpt lat="48.913726806641" lon="2.6624367237091"><ele></ele><time>2025-5-16T22:26:3Z</time></trkpt>
<trkpt lat="48.913726806641" lon="2.6624367237091"><ele></ele><time>2025-5-16T22:26:6Z</time></trkpt>
<trkpt lat="48.913753509521" lon="2.6625280380249"><ele></ele><time>2025-5-16T22:26:9Z</time></trkpt>
<trkpt lat="48.913753509521" lon="2.6625280380249"><ele></ele><time>2025-5-16T22:26:12Z</time></trkpt>
<trkpt lat="48.913753509521" lon="2.6625280380249"><ele></ele><time>2025-5-16T22:26:15Z</time></trkpt>
<trkpt lat="48.913753509521" lon="2.6625280380249"><ele></ele><time>2025-5-16T22:26:18Z</time></trkpt>
<trkpt lat="48.913761138916" lon="2.6626155376434"><ele></ele><time>2025-5-16T22:26:21Z</time></trkpt>
<trkpt lat="48.913761138916" lon="2.6626155376434"><ele></ele><time>2025-5-16T22:26:24Z</time></trkpt>
<trkpt lat="48.913761138916" lon="2.6626155376434"><ele></ele><time>2025-5-16T22:26:27Z</time></trkpt>
<trkpt lat="48.913776397705" lon="2.6627070903778"><ele></ele><time>2025-5-16T22:26:30Z</time></trkpt>
<trkpt lat="48.913776397705" lon="2.6627070903778"><ele></ele><time>2025-5-16T22:26:33Z</time></trkpt>
<trkpt lat="48.913776397705" lon="2.6627070903778"><ele></ele><time>2025-5-16T22:26:36Z</time></trkpt>
<trkpt lat="48.913776397705" lon="2.6627070903778"><ele></ele><time>2025-5-16T22:26:39Z</time></trkpt>
<trkpt lat="48.913776397705" lon="2.6627070903778"><ele></ele><time>2025-5-16T22:26:42Z</time></trkpt>
<trkpt lat="48.913776397705" lon="2.6627070903778"><ele></ele><time>2025-5-16T22:26:45Z</time></trkpt>
<trkpt lat="48.913761138916" lon="2.6628251075745"><ele></ele><time>2025-5-16T22:26:48Z</time></trkpt>
<trkpt lat="48.913761138916" lon="2.6628251075745"><ele></ele><time>2025-5-16T22:26:51Z</time></trkpt>
<trkpt lat="48.913761138916" lon="2.6628251075745"><ele></ele><time>2025-5-16T22:26:54Z</time></trkpt>
<trkpt lat="48.913749694824" lon="2.6629407405853"><ele></ele><time>2025-5-16T22:26:57Z</time></trkpt>
<trkpt lat="48.913749694824" lon="2.6629407405853"><ele></ele><time>2025-5-16T22:27:0Z</time></trkpt>
<trkpt lat="48.91374206543" lon="2.6630394458771"><ele></ele><time>2025-5-16T22:27:3Z</time></trkpt>
<trkpt lat="48.91374206543" lon="2.6630394458771"><ele></ele><time>2025-5-16T22:27:6Z</time></trkpt>
<trkpt lat="48.91374206543" lon="2.6631548404694"><ele></ele><time>2025-5-16T22:27:9Z</time></trkpt>
<trkpt lat="48.91374206543" lon="2.6631548404694"><ele></ele><time>2025-5-16T22:27:12Z</time></trkpt>
<trkpt lat="48.913757324219" lon="2.6632537841797"><ele></ele><time>2025-5-16T22:27:15Z</time></trkpt>
<trkpt lat="48.913757324219" lon="2.6632537841797"><ele></ele><time>2025-5-16T22:27:18Z</time></trkpt>
<trkpt lat="48.913768768311" lon="2.6633594036102"><ele></ele><time>2025-5-16T22:27:21Z</time></trkpt>
<trkpt lat="48.913768768311" lon="2.6633594036102"><ele></ele><time>2025-5-16T22:27:24Z</time></trkpt>
<trkpt lat="48.913787841797" lon="2.6634674072266"><ele></ele><time>2025-5-16T22:27:27Z</time></trkpt>
<trkpt lat="48.913787841797" lon="2.6634674072266"><ele></ele><time>2025-5-16T22:27:30Z</time></trkpt>
<trkpt lat="48.913806915283" lon="2.6635501384735"><ele></ele><time>2025-5-16T22:27:33Z</time></trkpt>
<trkpt lat="48.913806915283" lon="2.6635501384735"><ele></ele><time>2025-5-16T22:27:36Z</time></trkpt>
<trkpt lat="48.91382598877" lon="2.6636507511139"><ele></ele><time>2025-5-16T22:27:39Z</time></trkpt>
<trkpt lat="48.91382598877" lon="2.6636507511139"><ele></ele><time>2025-5-16T22:27:42Z</time></trkpt>
<trkpt lat="48.913841247559" lon="2.6637527942657"><ele></ele><time>2025-5-16T22:27:45Z</time></trkpt>
<trkpt lat="48.913841247559" lon="2.6637527942657"><ele></ele><time>2025-5-16T22:27:48Z</time></trkpt>
<trkpt lat="48.913841247559" lon="2.6637527942657"><ele></ele><time>2025-5-16T22:27:51Z</time></trkpt>
<trkpt lat="48.913841247559" lon="2.6637527942657"><ele></ele><time>2025-5-16T22:27:54Z</time></trkpt>
<trkpt lat="48.913841247559" lon="2.6638476848602"><ele></ele><time>2025-5-16T22:27:57Z</time></trkpt>
<trkpt lat="48.913841247559" lon="2.6638476848602"><ele></ele><time>2025-5-16T22:28:0Z</time></trkpt>
<trkpt lat="48.913841247559" lon="2.6638476848602"><ele></ele><time>2025-5-16T22:28:3Z</time></trkpt>
<trkpt lat="48.913841247559" lon="2.6638476848602"><ele></ele><time>2025-5-16T22:28:6Z</time></trkpt>
<trkpt lat="48.913841247559" lon="2.6638476848602"><ele></ele><time>2025-5-16T22:28:9Z</time></trkpt>
<trkpt lat="48.913837432861" lon="2.6639440059662"><ele></ele><time>2025-5-16T22:28:12Z</time></trkpt>
<trkpt lat="48.913837432861" lon="2.6639440059662"><ele></ele><time>2025-5-16T22:28:15Z</time></trkpt>
<trkpt lat="48.913837432861" lon="2.6639440059662"><ele></ele><time>2025-5-16T22:28:18Z</time></trkpt>
<trkpt lat="48.91385269165" lon="2.6640326976776"><ele></ele><time>2025-5-16T22:28:21Z</time></trkpt>
<trkpt lat="48.91385269165" lon="2.6640326976776"><ele></ele><time>2025-5-16T22:28:24Z</time></trkpt>
<trkpt lat="48.913871765137" lon="2.6641237735748"><ele></ele><time>2025-5-16T22:28:27Z</time></trkpt>
<trkpt lat="48.913871765137" lon="2.6641237735748"><ele></ele><time>2025-5-16T22:28:30Z</time></trkpt>
<trkpt lat="48.913871765137" lon="2.6641237735748"><ele></ele><time>2025-5-16T22:28:33Z</time></trkpt>
<trkpt lat="48.913871765137" lon="2.6641237735748"><ele></ele><time>2025-5-16T22:28:36Z</time></trkpt>
<trkpt lat="48.913871765137" lon="2.6641237735748"><ele></ele><time>2025-5-16T22:28:39Z</time></trkpt>
<trkpt lat="48.913871765137" lon="2.6641237735748"><ele></ele><time>2025-5-16T22:28:42Z</time></trkpt>
<trkpt lat="48.913944244385" lon="2.6642408370972"><ele></ele><time>2025-5-16T22:28:45Z</time></trkpt>
<trkpt lat="48.913944244385" lon="2.6642408370972"><ele></ele><time>2025-5-16T22:28:48Z</time></trkpt>
<trkpt lat="48.913944244385" lon="2.6642408370972"><ele></ele><time>2025-5-16T22:28:51Z</time></trkpt>
<trkpt lat="48.913944244385" lon="2.6642408370972"><ele></ele><time>2025-5-16T22:28:54Z</time></trkpt>
<trkpt lat="48.913948059082" lon="2.6643545627594"><ele></ele><time>2025-5-16T22:28:57Z</time></trkpt>
<trkpt lat="48.913948059082" lon="2.6643545627594"><ele></ele><time>2025-5-16T22:29:0Z</time></trkpt>
<trkpt lat="48.913948059082" lon="2.6643545627594"><ele></ele><time>2025-5-16T22:29:3Z</time></trkpt>
<trkpt lat="48.913948059082" lon="2.6643545627594"><ele></ele><time>2025-5-16T22:29:6Z</time></trkpt>
<trkpt lat="48.913955688477" lon="2.664457321167"><ele></ele><time>2025-5-16T22:29:9Z</time></trkpt>
<trkpt lat="48.913955688477" lon="2.664457321167"><ele></ele><time>2025-5-16T22:29:12Z</time></trkpt>
<trkpt lat="48.913955688477" lon="2.664457321167"><ele></ele><time>2025-5-16T22:29:15Z</time></trkpt>
<trkpt lat="48.913955688477" lon="2.664457321167"><ele></ele><time>2025-5-16T22:29:18Z</time></trkpt>
<trkpt lat="48.913955688477" lon="2.664457321167"><ele></ele><time>2025-5-16T22:29:21Z</time></trkpt>
<trkpt lat="48.913955688477" lon="2.664457321167"><ele></ele><time>2025-5-16T22:29:24Z</time></trkpt>
<trkpt lat="48.913955688477" lon="2.664457321167"><ele></ele><time>2025-5-16T22:29:27Z</time></trkpt>
<trkpt lat="48.914073944092" lon="2.6648428440094"><ele></ele><time>2025-5-16T22:29:30Z</time></trkpt>
<trkpt lat="48.914073944092" lon="2.6648428440094"><ele></ele><time>2025-5-16T22:29:33Z</time></trkpt>
<trkpt lat="48.914096832275" lon="2.6649322509766"><ele></ele><time>2025-5-16T22:29:36Z</time></trkpt>
<trkpt lat="48.914096832275" lon="2.6649322509766"><ele></ele><time>2025-5-16T22:29:39Z</time></trkpt>
<trkpt lat="48.914108276367" lon="2.6650197505951"><ele></ele><time>2025-5-16T22:29:42Z</time></trkpt>
<trkpt lat="48.914108276367" lon="2.6650197505951"><ele></ele><time>2025-5-16T22:29:45Z</time></trkpt>
<trkpt lat="48.914108276367" lon="2.6650197505951"><ele></ele><time>2025-5-16T22:29:48Z</time></trkpt>
<trkpt lat="48.914108276367" lon="2.6650197505951"><ele></ele><time>2025-5-16T22:29:51Z</time></trkpt>
<trkpt lat="48.914112091064" lon="2.6651966571808"><ele></ele><time>2025-5-16T22:29:54Z</time></trkpt>
<trkpt lat="48.914112091064" lon="2.6651966571808"><ele></ele><time>2025-5-16T22:29:57Z</time></trkpt>
<trkpt lat="48.914150238037" lon="2.6652929782867"><ele></ele><time>2025-5-16T22:30:0Z</time></trkpt>
<trkpt lat="48.914150238037" lon="2.6652929782867"><ele></ele><time>2025-5-16T22:30:3Z</time></trkpt>
<trkpt lat="48.91418838501" lon="2.6653785705566"><ele></ele><time>2025-5-16T22:30:6Z</time></trkpt>
<trkpt lat="48.91418838501" lon="2.6653785705566"><ele></ele><time>2025-5-16T22:30:9Z</time></trkpt>
<trkpt lat="48.91418838501" lon="2.6653785705566"><ele></ele><time>2025-5-16T22:30:12Z</time></trkpt>
<trkpt lat="48.91418838501" lon="2.6653785705566"><ele></ele><time>2025-5-16T22:30:15Z</time></trkpt>
<trkpt lat="48.914264678955" lon="2.6653249263763"><ele></ele><time>2025-5-16T22:30:18Z</time></trkpt>
<trkpt lat="48.914264678955" lon="2.6653249263763"><ele></ele><time>2025-5-16T22:30:21Z</time></trkpt>
<trkpt lat="48.914321899414" lon="2.6652684211731"><ele></ele><time>2025-5-16T22:30:24Z</time></trkpt>
<trkpt lat="48.914390563965" lon="2.6651999950409"><ele></ele><time>2025-5-16T22:30:27Z</time></trkpt>
<trkpt lat="48.914390563965" lon="2.6651999950409"><ele></ele><time>2025-5-16T22:30:30Z</time></trkpt>
<trkpt lat="48.914455413818" lon="2.6651351451874"><ele></ele><time>2025-5-16T22:30:33Z</time></trkpt>
<trkpt lat="48.914516448975" lon="2.6650784015656"><ele></ele><time>2025-5-16T22:30:36Z</time></trkpt>
<trkpt lat="48.914516448975" lon="2.6650784015656"><ele></ele><time>2025-5-16T22:30:39Z</time></trkpt>
<trkpt lat="48.914516448975" lon="2.6650784015656"><ele></ele><time>2025-5-16T22:30:42Z</time></trkpt>
<trkpt lat="48.914558410645" lon="2.6651585102081"><ele></ele><time>2025-5-16T22:30:45Z</time></trkpt>
<trkpt lat="48.914600372314" lon="2.6652977466583"><ele></ele><time>2025-5-16T22:30:48Z</time></trkpt>
<trkpt lat="48.914600372314" lon="2.6652977466583"><ele></ele><time>2025-5-16T22:30:51Z</time></trkpt>
<trkpt lat="48.914665222168" lon="2.6654124259949"><ele></ele><time>2025-5-16T22:30:54Z</time></trkpt>
<trkpt lat="48.914733886719" lon="2.6654727458954"><ele></ele><time>2025-5-16T22:30:57Z</time></trkpt>
<trkpt lat="48.914836883545" lon="2.6655166149139"><ele></ele><time>2025-5-16T22:31:0Z</time></trkpt>
<trkpt lat="48.914836883545" lon="2.6655166149139"><ele></ele><time>2025-5-16T22:31:3Z</time></trkpt>
<trkpt lat="48.914836883545" lon="2.6655166149139"><ele></ele><time>2025-5-16T22:31:6Z</time></trkpt>
<trkpt lat="48.91491317749" lon="2.6655511856079"><ele></ele><time>2025-5-16T22:31:9Z</time></trkpt>
<trkpt lat="48.91491317749" lon="2.6655511856079"><ele></ele><time>2025-5-16T22:31:12Z</time></trkpt>
<trkpt lat="48.91491317749" lon="2.6655511856079"><ele></ele><time>2025-5-16T22:31:15Z</time></trkpt>
<trkpt lat="48.915000915527" lon="2.6655967235565"><ele></ele><time>2025-5-16T22:31:18Z</time></trkpt>
<trkpt lat="48.915000915527" lon="2.6655967235565"><ele></ele><time>2025-5-16T22:31:21Z</time></trkpt>
<trkpt lat="48.915130615234" lon="2.6656789779663"><ele></ele><time>2025-5-16T22:31:24Z</time></trkpt>
<trkpt lat="48.915279388428" lon="2.6657867431641"><ele></ele><time>2025-5-16T22:31:27Z</time></trkpt>
<trkpt lat="48.915279388428" lon="2.6657867431641"><ele></ele><time>2025-5-16T22:31:30Z</time></trkpt>
<trkpt lat="48.915374755859" lon="2.66583776474"><ele></ele><time>2025-5-16T22:31:33Z</time></trkpt>
<trkpt lat="48.915374755859" lon="2.66583776474"><ele></ele><time>2025-5-16T22:31:36Z</time></trkpt>
<trkpt lat="48.915374755859" lon="2.66583776474"><ele></ele><time>2025-5-16T22:31:39Z</time></trkpt>
<trkpt lat="48.915374755859" lon="2.66583776474"><ele></ele><time>2025-5-16T22:31:42Z</time></trkpt>
<trkpt lat="48.915374755859" lon="2.66583776474"><ele></ele><time>2025-5-16T22:31:45Z</time></trkpt>
<trkpt lat="48.915374755859" lon="2.66583776474"><ele></ele><time>2025-5-16T22:31:48Z</time></trkpt>
<trkpt lat="48.915374755859" lon="2.66583776474"><ele></ele><time>2025-5-16T22:31:51Z</time></trkpt>
<trkpt lat="48.915374755859" lon="2.66583776474"><ele></ele><time>2025-5-16T22:31:54Z</time></trkpt>
<trkpt lat="48.915374755859" lon="2.66583776474"><ele></ele><time>2025-5-16T22:31:57Z</time></trkpt>
<trkpt lat="48.915374755859" lon="2.66583776474"><ele></ele><time>2025-5-16T22:32:0Z</time></trkpt>
<trkpt lat="48.915374755859" lon="2.66583776474"><ele></ele><time>2025-5-16T22:32:3Z</time></trkpt>
<trkpt lat="48.915374755859" lon="2.66583776474"><ele></ele><time>2025-5-16T22:32:6Z</time></trkpt>
<trkpt lat="48.91552734375" lon="2.6662468910217"><ele></ele><time>2025-5-16T22:32:9Z</time></trkpt>
<trkpt lat="48.915596008301" lon="2.6663191318512"><ele></ele><time>2025-5-16T22:32:12Z</time></trkpt>
<trkpt lat="48.915641784668" lon="2.6663770675659"><ele></ele><time>2025-5-16T22:32:15Z</time></trkpt>
<trkpt lat="48.915641784668" lon="2.6663770675659"><ele></ele><time>2025-5-16T22:32:18Z</time></trkpt>
<trkpt lat="48.915641784668" lon="2.6663770675659"><ele></ele><time>2025-5-16T22:32:21Z</time></trkpt>
<trkpt lat="48.915672302246" lon="2.66646027565"><ele></ele><time>2025-5-16T22:32:24Z</time></trkpt>
<trkpt lat="48.915672302246" lon="2.66646027565"><ele></ele><time>2025-5-16T22:32:27Z</time></trkpt>
<trkpt lat="48.915672302246" lon="2.66646027565"><ele></ele><time>2025-5-16T22:32:30Z</time></trkpt>
<trkpt lat="48.91561126709" lon="2.6665871143341"><ele></ele><time>2025-5-16T22:32:33Z</time></trkpt>
<trkpt lat="48.915576934814" lon="2.6666584014893"><ele></ele><time>2025-5-16T22:32:36Z</time></trkpt>
<trkpt lat="48.915576934814" lon="2.6666584014893"><ele></ele><time>2025-5-16T22:32:39Z</time></trkpt>
<trkpt lat="48.915542602539" lon="2.6667549610138"><ele></ele><time>2025-5-16T22:32:42Z</time></trkpt>
<trkpt lat="48.915515899658" lon="2.6668334007263"><ele></ele><time>2025-5-16T22:32:45Z</time></trkpt>
<trkpt lat="48.915466308594" lon="2.6669192314148"><ele></ele><time>2025-5-16T22:32:48Z</time></trkpt>
<trkpt lat="48.91540145874" lon="2.6670000553131"><ele></ele><time>2025-5-16T22:32:51Z</time></trkpt>
<trkpt lat="48.915332794189" lon="2.6670706272125"><ele></ele><time>2025-5-16T22:32:54Z</time></trkpt>
<trkpt lat="48.915332794189" lon="2.6670706272125"><ele></ele><time>2025-5-16T22:32:57Z</time></trkpt>
<trkpt lat="48.915283203125" lon="2.6671113967896"><ele></ele><time>2025-5-16T22:33:0Z</time></trkpt>
<trkpt lat="48.915210723877" lon="2.6671810150146"><ele></ele><time>2025-5-16T22:33:3Z</time></trkpt>
<trkpt lat="48.915210723877" lon="2.6671810150146"><ele></ele><time>2025-5-16T22:33:6Z</time></trkpt>
<trkpt lat="48.915172576904" lon="2.6672596931458"><ele></ele><time>2025-5-16T22:33:9Z</time></trkpt>
<trkpt lat="48.915172576904" lon="2.6672596931458"><ele></ele><time>2025-5-16T22:33:12Z</time></trkpt>
<trkpt lat="48.915145874023" lon="2.6674075126648"><ele></ele><time>2025-5-16T22:33:15Z</time></trkpt>
<trkpt lat="48.915145874023" lon="2.6674075126648"><ele></ele><time>2025-5-16T22:33:18Z</time></trkpt>
<trkpt lat="48.915145874023" lon="2.6674075126648"><ele></ele><time>2025-5-16T22:33:21Z</time></trkpt>
<trkpt lat="48.915138244629" lon="2.6675651073456"><ele></ele><time>2025-5-16T22:33:24Z</time></trkpt>
<trkpt lat="48.915157318115" lon="2.6676528453827"><ele></ele><time>2025-5-16T22:33:27Z</time></trkpt>
<trkpt lat="48.915157318115" lon="2.6676528453827"><ele></ele><time>2025-5-16T22:33:30Z</time></trkpt>
<trkpt lat="48.915157318115" lon="2.6676528453827"><ele></ele><time>2025-5-16T22:33:33Z</time></trkpt>
<trkpt lat="48.915168762207" lon="2.6678614616394"><ele></ele><time>2025-5-16T22:33:36Z</time></trkpt>
<trkpt lat="48.915168762207" lon="2.6678614616394"><ele></ele><time>2025-5-16T22:33:39Z</time></trkpt>
<trkpt lat="48.915142059326" lon="2.6680746078491"><ele></ele><time>2025-5-16T22:33:42Z</time></trkpt>
<trkpt lat="48.915142059326" lon="2.6680746078491"><ele></ele><time>2025-5-16T22:33:45Z</time></trkpt>
<trkpt lat="48.915119171143" lon="2.668244600296"><ele></ele><time>2025-5-16T22:33:48Z</time></trkpt>
<trkpt lat="48.915069580078" lon="2.6683127880096"><ele></ele><time>2025-5-16T22:33:51Z</time></trkpt>
<trkpt lat="48.9150390625" lon="2.6684060096741"><ele></ele><time>2025-5-16T22:33:54Z</time></trkpt>
<trkpt lat="48.9150390625" lon="2.6684060096741"><ele></ele><time>2025-5-16T22:33:57Z</time></trkpt>
<trkpt lat="48.915000915527" lon="2.6685466766357"><ele></ele><time>2025-5-16T22:34:0Z</time></trkpt>
<trkpt lat="48.915000915527" lon="2.6685466766357"><ele></ele><time>2025-5-16T22:34:3Z</time></trkpt>
<trkpt lat="48.915000915527" lon="2.6685466766357"><ele></ele><time>2025-5-16T22:34:6Z</time></trkpt>
<trkpt lat="48.914882659912" lon="2.6685938835144"><ele></ele><time>2025-5-16T22:34:9Z</time></trkpt>
<trkpt lat="48.914882659912" lon="2.6685938835144"><ele></ele><time>2025-5-16T22:34:12Z</time></trkpt>
<trkpt lat="48.914741516113" lon="2.6686952114105"><ele></ele><time>2025-5-16T22:34:15Z</time></trkpt>
<trkpt lat="48.914741516113" lon="2.6686952114105"><ele></ele><time>2025-5-16T22:34:18Z</time></trkpt>
<trkpt lat="48.914684295654" lon="2.6688878536224"><ele></ele><time>2025-5-16T22:34:21Z</time></trkpt>
<trkpt lat="48.914657592773" lon="2.669017791748"><ele></ele><time>2025-5-16T22:34:24Z</time></trkpt>
<trkpt lat="48.914657592773" lon="2.669017791748"><ele></ele><time>2025-5-16T22:34:27Z</time></trkpt>
<trkpt lat="48.914657592773" lon="2.669017791748"><ele></ele><time>2025-5-16T22:34:30Z</time></trkpt>
<trkpt lat="48.91459274292" lon="2.6692152023315"><ele></ele><time>2025-5-16T22:34:33Z</time></trkpt>
<trkpt lat="48.914531707764" lon="2.669273853302"><ele></ele><time>2025-5-16T22:34:36Z</time></trkpt>
<trkpt lat="48.914531707764" lon="2.669273853302"><ele></ele><time>2025-5-16T22:34:39Z</time></trkpt>
<trkpt lat="48.914459228516" lon="2.669358253479"><ele></ele><time>2025-5-16T22:34:42Z</time></trkpt>
<trkpt lat="48.914405822754" lon="2.6694498062134"><ele></ele><time>2025-5-16T22:34:45Z</time></trkpt>
<trkpt lat="48.9143409729" lon="2.6695585250854"><ele></ele><time>2025-5-16T22:34:48Z</time></trkpt>
<trkpt lat="48.9143409729" lon="2.6695585250854"><ele></ele><time>2025-5-16T22:34:51Z</time></trkpt>
<trkpt lat="48.914264678955" lon="2.6696527004242"><ele></ele><time>2025-5-16T22:34:54Z</time></trkpt>
<trkpt lat="48.914184570312" lon="2.6697821617126"><ele></ele><time>2025-5-16T22:34:57Z</time></trkpt>
<trkpt lat="48.914184570312" lon="2.6697821617126"><ele></ele><time>2025-5-16T22:35:0Z</time></trkpt>
<trkpt lat="48.914184570312" lon="2.6697821617126"><ele></ele><time>2025-5-16T22:35:3Z</time></trkpt>
<trkpt lat="48.914127349854" lon="2.6699223518372"><ele></ele><time>2025-5-16T22:35:6Z</time></trkpt>
<trkpt lat="48.914127349854" lon="2.6699223518372"><ele></ele><time>2025-5-16T22:35:9Z</time></trkpt>
<trkpt lat="48.914127349854" lon="2.6699223518372"><ele></ele><time>2025-5-16T22:35:12Z</time></trkpt>
<trkpt lat="48.914028167725" lon="2.6700813770294"><ele></ele><time>2025-5-16T22:35:15Z</time></trkpt>
<trkpt lat="48.914028167725" lon="2.6700813770294"><ele></ele><time>2025-5-16T22:35:18Z</time></trkpt>
<trkpt lat="48.913860321045" lon="2.6702485084534"><ele></ele><time>2025-5-16T22:35:21Z</time></trkpt>
<trkpt lat="48.913738250732" lon="2.6703948974609"><ele></ele><time>2025-5-16T22:35:24Z</time></trkpt>
<trkpt lat="48.913738250732" lon="2.6703948974609"><ele></ele><time>2025-5-16T22:35:27Z</time></trkpt>
<trkpt lat="48.913612365723" lon="2.6704287528992"><ele></ele><time>2025-5-16T22:35:30Z</time></trkpt>
<trkpt lat="48.913612365723" lon="2.6704287528992"><ele></ele><time>2025-5-16T22:35:33Z</time></trkpt>
<trkpt lat="48.913612365723" lon="2.6704287528992"><ele></ele><time>2025-5-16T22:35:36Z</time></trkpt>
<trkpt lat="48.913509368896" lon="2.6703820228577"><ele></ele><time>2025-5-16T22:35:39Z</time></trkpt>
<trkpt lat="48.913509368896" lon="2.6703820228577"><ele></ele><time>2025-5-16T22:35:42Z</time></trkpt>
<trkpt lat="48.913509368896" lon="2.6703820228577"><ele></ele><time>2025-5-16T22:35:45Z</time></trkpt>
<trkpt lat="48.913509368896" lon="2.6703820228577"><ele></ele><time>2025-5-16T22:35:48Z</time></trkpt>
<trkpt lat="48.913509368896" lon="2.6703820228577"><ele></ele><time>2025-5-16T22:35:51Z</time></trkpt>
<trkpt lat="48.913509368896" lon="2.6703820228577"><ele></ele><time>2025-5-16T22:35:54Z</time></trkpt>
<trkpt lat="48.913509368896" lon="2.6703820228577"><ele></ele><time>2025-5-16T22:35:57Z</time></trkpt>
<trkpt lat="48.91329574585" lon="2.6703200340271"><ele></ele><time>2025-5-16T22:36:0Z</time></trkpt>
<trkpt lat="48.913196563721" lon="2.6702570915222"><ele></ele><time>2025-5-16T22:36:3Z</time></trkpt>
<trkpt lat="48.913196563721" lon="2.6702570915222"><ele></ele><time>2025-5-16T22:36:6Z</time></trkpt>
<trkpt lat="48.913146972656" lon="2.6702060699463"><ele></ele><time>2025-5-16T22:36:9Z</time></trkpt>
<trkpt lat="48.913082122803" lon="2.6701457500458"><ele></ele><time>2025-5-16T22:36:12Z</time></trkpt>
<trkpt lat="48.913032531738" lon="2.6701014041901"><ele></ele><time>2025-5-16T22:36:15Z</time></trkpt>
<trkpt lat="48.913032531738" lon="2.6701014041901"><ele></ele><time>2025-5-16T22:36:18Z</time></trkpt>
<trkpt lat="48.912940979004" lon="2.6700041294098"><ele></ele><time>2025-5-16T22:36:21Z</time></trkpt>
<trkpt lat="48.912895202637" lon="2.6699440479279"><ele></ele><time>2025-5-16T22:36:24Z</time></trkpt>
<trkpt lat="48.912895202637" lon="2.6699440479279"><ele></ele><time>2025-5-16T22:36:27Z</time></trkpt>
<trkpt lat="48.9128074646" lon="2.6698565483093"><ele></ele><time>2025-5-16T22:36:30Z</time></trkpt>
<trkpt lat="48.912761688232" lon="2.6697936058044"><ele></ele><time>2025-5-16T22:36:33Z</time></trkpt>
<trkpt lat="48.912704467773" lon="2.6697704792023"><ele></ele><time>2025-5-16T22:36:36Z</time></trkpt>
<trkpt lat="48.912704467773" lon="2.6697704792023"><ele></ele><time>2025-5-16T22:36:39Z</time></trkpt>
<trkpt lat="48.912654876709" lon="2.6699035167694"><ele></ele><time>2025-5-16T22:36:42Z</time></trkpt>
<trkpt lat="48.912651062012" lon="2.6700258255005"><ele></ele><time>2025-5-16T22:36:45Z</time></trkpt>
<trkpt lat="48.912654876709" lon="2.6701505184174"><ele></ele><time>2025-5-16T22:36:48Z</time></trkpt>
<trkpt lat="48.912666320801" lon="2.6702632904053"><ele></ele><time>2025-5-16T22:36:51Z</time></trkpt>
<trkpt lat="48.912666320801" lon="2.6703960895538"><ele></ele><time>2025-5-16T22:36:54Z</time></trkpt>
<trkpt lat="48.912666320801" lon="2.6703960895538"><ele></ele><time>2025-5-16T22:36:57Z</time></trkpt>
<trkpt lat="48.912666320801" lon="2.6705088615417"><ele></ele><time>2025-5-16T22:37:0Z</time></trkpt>
<trkpt lat="48.912666320801" lon="2.6706132888794"><ele></ele><time>2025-5-16T22:37:3Z</time></trkpt>
<trkpt lat="48.912662506104" lon="2.6707170009613"><ele></ele><time>2025-5-16T22:37:6Z</time></trkpt>
<trkpt lat="48.912666320801" lon="2.67080950737"><ele></ele><time>2025-5-16T22:37:9Z</time></trkpt>
<trkpt lat="48.912677764893" lon="2.6708972454071"><ele></ele><time>2025-5-16T22:37:12Z</time></trkpt>
<trkpt lat="48.912677764893" lon="2.6708972454071"><ele></ele><time>2025-5-16T22:37:15Z</time></trkpt>
<trkpt lat="48.912689208984" lon="2.6709933280945"><ele></ele><time>2025-5-16T22:37:18Z</time></trkpt>
<trkpt lat="48.912696838379" lon="2.6710948944092"><ele></ele><time>2025-5-16T22:37:21Z</time></trkpt>
<trkpt lat="48.912696838379" lon="2.6711993217468"><ele></ele><time>2025-5-16T22:37:24Z</time></trkpt>
<trkpt lat="48.912696838379" lon="2.6711993217468"><ele></ele><time>2025-5-16T22:37:27Z</time></trkpt>
<trkpt lat="48.912696838379" lon="2.6711993217468"><ele></ele><time>2025-5-16T22:37:30Z</time></trkpt>
<trkpt lat="48.912696838379" lon="2.6711993217468"><ele></ele><time>2025-5-16T22:37:33Z</time></trkpt>
<trkpt lat="48.912696838379" lon="2.6711993217468"><ele></ele><time>2025-5-16T22:37:36Z</time></trkpt>
<trkpt lat="48.912696838379" lon="2.6711993217468"><ele></ele><time>2025-5-16T22:37:39Z</time></trkpt>
<trkpt lat="48.912719726562" lon="2.6710677146912"><ele></ele><time>2025-5-16T22:37:42Z</time></trkpt>
<trkpt lat="48.91272354126" lon="2.670961856842"><ele></ele><time>2025-5-16T22:37:45Z</time></trkpt>
<trkpt lat="48.912719726562" lon="2.6708369255066"><ele></ele><time>2025-5-16T22:37:48Z</time></trkpt>
<trkpt lat="48.912715911865" lon="2.6706974506378"><ele></ele><time>2025-5-16T22:37:51Z</time></trkpt>
<trkpt lat="48.912712097168" lon="2.6705636978149"><ele></ele><time>2025-5-16T22:37:54Z</time></trkpt>
<trkpt lat="48.912715911865" lon="2.6704502105713"><ele></ele><time>2025-5-16T22:37:57Z</time></trkpt>
<trkpt lat="48.912712097168" lon="2.6702899932861"><ele></ele><time>2025-5-16T22:38:0Z</time></trkpt>
<trkpt lat="48.912712097168" lon="2.6701941490173"><ele></ele><time>2025-5-16T22:38:3Z</time></trkpt>
<trkpt lat="48.912715911865" lon="2.6701021194458"><ele></ele><time>2025-5-16T22:38:6Z</time></trkpt>
<trkpt lat="48.912715911865" lon="2.6700003147125"><ele></ele><time>2025-5-16T22:38:9Z</time></trkpt>
<trkpt lat="48.912708282471" lon="2.6699025630951"><ele></ele><time>2025-5-16T22:38:12Z</time></trkpt>
<trkpt lat="48.912708282471" lon="2.6699025630951"><ele></ele><time>2025-5-16T22:38:15Z</time></trkpt>
<trkpt lat="48.912708282471" lon="2.6697437763214"><ele></ele><time>2025-5-16T22:38:18Z</time></trkpt>
<trkpt lat="48.912708282471" lon="2.6697437763214"><ele></ele><time>2025-5-16T22:38:21Z</time></trkpt>
<trkpt lat="48.912769317627" lon="2.6696975231171"><ele></ele><time>2025-5-16T22:38:24Z</time></trkpt>
<trkpt lat="48.912769317627" lon="2.6696975231171"><ele></ele><time>2025-5-16T22:38:27Z</time></trkpt>
<trkpt lat="48.912822723389" lon="2.6697838306427"><ele></ele><time>2025-5-16T22:38:30Z</time></trkpt>
<trkpt lat="48.912822723389" lon="2.6697838306427"><ele></ele><time>2025-5-16T22:38:33Z</time></trkpt>
<trkpt lat="48.912822723389" lon="2.6697838306427"><ele></ele><time>2025-5-16T22:38:36Z</time></trkpt>
<trkpt lat="48.912895202637" lon="2.6698696613312"><ele></ele><time>2025-5-16T22:38:39Z</time></trkpt>
<trkpt lat="48.912895202637" lon="2.6698696613312"><ele></ele><time>2025-5-16T22:38:42Z</time></trkpt>
<trkpt lat="48.912967681885" lon="2.6699903011322"><ele></ele><time>2025-5-16T22:38:45Z</time></trkpt>
<trkpt lat="48.912967681885" lon="2.6699903011322"><ele></ele><time>2025-5-16T22:38:48Z</time></trkpt>
<trkpt lat="48.913051605225" lon="2.6700830459595"><ele></ele><time>2025-5-16T22:38:51Z</time></trkpt>
<trkpt lat="48.913051605225" lon="2.6700830459595"><ele></ele><time>2025-5-16T22:38:54Z</time></trkpt>
<trkpt lat="48.913124084473" lon="2.670154094696"><ele></ele><time>2025-5-16T22:38:57Z</time></trkpt>
<trkpt lat="48.913124084473" lon="2.670154094696"><ele></ele><time>2025-5-16T22:39:0Z</time></trkpt>
<trkpt lat="48.913192749023" lon="2.6702582836151"><ele></ele><time>2025-5-16T22:39:3Z</time></trkpt>
<trkpt lat="48.913192749023" lon="2.6702582836151"><ele></ele><time>2025-5-16T22:39:6Z</time></trkpt>
<trkpt lat="48.913272857666" lon="2.6703453063965"><ele></ele><time>2025-5-16T22:39:9Z</time></trkpt>
<trkpt lat="48.913272857666" lon="2.6703453063965"><ele></ele><time>2025-5-16T22:39:12Z</time></trkpt>
<trkpt lat="48.913360595703" lon="2.6704223155975"><ele></ele><time>2025-5-16T22:39:15Z</time></trkpt>
<trkpt lat="48.913360595703" lon="2.6704223155975"><ele></ele><time>2025-5-16T22:39:18Z</time></trkpt>
<trkpt lat="48.913475036621" lon="2.6704964637756"><ele></ele><time>2025-5-16T22:39:21Z</time></trkpt>
<trkpt lat="48.913475036621" lon="2.6704964637756"><ele></ele><time>2025-5-16T22:39:24Z</time></trkpt>
<trkpt lat="48.913539886475" lon="2.6705467700958"><ele></ele><time>2025-5-16T22:39:27Z</time></trkpt>
<trkpt lat="48.913539886475" lon="2.6705467700958"><ele></ele><time>2025-5-16T22:39:30Z</time></trkpt>
<trkpt lat="48.913539886475" lon="2.6705467700958"><ele></ele><time>2025-5-16T22:39:33Z</time></trkpt>
<trkpt lat="48.91361618042" lon="2.6706435680389"><ele></ele><time>2025-5-16T22:39:36Z</time></trkpt>
<trkpt lat="48.91361618042" lon="2.6706435680389"><ele></ele><time>2025-5-16T22:39:39Z</time></trkpt>
<trkpt lat="48.91361618042" lon="2.6706435680389"><ele></ele><time>2025-5-16T22:39:42Z</time></trkpt>
<trkpt lat="48.91361618042" lon="2.6706435680389"><ele></ele><time>2025-5-16T22:39:45Z</time></trkpt>
<trkpt lat="48.913715362549" lon="2.6706883907318"><ele></ele><time>2025-5-16T22:39:48Z</time></trkpt>
<trkpt lat="48.913715362549" lon="2.6706883907318"><ele></ele><time>2025-5-16T22:39:51Z</time></trkpt>
<trkpt lat="48.913791656494" lon="2.6707820892334"><ele></ele><time>2025-5-16T22:39:54Z</time></trkpt>
<trkpt lat="48.913791656494" lon="2.6707820892334"><ele></ele><time>2025-5-16T22:39:57Z</time></trkpt>
<trkpt lat="48.913791656494" lon="2.6707820892334"><ele></ele><time>2025-5-16T22:40:0Z</time></trkpt>
<trkpt lat="48.913791656494" lon="2.6707820892334"><ele></ele><time>2025-5-16T22:40:3Z</time></trkpt>
<trkpt lat="48.913791656494" lon="2.6707820892334"><ele></ele><time>2025-5-16T22:40:6Z</time></trkpt>
<trkpt lat="48.913791656494" lon="2.6707820892334"><ele></ele><time>2025-5-16T22:40:9Z</time></trkpt>
<trkpt lat="48.913829803467" lon="2.6708061695099"><ele></ele><time>2025-5-16T22:40:12Z</time></trkpt>
<trkpt lat="48.913864135742" lon="2.6708211898804"><ele></ele><time>2025-5-16T22:40:15Z</time></trkpt>
<trkpt lat="48.913864135742" lon="2.6708211898804"><ele></ele><time>2025-5-16T22:40:18Z</time></trkpt>
<trkpt lat="48.913864135742" lon="2.6708211898804"><ele></ele><time>2025-5-16T22:40:21Z</time></trkpt>
<trkpt lat="48.913829803467" lon="2.6707875728607"><ele></ele><time>2025-5-16T22:40:24Z</time></trkpt>
<trkpt lat="48.9137840271" lon="2.6707558631897"><ele></ele><time>2025-5-16T22:40:27Z</time></trkpt>
<trkpt lat="48.913738250732" lon="2.6707224845886"><ele></ele><time>2025-5-16T22:40:30Z</time></trkpt>
<trkpt lat="48.913688659668" lon="2.6706900596619"><ele></ele><time>2025-5-16T22:40:33Z</time></trkpt>
<trkpt lat="48.913642883301" lon="2.6706547737122"><ele></ele><time>2025-5-16T22:40:36Z</time></trkpt>
<trkpt lat="48.913543701172" lon="2.6705715656281"><ele></ele><time>2025-5-16T22:40:39Z</time></trkpt>
<trkpt lat="48.913478851318" lon="2.6705143451691"><ele></ele><time>2025-5-16T22:40:42Z</time></trkpt>
<trkpt lat="48.913372039795" lon="2.6704244613647"><ele></ele><time>2025-5-16T22:40:45Z</time></trkpt>
<trkpt lat="48.913303375244" lon="2.6703717708588"><ele></ele><time>2025-5-16T22:40:48Z</time></trkpt>
<trkpt lat="48.913181304932" lon="2.670271396637"><ele></ele><time>2025-5-16T22:40:51Z</time></trkpt>
<trkpt lat="48.913105010986" lon="2.670209646225"><ele></ele><time>2025-5-16T22:40:54Z</time></trkpt>
<trkpt lat="48.912994384766" lon="2.6701214313507"><ele></ele><time>2025-5-16T22:40:57Z</time></trkpt>
<trkpt lat="48.912940979004" lon="2.6700596809387"><ele></ele><time>2025-5-16T22:41:0Z</time></trkpt>
<trkpt lat="48.912887573242" lon="2.669985294342"><ele></ele><time>2025-5-16T22:41:3Z</time></trkpt>
<trkpt lat="48.912841796875" lon="2.6699137687683"><ele></ele><time>2025-5-16T22:41:6Z</time></trkpt>
<trkpt lat="48.912841796875" lon="2.6699137687683"><ele></ele><time>2025-5-16T22:41:9Z</time></trkpt>
<trkpt lat="48.912792205811" lon="2.6698348522186"><ele></ele><time>2025-5-16T22:41:12Z</time></trkpt>
<trkpt lat="48.912727355957" lon="2.6697638034821"><ele></ele><time>2025-5-16T22:41:15Z</time></trkpt>
<trkpt lat="48.912727355957" lon="2.6697638034821"><ele></ele><time>2025-5-16T22:41:18Z</time></trkpt>
<trkpt lat="48.912727355957" lon="2.6697638034821"><ele></ele><time>2025-5-16T22:41:21Z</time></trkpt>
<trkpt lat="48.912727355957" lon="2.6697638034821"><ele></ele><time>2025-5-16T22:41:24Z</time></trkpt>
<trkpt lat="48.912658691406" lon="2.6698637008667"><ele></ele><time>2025-5-16T22:41:27Z</time></trkpt>
<trkpt lat="48.912662506104" lon="2.6699604988098"><ele></ele><time>2025-5-16T22:41:30Z</time></trkpt>
<trkpt lat="48.912662506104" lon="2.6699604988098"><ele></ele><time>2025-5-16T22:41:33Z</time></trkpt>
<trkpt lat="48.912666320801" lon="2.6700801849365"><ele></ele><time>2025-5-16T22:41:36Z</time></trkpt>
<trkpt lat="48.912673950195" lon="2.6702251434326"><ele></ele><time>2025-5-16T22:41:39Z</time></trkpt>
<trkpt lat="48.912685394287" lon="2.6703627109528"><ele></ele><time>2025-5-16T22:41:42Z</time></trkpt>
<trkpt lat="48.912685394287" lon="2.6703627109528"><ele></ele><time>2025-5-16T22:41:45Z</time></trkpt>
<trkpt lat="48.912685394287" lon="2.6704971790314"><ele></ele><time>2025-5-16T22:41:48Z</time></trkpt>
<trkpt lat="48.912689208984" lon="2.6706507205963"><ele></ele><time>2025-5-16T22:41:51Z</time></trkpt>
<trkpt lat="48.912689208984" lon="2.6708142757416"><ele></ele><time>2025-5-16T22:41:54Z</time></trkpt>
<trkpt lat="48.912689208984" lon="2.6708142757416"><ele></ele><time>2025-5-16T22:41:57Z</time></trkpt>
<trkpt lat="48.91268157959" lon="2.6709835529327"><ele></ele><time>2025-5-16T22:42:0Z</time></trkpt>
<trkpt lat="48.91268157959" lon="2.6711599826813"><ele></ele><time>2025-5-16T22:42:3Z</time></trkpt>
<trkpt lat="48.912689208984" lon="2.6713495254517"><ele></ele><time>2025-5-16T22:42:6Z</time></trkpt>
<trkpt lat="48.912689208984" lon="2.6713495254517"><ele></ele><time>2025-5-16T22:42:9Z</time></trkpt>
<trkpt lat="48.912696838379" lon="2.6715302467346"><ele></ele><time>2025-5-16T22:42:12Z</time></trkpt>
<trkpt lat="48.912708282471" lon="2.6717135906219"><ele></ele><time>2025-5-16T22:42:15Z</time></trkpt>
<trkpt lat="48.912719726562" lon="2.671895980835"><ele></ele><time>2025-5-16T22:42:18Z</time></trkpt>
<trkpt lat="48.912727355957" lon="2.6720433235168"><ele></ele><time>2025-5-16T22:42:21Z</time></trkpt>
<trkpt lat="48.91272354126" lon="2.6721298694611"><ele></ele><time>2025-5-16T22:42:24Z</time></trkpt>
<trkpt lat="48.91272354126" lon="2.6721298694611"><ele></ele><time>2025-5-16T22:42:27Z</time></trkpt>
<trkpt lat="48.91272354126" lon="2.6721298694611"><ele></ele><time>2025-5-16T22:42:30Z</time></trkpt>
<trkpt lat="48.912635803223" lon="2.6721444129944"><ele></ele><time>2025-5-16T22:42:33Z</time></trkpt>
<trkpt lat="48.912635803223" lon="2.6721444129944"><ele></ele><time>2025-5-16T22:42:36Z</time></trkpt>
<trkpt lat="48.912635803223" lon="2.6721444129944"><ele></ele><time>2025-5-16T22:42:39Z</time></trkpt>
<trkpt lat="48.912559509277" lon="2.6721575260162"><ele></ele><time>2025-5-16T22:42:42Z</time></trkpt>
<trkpt lat="48.912559509277" lon="2.6721575260162"><ele></ele><time>2025-5-16T22:42:45Z</time></trkpt>
<trkpt lat="48.912456512451" lon="2.6721894741058"><ele></ele><time>2025-5-16T22:42:48Z</time></trkpt>
<trkpt lat="48.912456512451" lon="2.6721894741058"><ele></ele><time>2025-5-16T22:42:51Z</time></trkpt>
<trkpt lat="48.912399291992" lon="2.6722233295441"><ele></ele><time>2025-5-16T22:42:54Z</time></trkpt>
<trkpt lat="48.912330627441" lon="2.672262430191"><ele></ele><time>2025-5-16T22:42:57Z</time></trkpt>
<trkpt lat="48.912239074707" lon="2.6722993850708"><ele></ele><time>2025-5-16T22:43:0Z</time></trkpt>
<trkpt lat="48.912239074707" lon="2.6722993850708"><ele></ele><time>2025-5-16T22:43:3Z</time></trkpt>
<trkpt lat="48.912136077881" lon="2.672354221344"><ele></ele><time>2025-5-16T22:43:6Z</time></trkpt>
<trkpt lat="48.91202545166" lon="2.6724195480347"><ele></ele><time>2025-5-16T22:43:9Z</time></trkpt>
<trkpt lat="48.911922454834" lon="2.672479391098"><ele></ele><time>2025-5-16T22:43:12Z</time></trkpt>
<trkpt lat="48.911922454834" lon="2.672479391098"><ele></ele><time>2025-5-16T22:43:15Z</time></trkpt>
<trkpt lat="48.911827087402" lon="2.6725327968597"><ele></ele><time>2025-5-16T22:43:18Z</time></trkpt>
<trkpt lat="48.911720275879" lon="2.6725914478302"><ele></ele><time>2025-5-16T22:43:21Z</time></trkpt>
<trkpt lat="48.911613464355" lon="2.6726522445679"><ele></ele><time>2025-5-16T22:43:24Z</time></trkpt>
<trkpt lat="48.911613464355" lon="2.6726522445679"><ele></ele><time>2025-5-16T22:43:27Z</time></trkpt>
<trkpt lat="48.911514282227" lon="2.6726984977722"><ele></ele><time>2025-5-16T22:43:30Z</time></trkpt>
<trkpt lat="48.911426544189" lon="2.6727418899536"><ele></ele><time>2025-5-16T22:43:33Z</time></trkpt>
<trkpt lat="48.911357879639" lon="2.6727743148804"><ele></ele><time>2025-5-16T22:43:36Z</time></trkpt>
<trkpt lat="48.911357879639" lon="2.6727743148804"><ele></ele><time>2025-5-16T22:43:39Z</time></trkpt>
<trkpt lat="48.911357879639" lon="2.6727743148804"><ele></ele><time>2025-5-16T22:43:42Z</time></trkpt>
<trkpt lat="48.911270141602" lon="2.6727905273438"><ele></ele><time>2025-5-16T22:43:45Z</time></trkpt>
<trkpt lat="48.911270141602" lon="2.6727905273438"><ele></ele><time>2025-5-16T22:43:48Z</time></trkpt>
<trkpt lat="48.911270141602" lon="2.6727905273438"><ele></ele><time>2025-5-16T22:43:51Z</time></trkpt>
<trkpt lat="48.911186218262" lon="2.6727330684662"><ele></ele><time>2025-5-16T22:43:54Z</time></trkpt>
<trkpt lat="48.911109924316" lon="2.6726937294006"><ele></ele><time>2025-5-16T22:43:57Z</time></trkpt>
<trkpt lat="48.910999298096" lon="2.6726641654968"><ele></ele><time>2025-5-16T22:44:0Z</time></trkpt>
<trkpt lat="48.910999298096" lon="2.6726641654968"><ele></ele><time>2025-5-16T22:44:3Z</time></trkpt>
<trkpt lat="48.910839080811" lon="2.6726629734039"><ele></ele><time>2025-5-16T22:44:6Z</time></trkpt>
<trkpt lat="48.910675048828" lon="2.6726751327515"><ele></ele><time>2025-5-16T22:44:9Z</time></trkpt>
<trkpt lat="48.910484313965" lon="2.6726891994476"><ele></ele><time>2025-5-16T22:44:12Z</time></trkpt>
<trkpt lat="48.910484313965" lon="2.6726891994476"><ele></ele><time>2025-5-16T22:44:15Z</time></trkpt>
<trkpt lat="48.910297393799" lon="2.6726901531219"><ele></ele><time>2025-5-16T22:44:18Z</time></trkpt>
<trkpt lat="48.910121917725" lon="2.672705411911"><ele></ele><time>2025-5-16T22:44:21Z</time></trkpt>
<trkpt lat="48.909954071045" lon="2.672705411911"><ele></ele><time>2025-5-16T22:44:24Z</time></trkpt>
<trkpt lat="48.909954071045" lon="2.672705411911"><ele></ele><time>2025-5-16T22:44:27Z</time></trkpt>
<trkpt lat="48.909954071045" lon="2.672705411911"><ele></ele><time>2025-5-16T22:44:30Z</time></trkpt>
<trkpt lat="48.909954071045" lon="2.672705411911"><ele></ele><time>2025-5-16T22:44:33Z</time></trkpt>
<trkpt lat="48.909809112549" lon="2.6724317073822"><ele></ele><time>2025-5-16T22:44:36Z</time></trkpt>
<trkpt lat="48.909801483154" lon="2.6722288131714"><ele></ele><time>2025-5-16T22:44:39Z</time></trkpt>
<trkpt lat="48.909797668457" lon="2.6721150875092"><ele></ele><time>2025-5-16T22:44:42Z</time></trkpt>
<trkpt lat="48.909786224365" lon="2.671998500824"><ele></ele><time>2025-5-16T22:44:45Z</time></trkpt>
<trkpt lat="48.909778594971" lon="2.6718730926514"><ele></ele><time>2025-5-16T22:44:48Z</time></trkpt>
<trkpt lat="48.909748077393" lon="2.6717555522919"><ele></ele><time>2025-5-16T22:44:51Z</time></trkpt>
<trkpt lat="48.909713745117" lon="2.67165350914"><ele></ele><time>2025-5-16T22:44:54Z</time></trkpt>
<trkpt lat="48.909664154053" lon="2.6715819835663"><ele></ele><time>2025-5-16T22:44:57Z</time></trkpt>
<trkpt lat="48.909664154053" lon="2.6715819835663"><ele></ele><time>2025-5-16T22:45:0Z</time></trkpt>
<trkpt lat="48.909603118896" lon="2.6715490818024"><ele></ele><time>2025-5-16T22:45:3Z</time></trkpt>
<trkpt lat="48.909523010254" lon="2.6715819835663"><ele></ele><time>2025-5-16T22:45:6Z</time></trkpt>
<trkpt lat="48.909473419189" lon="2.6716175079346"><ele></ele><time>2025-5-16T22:45:9Z</time></trkpt>
<trkpt lat="48.909473419189" lon="2.6716175079346"><ele></ele><time>2025-5-16T22:45:12Z</time></trkpt>
<trkpt lat="48.90938949585" lon="2.6716327667236"><ele></ele><time>2025-5-16T22:45:15Z</time></trkpt>
<trkpt lat="48.909324645996" lon="2.6715881824493"><ele></ele><time>2025-5-16T22:45:18Z</time></trkpt>
<trkpt lat="48.909294128418" lon="2.671501159668"><ele></ele><time>2025-5-16T22:45:21Z</time></trkpt>
<trkpt lat="48.909294128418" lon="2.671501159668"><ele></ele><time>2025-5-16T22:45:24Z</time></trkpt>
<trkpt lat="48.909278869629" lon="2.6713683605194"><ele></ele><time>2025-5-16T22:45:27Z</time></trkpt>
<trkpt lat="48.909271240234" lon="2.6712164878845"><ele></ele><time>2025-5-16T22:45:30Z</time></trkpt>
<trkpt lat="48.909267425537" lon="2.6710875034332"><ele></ele><time>2025-5-16T22:45:33Z</time></trkpt>
<trkpt lat="48.909267425537" lon="2.6710875034332"><ele></ele><time>2025-5-16T22:45:36Z</time></trkpt>
<trkpt lat="48.909259796143" lon="2.6709718704224"><ele></ele><time>2025-5-16T22:45:39Z</time></trkpt>
<trkpt lat="48.909259796143" lon="2.6708686351776"><ele></ele><time>2025-5-16T22:45:42Z</time></trkpt>
<trkpt lat="48.909259796143" lon="2.6708686351776"><ele></ele><time>2025-5-16T22:45:45Z</time></trkpt>
<trkpt lat="48.909259796143" lon="2.6708686351776"><ele></ele><time>2025-5-16T22:45:48Z</time></trkpt>
<trkpt lat="48.909259796143" lon="2.6707274913788"><ele></ele><time>2025-5-16T22:45:51Z</time></trkpt>
<trkpt lat="48.909259796143" lon="2.6707274913788"><ele></ele><time>2025-5-16T22:45:54Z</time></trkpt>
<trkpt lat="48.909248352051" lon="2.6706109046936"><ele></ele><time>2025-5-16T22:45:57Z</time></trkpt>
<trkpt lat="48.909248352051" lon="2.6706109046936"><ele></ele><time>2025-5-16T22:46:0Z</time></trkpt>
<trkpt lat="48.909248352051" lon="2.6706109046936"><ele></ele><time>2025-5-16T22:46:3Z</time></trkpt>
<trkpt lat="48.909225463867" lon="2.6705265045166"><ele></ele><time>2025-5-16T22:46:6Z</time></trkpt>
<trkpt lat="48.909225463867" lon="2.6705265045166"><ele></ele><time>2025-5-16T22:46:9Z</time></trkpt>
<trkpt lat="48.909225463867" lon="2.6705265045166"><ele></ele><time>2025-5-16T22:46:12Z</time></trkpt>
<trkpt lat="48.909202575684" lon="2.6704349517822"><ele></ele><time>2025-5-16T22:46:15Z</time></trkpt>
<trkpt lat="48.909202575684" lon="2.6704349517822"><ele></ele><time>2025-5-16T22:46:18Z</time></trkpt>
<trkpt lat="48.909202575684" lon="2.6704349517822"><ele></ele><time>2025-5-16T22:46:21Z</time></trkpt>
<trkpt lat="48.909191131592" lon="2.6703193187714"><ele></ele><time>2025-5-16T22:46:24Z</time></trkpt>
<trkpt lat="48.909191131592" lon="2.6703193187714"><ele></ele><time>2025-5-16T22:46:27Z</time></trkpt>
<trkpt lat="48.909191131592" lon="2.6703193187714"><ele></ele><time>2025-5-16T22:46:30Z</time></trkpt>
<trkpt lat="48.909210205078" lon="2.6701564788818"><ele></ele><time>2025-5-16T22:46:33Z</time></trkpt>
<trkpt lat="48.909210205078" lon="2.6701564788818"><ele></ele><time>2025-5-16T22:46:36Z</time></trkpt>
<trkpt lat="48.909248352051" lon="2.6695644855499"><ele></ele><time>2025-5-16T22:46:39Z</time></trkpt>
<trkpt lat="48.909259796143" lon="2.6694717407227"><ele></ele><time>2025-5-16T22:46:42Z</time></trkpt>
<trkpt lat="48.909267425537" lon="2.6693742275238"><ele></ele><time>2025-5-16T22:46:45Z</time></trkpt>
<trkpt lat="48.909278869629" lon="2.6692388057709"><ele></ele><time>2025-5-16T22:46:48Z</time></trkpt>
<trkpt lat="48.909278869629" lon="2.6692388057709"><ele></ele><time>2025-5-16T22:46:51Z</time></trkpt>
<trkpt lat="48.909275054932" lon="2.6691489219666"><ele></ele><time>2025-5-16T22:46:54Z</time></trkpt>
<trkpt lat="48.909275054932" lon="2.6691489219666"><ele></ele><time>2025-5-16T22:46:57Z</time></trkpt>
<trkpt lat="48.909275054932" lon="2.669046163559"><ele></ele><time>2025-5-16T22:47:0Z</time></trkpt>
<trkpt lat="48.909275054932" lon="2.669046163559"><ele></ele><time>2025-5-16T22:47:3Z</time></trkpt>
<trkpt lat="48.909282684326" lon="2.6689386367798"><ele></ele><time>2025-5-16T22:47:6Z</time></trkpt>
<trkpt lat="48.909282684326" lon="2.6689386367798"><ele></ele><time>2025-5-16T22:47:9Z</time></trkpt>
<trkpt lat="48.909282684326" lon="2.6689386367798"><ele></ele><time>2025-5-16T22:47:12Z</time></trkpt>
<trkpt lat="48.909309387207" lon="2.6688187122345"><ele></ele><time>2025-5-16T22:47:15Z</time></trkpt>
<trkpt lat="48.909309387207" lon="2.6688187122345"><ele></ele><time>2025-5-16T22:47:18Z</time></trkpt>
<trkpt lat="48.909320831299" lon="2.6686828136444"><ele></ele><time>2025-5-16T22:47:21Z</time></trkpt>
<trkpt lat="48.909320831299" lon="2.6686828136444"><ele></ele><time>2025-5-16T22:47:24Z</time></trkpt>
<trkpt lat="48.909339904785" lon="2.6685826778412"><ele></ele><time>2025-5-16T22:47:27Z</time></trkpt>
<trkpt lat="48.909339904785" lon="2.6685826778412"><ele></ele><time>2025-5-16T22:47:30Z</time></trkpt>
<trkpt lat="48.909370422363" lon="2.6684925556183"><ele></ele><time>2025-5-16T22:47:33Z</time></trkpt>
<trkpt lat="48.909370422363" lon="2.6684925556183"><ele></ele><time>2025-5-16T22:47:36Z</time></trkpt>
<trkpt lat="48.909370422363" lon="2.6684925556183"><ele></ele><time>2025-5-16T22:47:39Z</time></trkpt>
<trkpt lat="48.909370422363" lon="2.6684925556183"><ele></ele><time>2025-5-16T22:47:42Z</time></trkpt>
<trkpt lat="48.909420013428" lon="2.668395280838"><ele></ele><time>2025-5-16T22:47:45Z</time></trkpt>
<trkpt lat="48.909420013428" lon="2.668395280838"><ele></ele><time>2025-5-16T22:47:48Z</time></trkpt>
<trkpt lat="48.909420013428" lon="2.668395280838"><ele></ele><time>2025-5-16T22:47:51Z</time></trkpt>
<trkpt lat="48.909469604492" lon="2.6682939529419"><ele></ele><time>2025-5-16T22:47:54Z</time></trkpt>
<trkpt lat="48.909469604492" lon="2.6682939529419"><ele></ele><time>2025-5-16T22:47:57Z</time></trkpt>
<trkpt lat="48.909469604492" lon="2.6682939529419"><ele></ele><time>2025-5-16T22:48:0Z</time></trkpt>
<trkpt lat="48.909507751465" lon="2.6682195663452"><ele></ele><time>2025-5-16T22:48:3Z</time></trkpt>
<trkpt lat="48.909549713135" lon="2.6681518554688"><ele></ele><time>2025-5-16T22:48:6Z</time></trkpt>
<trkpt lat="48.909549713135" lon="2.6681518554688"><ele></ele><time>2025-5-16T22:48:9Z</time></trkpt>
<trkpt lat="48.909549713135" lon="2.6681518554688"><ele></ele><time>2025-5-16T22:48:12Z</time></trkpt>
<trkpt lat="48.909564971924" lon="2.6680173873901"><ele></ele><time>2025-5-16T22:48:15Z</time></trkpt>
<trkpt lat="48.909564971924" lon="2.6680173873901"><ele></ele><time>2025-5-16T22:48:18Z</time></trkpt>
<trkpt lat="48.909538269043" lon="2.6678900718689"><ele></ele><time>2025-5-16T22:48:21Z</time></trkpt>
<trkpt lat="48.909538269043" lon="2.6678900718689"><ele></ele><time>2025-5-16T22:48:24Z</time></trkpt>
<trkpt lat="48.909496307373" lon="2.6677978038788"><ele></ele><time>2025-5-16T22:48:27Z</time></trkpt>
<trkpt lat="48.909496307373" lon="2.6677978038788"><ele></ele><time>2025-5-16T22:48:30Z</time></trkpt>
<trkpt lat="48.909454345703" lon="2.6676938533783"><ele></ele><time>2025-5-16T22:48:33Z</time></trkpt>
<trkpt lat="48.90941619873" lon="2.6675641536713"><ele></ele><time>2025-5-16T22:48:36Z</time></trkpt>
<trkpt lat="48.90941619873" lon="2.6675641536713"><ele></ele><time>2025-5-16T22:48:39Z</time></trkpt>
<trkpt lat="48.909358978271" lon="2.6674716472626"><ele></ele><time>2025-5-16T22:48:42Z</time></trkpt>
<trkpt lat="48.909309387207" lon="2.6674184799194"><ele></ele><time>2025-5-16T22:48:45Z</time></trkpt>
<trkpt lat="48.909309387207" lon="2.6674184799194"><ele></ele><time>2025-5-16T22:48:48Z</time></trkpt>
<trkpt lat="48.909252166748" lon="2.6673851013184"><ele></ele><time>2025-5-16T22:48:51Z</time></trkpt>
<trkpt lat="48.909191131592" lon="2.6673583984375"><ele></ele><time>2025-5-16T22:48:54Z</time></trkpt>
<trkpt lat="48.909130096436" lon="2.6673331260681"><ele></ele><time>2025-5-16T22:48:57Z</time></trkpt>
<trkpt lat="48.909130096436" lon="2.6673331260681"><ele></ele><time>2025-5-16T22:49:0Z</time></trkpt>
<trkpt lat="48.909076690674" lon="2.6672737598419"><ele></ele><time>2025-5-16T22:49:3Z</time></trkpt>
<trkpt lat="48.909034729004" lon="2.6672141551971"><ele></ele><time>2025-5-16T22:49:6Z</time></trkpt>
<trkpt lat="48.909034729004" lon="2.6672141551971"><ele></ele><time>2025-5-16T22:49:9Z</time></trkpt>
<trkpt lat="48.908939361572" lon="2.6671748161316"><ele></ele><time>2025-5-16T22:49:12Z</time></trkpt>
<trkpt lat="48.908866882324" lon="2.6671779155731"><ele></ele><time>2025-5-16T22:49:15Z</time></trkpt>
<trkpt lat="48.908866882324" lon="2.6671779155731"><ele></ele><time>2025-5-16T22:49:18Z</time></trkpt>
<trkpt lat="48.908790588379" lon="2.6672294139862"><ele></ele><time>2025-5-16T22:49:21Z</time></trkpt>
<trkpt lat="48.908710479736" lon="2.667272567749"><ele></ele><time>2025-5-16T22:49:24Z</time></trkpt>
<trkpt lat="48.908638000488" lon="2.6673467159271"><ele></ele><time>2025-5-16T22:49:27Z</time></trkpt>
<trkpt lat="48.908638000488" lon="2.6673467159271"><ele></ele><time>2025-5-16T22:49:30Z</time></trkpt>
<trkpt lat="48.908573150635" lon="2.667457818985"><ele></ele><time>2025-5-16T22:49:33Z</time></trkpt>
<trkpt lat="48.908519744873" lon="2.6675989627838"><ele></ele><time>2025-5-16T22:49:36Z</time></trkpt>
<trkpt lat="48.908470153809" lon="2.6677329540253"><ele></ele><time>2025-5-16T22:49:39Z</time></trkpt>
<trkpt lat="48.908470153809" lon="2.6677329540253"><ele></ele><time>2025-5-16T22:49:42Z</time></trkpt>
<trkpt lat="48.908416748047" lon="2.6678764820099"><ele></ele><time>2025-5-16T22:49:45Z</time></trkpt>
<trkpt lat="48.908355712891" lon="2.6680264472961"><ele></ele><time>2025-5-16T22:49:48Z</time></trkpt>
<trkpt lat="48.908290863037" lon="2.6681785583496"><ele></ele><time>2025-5-16T22:49:51Z</time></trkpt>
<trkpt lat="48.908290863037" lon="2.6681785583496"><ele></ele><time>2025-5-16T22:49:54Z</time></trkpt>
<trkpt lat="48.908222198486" lon="2.6683118343353"><ele></ele><time>2025-5-16T22:49:57Z</time></trkpt>
<trkpt lat="48.908126831055" lon="2.668449640274"><ele></ele><time>2025-5-16T22:50:0Z</time></trkpt>
<trkpt lat="48.908008575439" lon="2.6686017513275"><ele></ele><time>2025-5-16T22:50:3Z</time></trkpt>
<trkpt lat="48.908008575439" lon="2.6686017513275"><ele></ele><time>2025-5-16T22:50:6Z</time></trkpt>
<trkpt lat="48.907886505127" lon="2.6687772274017"><ele></ele><time>2025-5-16T22:50:9Z</time></trkpt>
<trkpt lat="48.907787322998" lon="2.6689782142639"><ele></ele><time>2025-5-16T22:50:12Z</time></trkpt>
<trkpt lat="48.907711029053" lon="2.6691958904266"><ele></ele><time>2025-5-16T22:50:15Z</time></trkpt>
<trkpt lat="48.907711029053" lon="2.6691958904266"><ele></ele><time>2025-5-16T22:50:18Z</time></trkpt>
<trkpt lat="48.907653808594" lon="2.6694221496582"><ele></ele><time>2025-5-16T22:50:21Z</time></trkpt>
<trkpt lat="48.907592773438" lon="2.6696653366089"><ele></ele><time>2025-5-16T22:50:24Z</time></trkpt>
<trkpt lat="48.907516479492" lon="2.6698744297028"><ele></ele><time>2025-5-16T22:50:27Z</time></trkpt>
<trkpt lat="48.907516479492" lon="2.6698744297028"><ele></ele><time>2025-5-16T22:50:30Z</time></trkpt>
<trkpt lat="48.90739440918" lon="2.6700253486633"><ele></ele><time>2025-5-16T22:50:33Z</time></trkpt>
<trkpt lat="48.9072265625" lon="2.6700625419617"><ele></ele><time>2025-5-16T22:50:36Z</time></trkpt>
<trkpt lat="48.907024383545" lon="2.6700313091278"><ele></ele><time>2025-5-16T22:50:39Z</time></trkpt>
<trkpt lat="48.907024383545" lon="2.6700313091278"><ele></ele><time>2025-5-16T22:50:42Z</time></trkpt>
<trkpt lat="48.90682220459" lon="2.6699929237366"><ele></ele><time>2025-5-16T22:50:45Z</time></trkpt>
<trkpt lat="48.906620025635" lon="2.6699450016022"><ele></ele><time>2025-5-16T22:50:48Z</time></trkpt>
<trkpt lat="48.906425476074" lon="2.6698906421661"><ele></ele><time>2025-5-16T22:50:51Z</time></trkpt>
<trkpt lat="48.906425476074" lon="2.6698906421661"><ele></ele><time>2025-5-16T22:50:54Z</time></trkpt>
<trkpt lat="48.906131744385" lon="2.669810295105"><ele></ele><time>2025-5-16T22:50:57Z</time></trkpt>
<trkpt lat="48.906131744385" lon="2.669810295105"><ele></ele><time>2025-5-16T22:51:0Z</time></trkpt>
<trkpt lat="48.90592956543" lon="2.6698813438416"><ele></ele><time>2025-5-16T22:51:3Z</time></trkpt>
<trkpt lat="48.905895233154" lon="2.6699924468994"><ele></ele><time>2025-5-16T22:51:6Z</time></trkpt>
<trkpt lat="48.905838012695" lon="2.6701118946075"><ele></ele><time>2025-5-16T22:51:9Z</time></trkpt>
<trkpt lat="48.905796051025" lon="2.670206785202"><ele></ele><time>2025-5-16T22:51:12Z</time></trkpt>
<trkpt lat="48.905757904053" lon="2.6702802181244"><ele></ele><time>2025-5-16T22:51:15Z</time></trkpt>
<trkpt lat="48.905757904053" lon="2.6702802181244"><ele></ele><time>2025-5-16T22:51:18Z</time></trkpt>
<trkpt lat="48.905727386475" lon="2.6703848838806"><ele></ele><time>2025-5-16T22:51:21Z</time></trkpt>
<trkpt lat="48.905727386475" lon="2.6703848838806"><ele></ele><time>2025-5-16T22:51:24Z</time></trkpt>
<trkpt lat="48.905815124512" lon="2.6703410148621"><ele></ele><time>2025-5-16T22:51:27Z</time></trkpt>
<trkpt lat="48.905815124512" lon="2.6703410148621"><ele></ele><time>2025-5-16T22:51:30Z</time></trkpt>
<trkpt lat="48.905849456787" lon="2.6702494621277"><ele></ele><time>2025-5-16T22:51:33Z</time></trkpt>
<trkpt lat="48.905849456787" lon="2.6702494621277"><ele></ele><time>2025-5-16T22:51:36Z</time></trkpt>
<trkpt lat="48.905654907227" lon="2.6705460548401"><ele></ele><time>2025-5-16T22:51:39Z</time></trkpt>
<trkpt lat="48.905536651611" lon="2.6708326339722"><ele></ele><time>2025-5-16T22:51:42Z</time></trkpt>
<trkpt lat="48.905445098877" lon="2.6709804534912"><ele></ele><time>2025-5-16T22:51:45Z</time></trkpt>
<trkpt lat="48.905330657959" lon="2.6711196899414"><ele></ele><time>2025-5-16T22:51:48Z</time></trkpt>
<trkpt lat="48.905330657959" lon="2.6711196899414"><ele></ele><time>2025-5-16T22:51:51Z</time></trkpt>
<trkpt lat="48.905197143555" lon="2.6712579727173"><ele></ele><time>2025-5-16T22:51:54Z</time></trkpt>
<trkpt lat="48.905048370361" lon="2.6713764667511"><ele></ele><time>2025-5-16T22:51:57Z</time></trkpt>
<trkpt lat="48.904884338379" lon="2.6714878082275"><ele></ele><time>2025-5-16T22:52:0Z</time></trkpt>
<trkpt lat="48.904884338379" lon="2.6714878082275"><ele></ele><time>2025-5-16T22:52:3Z</time></trkpt>
<trkpt lat="48.904693603516" lon="2.6715977191925"><ele></ele><time>2025-5-16T22:52:6Z</time></trkpt>
<trkpt lat="48.904491424561" lon="2.6717135906219"><ele></ele><time>2025-5-16T22:52:9Z</time></trkpt>
<trkpt lat="48.904277801514" lon="2.6718401908875"><ele></ele><time>2025-5-16T22:52:12Z</time></trkpt>
<trkpt lat="48.904277801514" lon="2.6718401908875"><ele></ele><time>2025-5-16T22:52:15Z</time></trkpt>
<trkpt lat="48.904067993164" lon="2.6719641685486"><ele></ele><time>2025-5-16T22:52:18Z</time></trkpt>
<trkpt lat="48.903865814209" lon="2.6720881462097"><ele></ele><time>2025-5-16T22:52:21Z</time></trkpt>
<trkpt lat="48.903671264648" lon="2.6722159385681"><ele></ele><time>2025-5-16T22:52:24Z</time></trkpt>
<trkpt lat="48.903476715088" lon="2.6723420619965"><ele></ele><time>2025-5-16T22:52:27Z</time></trkpt>
<trkpt lat="48.903476715088" lon="2.6723420619965"><ele></ele><time>2025-5-16T22:52:30Z</time></trkpt>
<trkpt lat="48.903263092041" lon="2.6724791526794"><ele></ele><time>2025-5-16T22:52:33Z</time></trkpt>
<trkpt lat="48.903171539307" lon="2.6725764274597"><ele></ele><time>2025-5-16T22:52:36Z</time></trkpt>
<trkpt lat="48.903171539307" lon="2.6725764274597"><ele></ele><time>2025-5-16T22:52:39Z</time></trkpt>
<trkpt lat="48.903064727783" lon="2.672687292099"><ele></ele><time>2025-5-16T22:52:42Z</time></trkpt>
<trkpt lat="48.902946472168" lon="2.6727991104126"><ele></ele><time>2025-5-16T22:52:45Z</time></trkpt>
<trkpt lat="48.902839660645" lon="2.6728971004486"><ele></ele><time>2025-5-16T22:52:48Z</time></trkpt>
<trkpt lat="48.902725219727" lon="2.6730012893677"><ele></ele><time>2025-5-16T22:52:51Z</time></trkpt>
<trkpt lat="48.902610778809" lon="2.6731014251709"><ele></ele><time>2025-5-16T22:52:54Z</time></trkpt>
<trkpt lat="48.902503967285" lon="2.6731967926025"><ele></ele><time>2025-5-16T22:52:57Z</time></trkpt>
<trkpt lat="48.902416229248" lon="2.6732754707336"><ele></ele><time>2025-5-16T22:53:0Z</time></trkpt>
<trkpt lat="48.902381896973" lon="2.673344373703"><ele></ele><time>2025-5-16T22:53:3Z</time></trkpt>
<trkpt lat="48.902381896973" lon="2.673344373703"><ele></ele><time>2025-5-16T22:53:6Z</time></trkpt>
<trkpt lat="48.902359008789" lon="2.6734359264374"><ele></ele><time>2025-5-16T22:53:9Z</time></trkpt>
<trkpt lat="48.902359008789" lon="2.6734359264374"><ele></ele><time>2025-5-16T22:53:12Z</time></trkpt>
<trkpt lat="48.902420043945" lon="2.6735289096832"><ele></ele><time>2025-5-16T22:53:15Z</time></trkpt>
<trkpt lat="48.902488708496" lon="2.6735796928406"><ele></ele><time>2025-5-16T22:53:18Z</time></trkpt>
<trkpt lat="48.90255355835" lon="2.6736452579498"><ele></ele><time>2025-5-16T22:53:21Z</time></trkpt>
<trkpt lat="48.902606964111" lon="2.6737105846405"><ele></ele><time>2025-5-16T22:53:24Z</time></trkpt>
<trkpt lat="48.90266418457" lon="2.6737802028656"><ele></ele><time>2025-5-16T22:53:27Z</time></trkpt>
<trkpt lat="48.902740478516" lon="2.6739068031311"><ele></ele><time>2025-5-16T22:53:30Z</time></trkpt>
<trkpt lat="48.902767181396" lon="2.6739873886108"><ele></ele><time>2025-5-16T22:53:33Z</time></trkpt>
<trkpt lat="48.902767181396" lon="2.6739873886108"><ele></ele><time>2025-5-16T22:53:36Z</time></trkpt>
<trkpt lat="48.902805328369" lon="2.6741302013397"><ele></ele><time>2025-5-16T22:53:39Z</time></trkpt>
<trkpt lat="48.902805328369" lon="2.6741302013397"><ele></ele><time>2025-5-16T22:53:42Z</time></trkpt>
<trkpt lat="48.902847290039" lon="2.6742398738861"><ele></ele><time>2025-5-16T22:53:45Z</time></trkpt>
<trkpt lat="48.902847290039" lon="2.6742398738861"><ele></ele><time>2025-5-16T22:53:48Z</time></trkpt>
<trkpt lat="48.902885437012" lon="2.6743443012238"><ele></ele><time>2025-5-16T22:53:51Z</time></trkpt>
<trkpt lat="48.902885437012" lon="2.6743443012238"><ele></ele><time>2025-5-16T22:53:54Z</time></trkpt>
<trkpt lat="48.902858734131" lon="2.674437046051"><ele></ele><time>2025-5-16T22:53:57Z</time></trkpt>
<trkpt lat="48.902828216553" lon="2.6745414733887"><ele></ele><time>2025-5-16T22:54:0Z</time></trkpt>
<trkpt lat="48.902828216553" lon="2.6745414733887"><ele></ele><time>2025-5-16T22:54:3Z</time></trkpt>
<trkpt lat="48.902816772461" lon="2.6746344566345"><ele></ele><time>2025-5-16T22:54:6Z</time></trkpt>
<trkpt lat="48.902816772461" lon="2.6746344566345"><ele></ele><time>2025-5-16T22:54:9Z</time></trkpt>
<trkpt lat="48.902816772461" lon="2.6746344566345"><ele></ele><time>2025-5-16T22:54:12Z</time></trkpt>
<trkpt lat="48.902816772461" lon="2.6746344566345"><ele></ele><time>2025-5-16T22:54:15Z</time></trkpt>
<trkpt lat="48.902858734131" lon="2.6744112968445"><ele></ele><time>2025-5-16T22:54:18Z</time></trkpt>
<trkpt lat="48.902858734131" lon="2.6744112968445"><ele></ele><time>2025-5-16T22:54:21Z</time></trkpt>
<trkpt lat="48.902877807617" lon="2.6743135452271"><ele></ele><time>2025-5-16T22:54:24Z</time></trkpt>
<trkpt lat="48.902877807617" lon="2.6743135452271"><ele></ele><time>2025-5-16T22:54:27Z</time></trkpt>
<trkpt lat="48.902935028076" lon="2.674286365509"><ele></ele><time>2025-5-16T22:54:30Z</time></trkpt>
<trkpt lat="48.902935028076" lon="2.674286365509"><ele></ele><time>2025-5-16T22:54:33Z</time></trkpt>
<trkpt lat="48.902935028076" lon="2.674286365509"><ele></ele><time>2025-5-16T22:54:36Z</time></trkpt>
<trkpt lat="48.903015136719" lon="2.6743500232697"><ele></ele><time>2025-5-16T22:54:39Z</time></trkpt>
<trkpt lat="48.90306854248" lon="2.6743903160095"><ele></ele><time>2025-5-16T22:54:42Z</time></trkpt>
<trkpt lat="48.90306854248" lon="2.6743903160095"><ele></ele><time>2025-5-16T22:54:45Z</time></trkpt>
<trkpt lat="48.903175354004" lon="2.6744647026062"><ele></ele><time>2025-5-16T22:54:48Z</time></trkpt>
<trkpt lat="48.903270721436" lon="2.6745433807373"><ele></ele><time>2025-5-16T22:54:51Z</time></trkpt>
<trkpt lat="48.903270721436" lon="2.6745433807373"><ele></ele><time>2025-5-16T22:54:54Z</time></trkpt>
<trkpt lat="48.903270721436" lon="2.6745433807373"><ele></ele><time>2025-5-16T22:54:57Z</time></trkpt>
<trkpt lat="48.903377532959" lon="2.6746191978455"><ele></ele><time>2025-5-16T22:55:0Z</time></trkpt>
<trkpt lat="48.903377532959" lon="2.6746191978455"><ele></ele><time>2025-5-16T22:55:3Z</time></trkpt>
<trkpt lat="48.903491973877" lon="2.6747026443481"><ele></ele><time>2025-5-16T22:55:6Z</time></trkpt>
<trkpt lat="48.903560638428" lon="2.6747601032257"><ele></ele><time>2025-5-16T22:55:9Z</time></trkpt>
<trkpt lat="48.90364074707" lon="2.6748213768005"><ele></ele><time>2025-5-16T22:55:12Z</time></trkpt>
<trkpt lat="48.90364074707" lon="2.6748213768005"><ele></ele><time>2025-5-16T22:55:15Z</time></trkpt>
<trkpt lat="48.90372467041" lon="2.6748752593994"><ele></ele><time>2025-5-16T22:55:18Z</time></trkpt>
<trkpt lat="48.903804779053" lon="2.6749255657196"><ele></ele><time>2025-5-16T22:55:21Z</time></trkpt>
<trkpt lat="48.903869628906" lon="2.6749665737152"><ele></ele><time>2025-5-16T22:55:24Z</time></trkpt>
<trkpt lat="48.903869628906" lon="2.6749665737152"><ele></ele><time>2025-5-16T22:55:27Z</time></trkpt>
<trkpt lat="48.903926849365" lon="2.675003528595"><ele></ele><time>2025-5-16T22:55:30Z</time></trkpt>
<trkpt lat="48.903987884521" lon="2.6750416755676"><ele></ele><time>2025-5-16T22:55:33Z</time></trkpt>
<trkpt lat="48.904064178467" lon="2.6750793457031"><ele></ele><time>2025-5-16T22:55:36Z</time></trkpt>
<trkpt lat="48.904064178467" lon="2.6750793457031"><ele></ele><time>2025-5-16T22:55:39Z</time></trkpt>
<trkpt lat="48.904140472412" lon="2.67511677742"><ele></ele><time>2025-5-16T22:55:42Z</time></trkpt>
<trkpt lat="48.90421295166" lon="2.6751432418823"><ele></ele><time>2025-5-16T22:55:45Z</time></trkpt>
<trkpt lat="48.904277801514" lon="2.6751666069031"><ele></ele><time>2025-5-16T22:55:48Z</time></trkpt>
<trkpt lat="48.904277801514" lon="2.6751666069031"><ele></ele><time>2025-5-16T22:55:51Z</time></trkpt>
<trkpt lat="48.904342651367" lon="2.6751930713654"><ele></ele><time>2025-5-16T22:55:54Z</time></trkpt>
<trkpt lat="48.904415130615" lon="2.6752192974091"><ele></ele><time>2025-5-16T22:55:57Z</time></trkpt>
<trkpt lat="48.904479980469" lon="2.675258398056"><ele></ele><time>2025-5-16T22:56:0Z</time></trkpt>
<trkpt lat="48.904479980469" lon="2.675258398056"><ele></ele><time>2025-5-16T22:56:3Z</time></trkpt>
<trkpt lat="48.90454864502" lon="2.6753036975861"><ele></ele><time>2025-5-16T22:56:6Z</time></trkpt>
<trkpt lat="48.904613494873" lon="2.675342798233"><ele></ele><time>2025-5-16T22:56:9Z</time></trkpt>
<trkpt lat="48.904685974121" lon="2.6753756999969"><ele></ele><time>2025-5-16T22:56:12Z</time></trkpt>
<trkpt lat="48.904685974121" lon="2.6753756999969"><ele></ele><time>2025-5-16T22:56:15Z</time></trkpt>
<trkpt lat="48.904750823975" lon="2.675400018692"><ele></ele><time>2025-5-16T22:56:18Z</time></trkpt>
<trkpt lat="48.904815673828" lon="2.6754329204559"><ele></ele><time>2025-5-16T22:56:21Z</time></trkpt>
<trkpt lat="48.904880523682" lon="2.6754696369171"><ele></ele><time>2025-5-16T22:56:24Z</time></trkpt>
<trkpt lat="48.904880523682" lon="2.6754696369171"><ele></ele><time>2025-5-16T22:56:27Z</time></trkpt>
<trkpt lat="48.904937744141" lon="2.6755039691925"><ele></ele><time>2025-5-16T22:56:30Z</time></trkpt>
<trkpt lat="48.904937744141" lon="2.6755039691925"><ele></ele><time>2025-5-16T22:56:33Z</time></trkpt>
<trkpt lat="48.90495300293" lon="2.6756200790405"><ele></ele><time>2025-5-16T22:56:36Z</time></trkpt>
<trkpt lat="48.90495300293" lon="2.6756200790405"><ele></ele><time>2025-5-16T22:56:39Z</time></trkpt>
<trkpt lat="48.904907226562" lon="2.6756930351257"><ele></ele><time>2025-5-16T22:56:42Z</time></trkpt>
<trkpt lat="48.904865264893" lon="2.6757869720459"><ele></ele><time>2025-5-16T22:56:45Z</time></trkpt>
<trkpt lat="48.904865264893" lon="2.6757869720459"><ele></ele><time>2025-5-16T22:56:48Z</time></trkpt>
<trkpt lat="48.904819488525" lon="2.6759250164032"><ele></ele><time>2025-5-16T22:56:51Z</time></trkpt>
<trkpt lat="48.904819488525" lon="2.6759250164032"><ele></ele><time>2025-5-16T22:56:54Z</time></trkpt>
<trkpt lat="48.904769897461" lon="2.6760618686676"><ele></ele><time>2025-5-16T22:56:57Z</time></trkpt>
<trkpt lat="48.904769897461" lon="2.6760618686676"><ele></ele><time>2025-5-16T22:57:0Z</time></trkpt>
<trkpt lat="48.904769897461" lon="2.6760618686676"><ele></ele><time>2025-5-16T22:57:3Z</time></trkpt>
<trkpt lat="48.904716491699" lon="2.6761786937714"><ele></ele><time>2025-5-16T22:57:6Z</time></trkpt>
<trkpt lat="48.904716491699" lon="2.6761786937714"><ele></ele><time>2025-5-16T22:57:9Z</time></trkpt>
<trkpt lat="48.904716491699" lon="2.6761786937714"><ele></ele><time>2025-5-16T22:57:12Z</time></trkpt>
<trkpt lat="48.904663085938" lon="2.6762881278992"><ele></ele><time>2025-5-16T22:57:15Z</time></trkpt>
<trkpt lat="48.904663085938" lon="2.6762881278992"><ele></ele><time>2025-5-16T22:57:18Z</time></trkpt>
<trkpt lat="48.904598236084" lon="2.6763997077942"><ele></ele><time>2025-5-16T22:57:21Z</time></trkpt>
<trkpt lat="48.904598236084" lon="2.6763997077942"><ele></ele><time>2025-5-16T22:57:24Z</time></trkpt>
<trkpt lat="48.904598236084" lon="2.6763997077942"><ele></ele><time>2025-5-16T22:57:27Z</time></trkpt>
<trkpt lat="48.904525756836" lon="2.6764633655548"><ele></ele><time>2025-5-16T22:57:30Z</time></trkpt>
<trkpt lat="48.904525756836" lon="2.6764633655548"><ele></ele><time>2025-5-16T22:57:33Z</time></trkpt>
<trkpt lat="48.904525756836" lon="2.6764633655548"><ele></ele><time>2025-5-16T22:57:36Z</time></trkpt>
<trkpt lat="48.904460906982" lon="2.6765253543854"><ele></ele><time>2025-5-16T22:57:39Z</time></trkpt>
<trkpt lat="48.904460906982" lon="2.6765253543854"><ele></ele><time>2025-5-16T22:57:42Z</time></trkpt>
<trkpt lat="48.904415130615" lon="2.67657995224"><ele></ele><time>2025-5-16T22:57:45Z</time></trkpt>
<trkpt lat="48.904415130615" lon="2.67657995224"><ele></ele><time>2025-5-16T22:57:48Z</time></trkpt>
<trkpt lat="48.904415130615" lon="2.67657995224"><ele></ele><time>2025-5-16T22:57:51Z</time></trkpt>
<trkpt lat="48.904357910156" lon="2.6766512393951"><ele></ele><time>2025-5-16T22:57:54Z</time></trkpt>
<trkpt lat="48.904357910156" lon="2.6766512393951"><ele></ele><time>2025-5-16T22:57:57Z</time></trkpt>
<trkpt lat="48.904357910156" lon="2.6766512393951"><ele></ele><time>2025-5-16T22:58:0Z</time></trkpt>
<trkpt lat="48.904273986816" lon="2.6767325401306"><ele></ele><time>2025-5-16T22:58:3Z</time></trkpt>
<trkpt lat="48.904216766357" lon="2.6768476963043"><ele></ele><time>2025-5-16T22:58:6Z</time></trkpt>
<trkpt lat="48.904190063477" lon="2.6769516468048"><ele></ele><time>2025-5-16T22:58:9Z</time></trkpt>
<trkpt lat="48.904190063477" lon="2.6769516468048"><ele></ele><time>2025-5-16T22:58:12Z</time></trkpt>
<trkpt lat="48.904174804688" lon="2.6770617961884"><ele></ele><time>2025-5-16T22:58:15Z</time></trkpt>
<trkpt lat="48.904148101807" lon="2.6771757602692"><ele></ele><time>2025-5-16T22:58:18Z</time></trkpt>
<trkpt lat="48.904148101807" lon="2.6771757602692"><ele></ele><time>2025-5-16T22:58:21Z</time></trkpt>
<trkpt lat="48.904121398926" lon="2.6772756576538"><ele></ele><time>2025-5-16T22:58:24Z</time></trkpt>
<trkpt lat="48.904121398926" lon="2.6772756576538"><ele></ele><time>2025-5-16T22:58:27Z</time></trkpt>
<trkpt lat="48.904094696045" lon="2.6773648262024"><ele></ele><time>2025-5-16T22:58:30Z</time></trkpt>
<trkpt lat="48.904094696045" lon="2.6773648262024"><ele></ele><time>2025-5-16T22:58:33Z</time></trkpt>
<trkpt lat="48.904056549072" lon="2.6774554252625"><ele></ele><time>2025-5-16T22:58:36Z</time></trkpt>
<trkpt lat="48.904056549072" lon="2.6774554252625"><ele></ele><time>2025-5-16T22:58:39Z</time></trkpt>
<trkpt lat="48.904010772705" lon="2.6775357723236"><ele></ele><time>2025-5-16T22:58:42Z</time></trkpt>
<trkpt lat="48.904010772705" lon="2.6775357723236"><ele></ele><time>2025-5-16T22:58:45Z</time></trkpt>
<trkpt lat="48.903953552246" lon="2.6776022911072"><ele></ele><time>2025-5-16T22:58:48Z</time></trkpt>
<trkpt lat="48.903953552246" lon="2.6776022911072"><ele></ele><time>2025-5-16T22:58:51Z</time></trkpt>
<trkpt lat="48.903953552246" lon="2.6776022911072"><ele></ele><time>2025-5-16T22:58:54Z</time></trkpt>
<trkpt lat="48.903953552246" lon="2.6776022911072"><ele></ele><time>2025-5-16T22:58:57Z</time></trkpt>
<trkpt lat="48.903919219971" lon="2.6776463985443"><ele></ele><time>2025-5-16T22:59:0Z</time></trkpt>
<trkpt lat="48.903888702393" lon="2.6776831150055"><ele></ele><time>2025-5-16T22:59:3Z</time></trkpt>
<trkpt lat="48.903858184814" lon="2.6777138710022"><ele></ele><time>2025-5-16T22:59:6Z</time></trkpt>
<trkpt lat="48.903858184814" lon="2.6777138710022"><ele></ele><time>2025-5-16T22:59:9Z</time></trkpt>
<trkpt lat="48.903675079346" lon="2.6779961585999"><ele></ele><time>2025-5-16T22:59:12Z</time></trkpt>
<trkpt lat="48.903675079346" lon="2.6779961585999"><ele></ele><time>2025-5-16T22:59:15Z</time></trkpt>
<trkpt lat="48.903503417969" lon="2.678290605545"><ele></ele><time>2025-5-16T22:59:18Z</time></trkpt>
<trkpt lat="48.903503417969" lon="2.678290605545"><ele></ele><time>2025-5-16T22:59:21Z</time></trkpt>
<trkpt lat="48.903503417969" lon="2.678290605545"><ele></ele><time>2025-5-16T22:59:24Z</time></trkpt>
<trkpt lat="48.903503417969" lon="2.678290605545"><ele></ele><time>2025-5-16T22:59:27Z</time></trkpt>
<trkpt lat="48.903503417969" lon="2.678290605545"><ele></ele><time>2025-5-16T22:59:30Z</time></trkpt>
<trkpt lat="48.903503417969" lon="2.678290605545"><ele></ele><time>2025-5-16T22:59:33Z</time></trkpt>
<trkpt lat="48.903503417969" lon="2.678290605545"><ele></ele><time>2025-5-16T22:59:36Z</time></trkpt>
<trkpt lat="48.903442382812" lon="2.6784117221832"><ele></ele><time>2025-5-16T22:59:39Z</time></trkpt>
<trkpt lat="48.903400421143" lon="2.6784722805023"><ele></ele><time>2025-5-16T22:59:42Z</time></trkpt>
<trkpt lat="48.903400421143" lon="2.6784722805023"><ele></ele><time>2025-5-16T22:59:45Z</time></trkpt>
<trkpt lat="48.903343200684" lon="2.6785233020782"><ele></ele><time>2025-5-16T22:59:48Z</time></trkpt>
<trkpt lat="48.903343200684" lon="2.6785233020782"><ele></ele><time>2025-5-16T22:59:51Z</time></trkpt>
<trkpt lat="48.903343200684" lon="2.6785233020782"><ele></ele><time>2025-5-16T22:59:54Z</time></trkpt>
<trkpt lat="48.903282165527" lon="2.6785869598389"><ele></ele><time>2025-5-16T22:59:57Z</time></trkpt>
<trkpt lat="48.903282165527" lon="2.6785869598389"><ele></ele><time>2025-5-16T23:0:0Z</time></trkpt>
<trkpt lat="48.903282165527" lon="2.6785869598389"><ele></ele><time>2025-5-16T23:0:3Z</time></trkpt>
<trkpt lat="48.903232574463" lon="2.6786406040192"><ele></ele><time>2025-5-16T23:0:6Z</time></trkpt>
<trkpt lat="48.903232574463" lon="2.6786406040192"><ele></ele><time>2025-5-16T23:0:9Z</time></trkpt>
<trkpt lat="48.90319442749" lon="2.6787061691284"><ele></ele><time>2025-5-16T23:0:12Z</time></trkpt>
<trkpt lat="48.90319442749" lon="2.6787061691284"><ele></ele><time>2025-5-16T23:0:15Z</time></trkpt>
<trkpt lat="48.90319442749" lon="2.6787061691284"><ele></ele><time>2025-5-16T23:0:18Z</time></trkpt>
<trkpt lat="48.90319442749" lon="2.6787061691284"><ele></ele><time>2025-5-16T23:0:21Z</time></trkpt>
<trkpt lat="48.90319442749" lon="2.6787061691284"><ele></ele><time>2025-5-16T23:0:24Z</time></trkpt>
<trkpt lat="48.90319442749" lon="2.6787061691284"><ele></ele><time>2025-5-16T23:0:27Z</time></trkpt>
<trkpt lat="48.90319442749" lon="2.6787061691284"><ele></ele><time>2025-5-16T23:0:30Z</time></trkpt>
<trkpt lat="48.90319442749" lon="2.6787061691284"><ele></ele><time>2025-5-16T23:0:33Z</time></trkpt>
<trkpt lat="48.90319442749" lon="2.6787061691284"><ele></ele><time>2025-5-16T23:0:36Z</time></trkpt>
<trkpt lat="48.90319442749" lon="2.6787061691284"><ele></ele><time>2025-5-16T23:0:39Z</time></trkpt>
<trkpt lat="48.902900695801" lon="2.6791100502014"><ele></ele><time>2025-5-16T23:0:42Z</time></trkpt>
<trkpt lat="48.90283203125" lon="2.67915391922"><ele></ele><time>2025-5-16T23:0:45Z</time></trkpt>
<trkpt lat="48.90283203125" lon="2.67915391922"><ele></ele><time>2025-5-16T23:0:48Z</time></trkpt>
<trkpt lat="48.902774810791" lon="2.6792275905609"><ele></ele><time>2025-5-16T23:0:51Z</time></trkpt>
<trkpt lat="48.902717590332" lon="2.6793088912964"><ele></ele><time>2025-5-16T23:0:54Z</time></trkpt>
<trkpt lat="48.90266418457" lon="2.6793954372406"><ele></ele><time>2025-5-16T23:0:57Z</time></trkpt>
<trkpt lat="48.90266418457" lon="2.6793954372406"><ele></ele><time>2025-5-16T23:1:0Z</time></trkpt>
<trkpt lat="48.902603149414" lon="2.6794762611389"><ele></ele><time>2025-5-16T23:1:3Z</time></trkpt>
<trkpt lat="48.902530670166" lon="2.6795387268066"><ele></ele><time>2025-5-16T23:1:6Z</time></trkpt>
<trkpt lat="48.902454376221" lon="2.6796214580536"><ele></ele><time>2025-5-16T23:1:9Z</time></trkpt>
<trkpt lat="48.902454376221" lon="2.6796214580536"><ele></ele><time>2025-5-16T23:1:12Z</time></trkpt>
<trkpt lat="48.902366638184" lon="2.6797163486481"><ele></ele><time>2025-5-16T23:1:15Z</time></trkpt>
<trkpt lat="48.902263641357" lon="2.6797850131989"><ele></ele><time>2025-5-16T23:1:18Z</time></trkpt>
<trkpt lat="48.902160644531" lon="2.679785490036"><ele></ele><time>2025-5-16T23:1:21Z</time></trkpt>
<trkpt lat="48.90209197998" lon="2.6797592639923"><ele></ele><time>2025-5-16T23:1:24Z</time></trkpt>
<trkpt lat="48.90209197998" lon="2.6797592639923"><ele></ele><time>2025-5-16T23:1:27Z</time></trkpt>
<trkpt lat="48.902030944824" lon="2.6797177791595"><ele></ele><time>2025-5-16T23:1:30Z</time></trkpt>
<trkpt lat="48.901958465576" lon="2.6796622276306"><ele></ele><time>2025-5-16T23:1:33Z</time></trkpt>
<trkpt lat="48.901885986328" lon="2.6795997619629"><ele></ele><time>2025-5-16T23:1:36Z</time></trkpt>
<trkpt lat="48.901885986328" lon="2.6795997619629"><ele></ele><time>2025-5-16T23:1:39Z</time></trkpt>
<trkpt lat="48.901798248291" lon="2.6795201301575"><ele></ele><time>2025-5-16T23:1:42Z</time></trkpt>
<trkpt lat="48.901702880859" lon="2.6794502735138"><ele></ele><time>2025-5-16T23:1:45Z</time></trkpt>
<trkpt lat="48.901611328125" lon="2.6793792247772"><ele></ele><time>2025-5-16T23:1:48Z</time></trkpt>
<trkpt lat="48.901611328125" lon="2.6793792247772"><ele></ele><time>2025-5-16T23:1:51Z</time></trkpt>
<trkpt lat="48.901527404785" lon="2.679318189621"><ele></ele><time>2025-5-16T23:1:54Z</time></trkpt>
<trkpt lat="48.90145111084" lon="2.679249048233"><ele></ele><time>2025-5-16T23:1:57Z</time></trkpt>
<trkpt lat="48.901363372803" lon="2.6791715621948"><ele></ele><time>2025-5-16T23:2:0Z</time></trkpt>
<trkpt lat="48.901363372803" lon="2.6791715621948"><ele></ele><time>2025-5-16T23:2:3Z</time></trkpt>
<trkpt lat="48.901264190674" lon="2.6790943145752"><ele></ele><time>2025-5-16T23:2:6Z</time></trkpt>
<trkpt lat="48.901145935059" lon="2.679034948349"><ele></ele><time>2025-5-16T23:2:9Z</time></trkpt>
<trkpt lat="48.901035308838" lon="2.6790089607239"><ele></ele><time>2025-5-16T23:2:12Z</time></trkpt>
<trkpt lat="48.901035308838" lon="2.6790089607239"><ele></ele><time>2025-5-16T23:2:15Z</time></trkpt>
<trkpt lat="48.900943756104" lon="2.6790156364441"><ele></ele><time>2025-5-16T23:2:18Z</time></trkpt>
<trkpt lat="48.900943756104" lon="2.6790156364441"><ele></ele><time>2025-5-16T23:2:21Z</time></trkpt>
<trkpt lat="48.900623321533" lon="2.679230928421"><ele></ele><time>2025-5-16T23:2:24Z</time></trkpt>
<trkpt lat="48.900535583496" lon="2.6793591976166"><ele></ele><time>2025-5-16T23:2:27Z</time></trkpt>
<trkpt lat="48.900466918945" lon="2.6794927120209"><ele></ele><time>2025-5-16T23:2:30Z</time></trkpt>
<trkpt lat="48.900466918945" lon="2.6794927120209"><ele></ele><time>2025-5-16T23:2:33Z</time></trkpt>
<trkpt lat="48.900421142578" lon="2.6796162128448"><ele></ele><time>2025-5-16T23:2:36Z</time></trkpt>
<trkpt lat="48.900375366211" lon="2.6797380447388"><ele></ele><time>2025-5-16T23:2:39Z</time></trkpt>
<trkpt lat="48.900341033936" lon="2.6798329353333"><ele></ele><time>2025-5-16T23:2:42Z</time></trkpt>
<trkpt lat="48.900341033936" lon="2.6798329353333"><ele></ele><time>2025-5-16T23:2:45Z</time></trkpt>
<trkpt lat="48.900299072266" lon="2.6799743175507"><ele></ele><time>2025-5-16T23:2:48Z</time></trkpt>
<trkpt lat="48.900268554688" lon="2.680074930191"><ele></ele><time>2025-5-16T23:2:51Z</time></trkpt>
<trkpt lat="48.900241851807" lon="2.680183172226"><ele></ele><time>2025-5-16T23:2:54Z</time></trkpt>
<trkpt lat="48.900211334229" lon="2.6802983283997"><ele></ele><time>2025-5-16T23:2:57Z</time></trkpt>
<trkpt lat="48.900196075439" lon="2.680419921875"><ele></ele><time>2025-5-16T23:3:0Z</time></trkpt>
<trkpt lat="48.900188446045" lon="2.6805319786072"><ele></ele><time>2025-5-16T23:3:3Z</time></trkpt>
<trkpt lat="48.900173187256" lon="2.6806557178497"><ele></ele><time>2025-5-16T23:3:6Z</time></trkpt>
<trkpt lat="48.900157928467" lon="2.6807684898376"><ele></ele><time>2025-5-16T23:3:9Z</time></trkpt>
<trkpt lat="48.900150299072" lon="2.6808795928955"><ele></ele><time>2025-5-16T23:3:12Z</time></trkpt>
<trkpt lat="48.900142669678" lon="2.6809957027435"><ele></ele><time>2025-5-16T23:3:15Z</time></trkpt>
<trkpt lat="48.900135040283" lon="2.6811089515686"><ele></ele><time>2025-5-16T23:3:18Z</time></trkpt>
<trkpt lat="48.900115966797" lon="2.6812133789062"><ele></ele><time>2025-5-16T23:3:21Z</time></trkpt>
<trkpt lat="48.900100708008" lon="2.6813225746155"><ele></ele><time>2025-5-16T23:3:24Z</time></trkpt>
<trkpt lat="48.900077819824" lon="2.6814343929291"><ele></ele><time>2025-5-16T23:3:27Z</time></trkpt>
<trkpt lat="48.900062561035" lon="2.6815259456635"><ele></ele><time>2025-5-16T23:3:30Z</time></trkpt>
<trkpt lat="48.900051116943" lon="2.6816215515137"><ele></ele><time>2025-5-16T23:3:33Z</time></trkpt>
<trkpt lat="48.900039672852" lon="2.6817233562469"><ele></ele><time>2025-5-16T23:3:36Z</time></trkpt>
<trkpt lat="48.900039672852" lon="2.6818492412567"><ele></ele><time>2025-5-16T23:3:39Z</time></trkpt>
<trkpt lat="48.900024414062" lon="2.6819641590118"><ele></ele><time>2025-5-16T23:3:42Z</time></trkpt>
<trkpt lat="48.900005340576" lon="2.6820764541626"><ele></ele><time>2025-5-16T23:3:45Z</time></trkpt>
<trkpt lat="48.89998626709" lon="2.6821980476379"><ele></ele><time>2025-5-16T23:3:48Z</time></trkpt>
<trkpt lat="48.899967193604" lon="2.6822848320007"><ele></ele><time>2025-5-16T23:3:51Z</time></trkpt>
<trkpt lat="48.899967193604" lon="2.6822848320007"><ele></ele><time>2025-5-16T23:3:54Z</time></trkpt>
<trkpt lat="48.899925231934" lon="2.6824200153351"><ele></ele><time>2025-5-16T23:3:57Z</time></trkpt>
<trkpt lat="48.899925231934" lon="2.6824200153351"><ele></ele><time>2025-5-16T23:4:0Z</time></trkpt>
<trkpt lat="48.899890899658" lon="2.6824789047241"><ele></ele><time>2025-5-16T23:4:3Z</time></trkpt>
<trkpt lat="48.89986038208" lon="2.6825308799744"><ele></ele><time>2025-5-16T23:4:6Z</time></trkpt>
<trkpt lat="48.899826049805" lon="2.6825823783875"><ele></ele><time>2025-5-16T23:4:9Z</time></trkpt>
<trkpt lat="48.899787902832" lon="2.6826341152191"><ele></ele><time>2025-5-16T23:4:12Z</time></trkpt>
<trkpt lat="48.899753570557" lon="2.6826872825623"><ele></ele><time>2025-5-16T23:4:15Z</time></trkpt>
<trkpt lat="48.899677276611" lon="2.6828095912933"><ele></ele><time>2025-5-16T23:4:18Z</time></trkpt>
<trkpt lat="48.89962387085" lon="2.6828842163086"><ele></ele><time>2025-5-16T23:4:21Z</time></trkpt>
<trkpt lat="48.899570465088" lon="2.6829586029053"><ele></ele><time>2025-5-16T23:4:24Z</time></trkpt>
<trkpt lat="48.899520874023" lon="2.6830368041992"><ele></ele><time>2025-5-16T23:4:27Z</time></trkpt>
<trkpt lat="48.899463653564" lon="2.6831088066101"><ele></ele><time>2025-5-16T23:4:30Z</time></trkpt>
<trkpt lat="48.899402618408" lon="2.6831758022308"><ele></ele><time>2025-5-16T23:4:33Z</time></trkpt>
<trkpt lat="48.899356842041" lon="2.6832592487335"><ele></ele><time>2025-5-16T23:4:36Z</time></trkpt>
<trkpt lat="48.899307250977" lon="2.6833372116089"><ele></ele><time>2025-5-16T23:4:39Z</time></trkpt>
<trkpt lat="48.899269104004" lon="2.683429479599"><ele></ele><time>2025-5-16T23:4:42Z</time></trkpt>
<trkpt lat="48.899238586426" lon="2.683531999588"><ele></ele><time>2025-5-16T23:4:45Z</time></trkpt>
<trkpt lat="48.899196624756" lon="2.6836564540863"><ele></ele><time>2025-5-16T23:4:48Z</time></trkpt>
<trkpt lat="48.899169921875" lon="2.6837780475616"><ele></ele><time>2025-5-16T23:4:51Z</time></trkpt>
<trkpt lat="48.899120330811" lon="2.6839826107025"><ele></ele><time>2025-5-16T23:4:54Z</time></trkpt>
<trkpt lat="48.899097442627" lon="2.684077501297"><ele></ele><time>2025-5-16T23:4:57Z</time></trkpt>
<trkpt lat="48.899089813232" lon="2.6841669082642"><ele></ele><time>2025-5-16T23:5:0Z</time></trkpt>
<trkpt lat="48.89909362793" lon="2.6842663288116"><ele></ele><time>2025-5-16T23:5:3Z</time></trkpt>
<trkpt lat="48.899085998535" lon="2.6843769550323"><ele></ele><time>2025-5-16T23:5:6Z</time></trkpt>
<trkpt lat="48.899066925049" lon="2.6845064163208"><ele></ele><time>2025-5-16T23:5:9Z</time></trkpt>
<trkpt lat="48.899047851562" lon="2.6846330165863"><ele></ele><time>2025-5-16T23:5:12Z</time></trkpt>
<trkpt lat="48.899036407471" lon="2.6847367286682"><ele></ele><time>2025-5-16T23:5:15Z</time></trkpt>
<trkpt lat="48.899024963379" lon="2.6848468780518"><ele></ele><time>2025-5-16T23:5:18Z</time></trkpt>
<trkpt lat="48.899021148682" lon="2.6849579811096"><ele></ele><time>2025-5-16T23:5:21Z</time></trkpt>
<trkpt lat="48.899021148682" lon="2.6849579811096"><ele></ele><time>2025-5-16T23:5:24Z</time></trkpt>
<trkpt lat="48.899013519287" lon="2.6850757598877"><ele></ele><time>2025-5-16T23:5:27Z</time></trkpt>
<trkpt lat="48.89900970459" lon="2.6851918697357"><ele></ele><time>2025-5-16T23:5:30Z</time></trkpt>
<trkpt lat="48.899002075195" lon="2.6853003501892"><ele></ele><time>2025-5-16T23:5:33Z</time></trkpt>
<trkpt lat="48.899005889893" lon="2.6853926181793"><ele></ele><time>2025-5-16T23:5:36Z</time></trkpt>
<trkpt lat="48.899005889893" lon="2.6853926181793"><ele></ele><time>2025-5-16T23:5:39Z</time></trkpt>
<trkpt lat="48.898994445801" lon="2.6856215000153"><ele></ele><time>2025-5-16T23:5:42Z</time></trkpt>
<trkpt lat="48.898975372314" lon="2.6857795715332"><ele></ele><time>2025-5-16T23:5:45Z</time></trkpt>
<trkpt lat="48.89896774292" lon="2.6859135627747"><ele></ele><time>2025-5-16T23:5:48Z</time></trkpt>
<trkpt lat="48.898960113525" lon="2.6861615180969"><ele></ele><time>2025-5-16T23:5:51Z</time></trkpt>
<trkpt lat="48.898979187012" lon="2.6862857341766"><ele></ele><time>2025-5-16T23:5:54Z</time></trkpt>
<trkpt lat="48.899024963379" lon="2.6864113807678"><ele></ele><time>2025-5-16T23:5:57Z</time></trkpt>
<trkpt lat="48.899066925049" lon="2.6865246295929"><ele></ele><time>2025-5-16T23:6:0Z</time></trkpt>
<trkpt lat="48.899070739746" lon="2.6866545677185"><ele></ele><time>2025-5-16T23:6:3Z</time></trkpt>
<trkpt lat="48.899059295654" lon="2.6867964267731"><ele></ele><time>2025-5-16T23:6:6Z</time></trkpt>
<trkpt lat="48.899066925049" lon="2.6869792938232"><ele></ele><time>2025-5-16T23:6:9Z</time></trkpt>
<trkpt lat="48.899089813232" lon="2.6871302127838"><ele></ele><time>2025-5-16T23:6:12Z</time></trkpt>
<trkpt lat="48.899112701416" lon="2.6874167919159"><ele></ele><time>2025-5-16T23:6:15Z</time></trkpt>
<trkpt lat="48.899185180664" lon="2.6877918243408"><ele></ele><time>2025-5-16T23:6:18Z</time></trkpt>
<trkpt lat="48.899188995361" lon="2.6879942417145"><ele></ele><time>2025-5-16T23:6:21Z</time></trkpt>
<trkpt lat="48.899188995361" lon="2.6879942417145"><ele></ele><time>2025-5-16T23:6:24Z</time></trkpt>
<trkpt lat="48.899188995361" lon="2.6882147789001"><ele></ele><time>2025-5-16T23:6:27Z</time></trkpt>
<trkpt lat="48.899196624756" lon="2.6883771419525"><ele></ele><time>2025-5-16T23:6:30Z</time></trkpt>
<trkpt lat="48.899230957031" lon="2.6887242794037"><ele></ele><time>2025-5-16T23:6:33Z</time></trkpt>
<trkpt lat="48.899230957031" lon="2.6887242794037"><ele></ele><time>2025-5-16T23:6:36Z</time></trkpt>
<trkpt lat="48.899230957031" lon="2.6887242794037"><ele></ele><time>2025-5-16T23:6:39Z</time></trkpt>
<trkpt lat="48.899219512939" lon="2.6889336109161"><ele></ele><time>2025-5-16T23:6:42Z</time></trkpt>
<trkpt lat="48.899234771729" lon="2.6890711784363"><ele></ele><time>2025-5-16T23:6:45Z</time></trkpt>
<trkpt lat="48.899238586426" lon="2.6891720294952"><ele></ele><time>2025-5-16T23:6:48Z</time></trkpt>
<trkpt lat="48.899238586426" lon="2.6891720294952"><ele></ele><time>2025-5-16T23:6:51Z</time></trkpt>
<trkpt lat="48.899238586426" lon="2.6891720294952"><ele></ele><time>2025-5-16T23:6:54Z</time></trkpt>
<trkpt lat="48.89924621582" lon="2.6892921924591"><ele></ele><time>2025-5-16T23:6:57Z</time></trkpt>
<trkpt lat="48.89924621582" lon="2.6892921924591"><ele></ele><time>2025-5-16T23:7:0Z</time></trkpt>
<trkpt lat="48.89924621582" lon="2.6894779205322"><ele></ele><time>2025-5-16T23:7:3Z</time></trkpt>
<trkpt lat="48.89924621582" lon="2.6895701885223"><ele></ele><time>2025-5-16T23:7:6Z</time></trkpt>
<trkpt lat="48.899269104004" lon="2.6897494792938"><ele></ele><time>2025-5-16T23:7:9Z</time></trkpt>
<trkpt lat="48.899314880371" lon="2.6898798942566"><ele></ele><time>2025-5-16T23:7:12Z</time></trkpt>
<trkpt lat="48.899314880371" lon="2.6898798942566"><ele></ele><time>2025-5-16T23:7:15Z</time></trkpt>
<trkpt lat="48.89933013916" lon="2.6900088787079"><ele></ele><time>2025-5-16T23:7:18Z</time></trkpt>
<trkpt lat="48.89933013916" lon="2.6900088787079"><ele></ele><time>2025-5-16T23:7:21Z</time></trkpt>
<trkpt lat="48.899349212646" lon="2.6900959014893"><ele></ele><time>2025-5-16T23:7:24Z</time></trkpt>
<trkpt lat="48.899349212646" lon="2.6900959014893"><ele></ele><time>2025-5-16T23:7:27Z</time></trkpt>
<trkpt lat="48.899349212646" lon="2.6900959014893"><ele></ele><time>2025-5-16T23:7:30Z</time></trkpt>
<trkpt lat="48.899349212646" lon="2.6900959014893"><ele></ele><time>2025-5-16T23:7:33Z</time></trkpt>
<trkpt lat="48.89933013916" lon="2.6901807785034"><ele></ele><time>2025-5-16T23:7:36Z</time></trkpt>
<trkpt lat="48.89933013916" lon="2.6901807785034"><ele></ele><time>2025-5-16T23:7:39Z</time></trkpt>
<trkpt lat="48.89933013916" lon="2.6901807785034"><ele></ele><time>2025-5-16T23:7:42Z</time></trkpt>
<trkpt lat="48.89933013916" lon="2.6901807785034"><ele></ele><time>2025-5-16T23:7:45Z</time></trkpt>
<trkpt lat="48.89933013916" lon="2.6902983188629"><ele></ele><time>2025-5-16T23:7:48Z</time></trkpt>
<trkpt lat="48.899364471436" lon="2.6904361248016"><ele></ele><time>2025-5-16T23:7:51Z</time></trkpt>
<trkpt lat="48.899364471436" lon="2.6904361248016"><ele></ele><time>2025-5-16T23:7:54Z</time></trkpt>
<trkpt lat="48.899429321289" lon="2.6906599998474"><ele></ele><time>2025-5-16T23:7:57Z</time></trkpt>
<trkpt lat="48.899482727051" lon="2.6908173561096"><ele></ele><time>2025-5-16T23:8:0Z</time></trkpt>
<trkpt lat="48.899528503418" lon="2.6910412311554"><ele></ele><time>2025-5-16T23:8:3Z</time></trkpt>
<trkpt lat="48.899585723877" lon="2.6913681030273"><ele></ele><time>2025-5-16T23:8:6Z</time></trkpt>
<trkpt lat="48.899585723877" lon="2.6913681030273"><ele></ele><time>2025-5-16T23:8:9Z</time></trkpt>
<trkpt lat="48.899597167969" lon="2.6914575099945"><ele></ele><time>2025-5-16T23:8:12Z</time></trkpt>
<trkpt lat="48.899597167969" lon="2.6914575099945"><ele></ele><time>2025-5-16T23:8:15Z</time></trkpt>
<trkpt lat="48.899597167969" lon="2.6914575099945"><ele></ele><time>2025-5-16T23:8:18Z</time></trkpt>
<trkpt lat="48.899620056152" lon="2.6916239261627"><ele></ele><time>2025-5-16T23:8:21Z</time></trkpt>
<trkpt lat="48.899669647217" lon="2.6918785572052"><ele></ele><time>2025-5-16T23:8:24Z</time></trkpt>
<trkpt lat="48.8996925354" lon="2.6920130252838"><ele></ele><time>2025-5-16T23:8:27Z</time></trkpt>
<trkpt lat="48.899703979492" lon="2.6921653747559"><ele></ele><time>2025-5-16T23:8:30Z</time></trkpt>
<trkpt lat="48.899703979492" lon="2.6921653747559"><ele></ele><time>2025-5-16T23:8:33Z</time></trkpt>
<trkpt lat="48.899768829346" lon="2.6924841403961"><ele></ele><time>2025-5-16T23:8:36Z</time></trkpt>
<trkpt lat="48.899822235107" lon="2.6926872730255"><ele></ele><time>2025-5-16T23:8:39Z</time></trkpt>
<trkpt lat="48.899822235107" lon="2.6926872730255"><ele></ele><time>2025-5-16T23:8:42Z</time></trkpt>
<trkpt lat="48.899871826172" lon="2.6928780078888"><ele></ele><time>2025-5-16T23:8:45Z</time></trkpt>
<trkpt lat="48.899871826172" lon="2.6928780078888"><ele></ele><time>2025-5-16T23:8:48Z</time></trkpt>
<trkpt lat="48.899875640869" lon="2.6929786205292"><ele></ele><time>2025-5-16T23:8:51Z</time></trkpt>
<trkpt lat="48.899875640869" lon="2.6929786205292"><ele></ele><time>2025-5-16T23:8:54Z</time></trkpt>
<trkpt lat="48.899875640869" lon="2.6929786205292"><ele></ele><time>2025-5-16T23:8:57Z</time></trkpt>
<trkpt lat="48.899787902832" lon="2.6929876804352"><ele></ele><time>2025-5-16T23:9:0Z</time></trkpt>
<trkpt lat="48.899715423584" lon="2.6929833889008"><ele></ele><time>2025-5-16T23:9:3Z</time></trkpt>
<trkpt lat="48.899715423584" lon="2.6929833889008"><ele></ele><time>2025-5-16T23:9:6Z</time></trkpt>
<trkpt lat="48.899642944336" lon="2.692994594574"><ele></ele><time>2025-5-16T23:9:9Z</time></trkpt>
<trkpt lat="48.899585723877" lon="2.6929979324341"><ele></ele><time>2025-5-16T23:9:12Z</time></trkpt>
<trkpt lat="48.899524688721" lon="2.6929874420166"><ele></ele><time>2025-5-16T23:9:15Z</time></trkpt>
<trkpt lat="48.899524688721" lon="2.6929874420166"><ele></ele><time>2025-5-16T23:9:18Z</time></trkpt>
<trkpt lat="48.899452209473" lon="2.6929965019226"><ele></ele><time>2025-5-16T23:9:21Z</time></trkpt>
<trkpt lat="48.899383544922" lon="2.6929898262024"><ele></ele><time>2025-5-16T23:9:24Z</time></trkpt>
<trkpt lat="48.899311065674" lon="2.6929769515991"><ele></ele><time>2025-5-16T23:9:27Z</time></trkpt>
<trkpt lat="48.899311065674" lon="2.6929769515991"><ele></ele><time>2025-5-16T23:9:30Z</time></trkpt>
<trkpt lat="48.899230957031" lon="2.6929647922516"><ele></ele><time>2025-5-16T23:9:33Z</time></trkpt>
<trkpt lat="48.899139404297" lon="2.6929538249969"><ele></ele><time>2025-5-16T23:9:36Z</time></trkpt>
<trkpt lat="48.89905166626" lon="2.6929585933685"><ele></ele><time>2025-5-16T23:9:39Z</time></trkpt>
<trkpt lat="48.89905166626" lon="2.6929585933685"><ele></ele><time>2025-5-16T23:9:42Z</time></trkpt>
<trkpt lat="48.898971557617" lon="2.6929545402527"><ele></ele><time>2025-5-16T23:9:45Z</time></trkpt>
<trkpt lat="48.898887634277" lon="2.6929528713226"><ele></ele><time>2025-5-16T23:9:48Z</time></trkpt>
<trkpt lat="48.898815155029" lon="2.6929709911346"><ele></ele><time>2025-5-16T23:9:51Z</time></trkpt>
<trkpt lat="48.898815155029" lon="2.6929709911346"><ele></ele><time>2025-5-16T23:9:54Z</time></trkpt>
<trkpt lat="48.898731231689" lon="2.6929802894592"><ele></ele><time>2025-5-16T23:9:57Z</time></trkpt>
<trkpt lat="48.898632049561" lon="2.6929926872253"><ele></ele><time>2025-5-16T23:10:0Z</time></trkpt>
<trkpt lat="48.898532867432" lon="2.692994594574"><ele></ele><time>2025-5-16T23:10:3Z</time></trkpt>
<trkpt lat="48.898532867432" lon="2.692994594574"><ele></ele><time>2025-5-16T23:10:6Z</time></trkpt>
<trkpt lat="48.898445129395" lon="2.6930031776428"><ele></ele><time>2025-5-16T23:10:9Z</time></trkpt>
<trkpt lat="48.898361206055" lon="2.6930165290833"><ele></ele><time>2025-5-16T23:10:12Z</time></trkpt>
<trkpt lat="48.898281097412" lon="2.693026304245"><ele></ele><time>2025-5-16T23:10:15Z</time></trkpt>
<trkpt lat="48.898281097412" lon="2.693026304245"><ele></ele><time>2025-5-16T23:10:18Z</time></trkpt>
<trkpt lat="48.898208618164" lon="2.6930272579193"><ele></ele><time>2025-5-16T23:10:21Z</time></trkpt>
<trkpt lat="48.898143768311" lon="2.6930341720581"><ele></ele><time>2025-5-16T23:10:24Z</time></trkpt>
<trkpt lat="48.898063659668" lon="2.6930403709412"><ele></ele><time>2025-5-16T23:10:27Z</time></trkpt>
<trkpt lat="48.898063659668" lon="2.6930403709412"><ele></ele><time>2025-5-16T23:10:30Z</time></trkpt>
<trkpt lat="48.897979736328" lon="2.6930434703827"><ele></ele><time>2025-5-16T23:10:33Z</time></trkpt>
<trkpt lat="48.897903442383" lon="2.6930494308472"><ele></ele><time>2025-5-16T23:10:36Z</time></trkpt>
<trkpt lat="48.897838592529" lon="2.6930637359619"><ele></ele><time>2025-5-16T23:10:39Z</time></trkpt>
<trkpt lat="48.897838592529" lon="2.6930637359619"><ele></ele><time>2025-5-16T23:10:42Z</time></trkpt>
<trkpt lat="48.897762298584" lon="2.6930682659149"><ele></ele><time>2025-5-16T23:10:45Z</time></trkpt>
<trkpt lat="48.897674560547" lon="2.6930694580078"><ele></ele><time>2025-5-16T23:10:48Z</time></trkpt>
<trkpt lat="48.897674560547" lon="2.6930694580078"><ele></ele><time>2025-5-16T23:10:51Z</time></trkpt>
<trkpt lat="48.897457122803" lon="2.6930909156799"><ele></ele><time>2025-5-16T23:10:54Z</time></trkpt>
<trkpt lat="48.89737701416" lon="2.6931006908417"><ele></ele><time>2025-5-16T23:10:57Z</time></trkpt>
<trkpt lat="48.897312164307" lon="2.6931114196777"><ele></ele><time>2025-5-16T23:11:0Z</time></trkpt>
<trkpt lat="48.897243499756" lon="2.6931114196777"><ele></ele><time>2025-5-16T23:11:3Z</time></trkpt>
<trkpt lat="48.897243499756" lon="2.6931114196777"><ele></ele><time>2025-5-16T23:11:6Z</time></trkpt>
<trkpt lat="48.897243499756" lon="2.6931114196777"><ele></ele><time>2025-5-16T23:11:9Z</time></trkpt>
<trkpt lat="48.897243499756" lon="2.6931114196777"><ele></ele><time>2025-5-16T23:11:12Z</time></trkpt>
<trkpt lat="48.897148132324" lon="2.693172454834"><ele></ele><time>2025-5-16T23:11:15Z</time></trkpt>
<trkpt lat="48.897052764893" lon="2.6931869983673"><ele></ele><time>2025-5-16T23:11:18Z</time></trkpt>
<trkpt lat="48.896934509277" lon="2.6932103633881"><ele></ele><time>2025-5-16T23:11:21Z</time></trkpt>
<trkpt lat="48.896862030029" lon="2.6932237148285"><ele></ele><time>2025-5-16T23:11:24Z</time></trkpt>
<trkpt lat="48.896793365479" lon="2.6932277679443"><ele></ele><time>2025-5-16T23:11:27Z</time></trkpt>
<trkpt lat="48.896793365479" lon="2.6932277679443"><ele></ele><time>2025-5-16T23:11:30Z</time></trkpt>
<trkpt lat="48.89673614502" lon="2.6932420730591"><ele></ele><time>2025-5-16T23:11:33Z</time></trkpt>
<trkpt lat="48.896678924561" lon="2.6932508945465"><ele></ele><time>2025-5-16T23:11:36Z</time></trkpt>
<trkpt lat="48.896614074707" lon="2.6932661533356"><ele></ele><time>2025-5-16T23:11:39Z</time></trkpt>
<trkpt lat="48.896541595459" lon="2.6932864189148"><ele></ele><time>2025-5-16T23:11:42Z</time></trkpt>
<trkpt lat="48.896480560303" lon="2.6933009624481"><ele></ele><time>2025-5-16T23:11:45Z</time></trkpt>
<trkpt lat="48.896480560303" lon="2.6933009624481"><ele></ele><time>2025-5-16T23:11:48Z</time></trkpt>
<trkpt lat="48.896362304688" lon="2.6933169364929"><ele></ele><time>2025-5-16T23:11:51Z</time></trkpt>
<trkpt lat="48.896305084229" lon="2.6933219432831"><ele></ele><time>2025-5-16T23:11:54Z</time></trkpt>
<trkpt lat="48.896305084229" lon="2.6933219432831"><ele></ele><time>2025-5-16T23:11:57Z</time></trkpt>
<trkpt lat="48.896198272705" lon="2.6933288574219"><ele></ele><time>2025-5-16T23:12:0Z</time></trkpt>
<trkpt lat="48.896198272705" lon="2.6933288574219"><ele></ele><time>2025-5-16T23:12:3Z</time></trkpt>
<trkpt lat="48.896083831787" lon="2.6933329105377"><ele></ele><time>2025-5-16T23:12:6Z</time></trkpt>
<trkpt lat="48.896022796631" lon="2.6933426856995"><ele></ele><time>2025-5-16T23:12:9Z</time></trkpt>
<trkpt lat="48.895957946777" lon="2.6933405399323"><ele></ele><time>2025-5-16T23:12:12Z</time></trkpt>
<trkpt lat="48.895957946777" lon="2.6933405399323"><ele></ele><time>2025-5-16T23:12:15Z</time></trkpt>
<trkpt lat="48.895843505859" lon="2.693347454071"><ele></ele><time>2025-5-16T23:12:18Z</time></trkpt>
<trkpt lat="48.895782470703" lon="2.6933562755585"><ele></ele><time>2025-5-16T23:12:21Z</time></trkpt>
<trkpt lat="48.895782470703" lon="2.6933562755585"><ele></ele><time>2025-5-16T23:12:24Z</time></trkpt>
<trkpt lat="48.89571762085" lon="2.6933703422546"><ele></ele><time>2025-5-16T23:12:27Z</time></trkpt>
<trkpt lat="48.895652770996" lon="2.6933846473694"><ele></ele><time>2025-5-16T23:12:30Z</time></trkpt>
<trkpt lat="48.895584106445" lon="2.6934039592743"><ele></ele><time>2025-5-16T23:12:33Z</time></trkpt>
<trkpt lat="48.895584106445" lon="2.6934039592743"><ele></ele><time>2025-5-16T23:12:36Z</time></trkpt>
<trkpt lat="48.895515441895" lon="2.6934230327606"><ele></ele><time>2025-5-16T23:12:39Z</time></trkpt>
<trkpt lat="48.895435333252" lon="2.6934564113617"><ele></ele><time>2025-5-16T23:12:42Z</time></trkpt>
<trkpt lat="48.895355224609" lon="2.6934909820557"><ele></ele><time>2025-5-16T23:12:45Z</time></trkpt>
<trkpt lat="48.895355224609" lon="2.6934909820557"><ele></ele><time>2025-5-16T23:12:48Z</time></trkpt>
<trkpt lat="48.895275115967" lon="2.6935307979584"><ele></ele><time>2025-5-16T23:12:51Z</time></trkpt>
<trkpt lat="48.895195007324" lon="2.6935749053955"><ele></ele><time>2025-5-16T23:12:54Z</time></trkpt>
<trkpt lat="48.895114898682" lon="2.6936156749725"><ele></ele><time>2025-5-16T23:12:57Z</time></trkpt>
<trkpt lat="48.895114898682" lon="2.6936156749725"><ele></ele><time>2025-5-16T23:13:0Z</time></trkpt>
<trkpt lat="48.895027160645" lon="2.6936633586884"><ele></ele><time>2025-5-16T23:13:3Z</time></trkpt>
<trkpt lat="48.894943237305" lon="2.6937177181244"><ele></ele><time>2025-5-16T23:13:6Z</time></trkpt>
<trkpt lat="48.894859313965" lon="2.6937749385834"><ele></ele><time>2025-5-16T23:13:9Z</time></trkpt>
<trkpt lat="48.894859313965" lon="2.6937749385834"><ele></ele><time>2025-5-16T23:13:12Z</time></trkpt>
<trkpt lat="48.894779205322" lon="2.6938314437866"><ele></ele><time>2025-5-16T23:13:15Z</time></trkpt>
<trkpt lat="48.894691467285" lon="2.693886756897"><ele></ele><time>2025-5-16T23:13:18Z</time></trkpt>
<trkpt lat="48.894599914551" lon="2.6939473152161"><ele></ele><time>2025-5-16T23:13:21Z</time></trkpt>
<trkpt lat="48.894599914551" lon="2.6939473152161"><ele></ele><time>2025-5-16T23:13:24Z</time></trkpt>
<trkpt lat="48.894512176514" lon="2.6940014362335"><ele></ele><time>2025-5-16T23:13:27Z</time></trkpt>
<trkpt lat="48.894416809082" lon="2.6940569877625"><ele></ele><time>2025-5-16T23:13:30Z</time></trkpt>
<trkpt lat="48.894313812256" lon="2.6941132545471"><ele></ele><time>2025-5-16T23:13:33Z</time></trkpt>
<trkpt lat="48.894313812256" lon="2.6941132545471"><ele></ele><time>2025-5-16T23:13:36Z</time></trkpt>
<trkpt lat="48.89421081543" lon="2.69415974617"><ele></ele><time>2025-5-16T23:13:39Z</time></trkpt>
<trkpt lat="48.894115447998" lon="2.6942086219788"><ele></ele><time>2025-5-16T23:13:42Z</time></trkpt>
<trkpt lat="48.894023895264" lon="2.6942708492279"><ele></ele><time>2025-5-16T23:13:45Z</time></trkpt>
<trkpt lat="48.894023895264" lon="2.6942708492279"><ele></ele><time>2025-5-16T23:13:48Z</time></trkpt>
<trkpt lat="48.893928527832" lon="2.6943221092224"><ele></ele><time>2025-5-16T23:13:51Z</time></trkpt>
<trkpt lat="48.8938331604" lon="2.6943645477295"><ele></ele><time>2025-5-16T23:13:54Z</time></trkpt>
<trkpt lat="48.893730163574" lon="2.6944162845612"><ele></ele><time>2025-5-16T23:13:57Z</time></trkpt>
<trkpt lat="48.893730163574" lon="2.6944162845612"><ele></ele><time>2025-5-16T23:14:0Z</time></trkpt>
<trkpt lat="48.893627166748" lon="2.6944665908813"><ele></ele><time>2025-5-16T23:14:3Z</time></trkpt>
<trkpt lat="48.893524169922" lon="2.6945190429688"><ele></ele><time>2025-5-16T23:14:6Z</time></trkpt>
<trkpt lat="48.89342880249" lon="2.6945695877075"><ele></ele><time>2025-5-16T23:14:9Z</time></trkpt>
<trkpt lat="48.89342880249" lon="2.6945695877075"><ele></ele><time>2025-5-16T23:14:12Z</time></trkpt>
<trkpt lat="48.893329620361" lon="2.6946249008179"><ele></ele><time>2025-5-16T23:14:15Z</time></trkpt>
<trkpt lat="48.893226623535" lon="2.694678068161"><ele></ele><time>2025-5-16T23:14:18Z</time></trkpt>
<trkpt lat="48.893119812012" lon="2.6947250366211"><ele></ele><time>2025-5-16T23:14:21Z</time></trkpt>
<trkpt lat="48.893119812012" lon="2.6947250366211"><ele></ele><time>2025-5-16T23:14:24Z</time></trkpt>
<trkpt lat="48.89302444458" lon="2.6947736740112"><ele></ele><time>2025-5-16T23:14:27Z</time></trkpt>
<trkpt lat="48.892932891846" lon="2.6948235034943"><ele></ele><time>2025-5-16T23:14:30Z</time></trkpt>
<trkpt lat="48.892833709717" lon="2.6948816776276"><ele></ele><time>2025-5-16T23:14:33Z</time></trkpt>
<trkpt lat="48.892833709717" lon="2.6948816776276"><ele></ele><time>2025-5-16T23:14:36Z</time></trkpt>
<trkpt lat="48.892730712891" lon="2.6949083805084"><ele></ele><time>2025-5-16T23:14:39Z</time></trkpt>
<trkpt lat="48.892612457275" lon="2.6949398517609"><ele></ele><time>2025-5-16T23:14:42Z</time></trkpt>
<trkpt lat="48.892505645752" lon="2.6949725151062"><ele></ele><time>2025-5-16T23:14:45Z</time></trkpt>
<trkpt lat="48.892505645752" lon="2.6949725151062"><ele></ele><time>2025-5-16T23:14:48Z</time></trkpt>
<trkpt lat="48.892387390137" lon="2.6950089931488"><ele></ele><time>2025-5-16T23:14:51Z</time></trkpt>
<trkpt lat="48.892295837402" lon="2.695051908493"><ele></ele><time>2025-5-16T23:14:54Z</time></trkpt>
<trkpt lat="48.892230987549" lon="2.6950511932373"><ele></ele><time>2025-5-16T23:14:57Z</time></trkpt>
<trkpt lat="48.892230987549" lon="2.6950511932373"><ele></ele><time>2025-5-16T23:15:0Z</time></trkpt>
<trkpt lat="48.892230987549" lon="2.6950511932373"><ele></ele><time>2025-5-16T23:15:3Z</time></trkpt>
<trkpt lat="48.892162322998" lon="2.6949830055237"><ele></ele><time>2025-5-16T23:15:6Z</time></trkpt>
<trkpt lat="48.892162322998" lon="2.6949830055237"><ele></ele><time>2025-5-16T23:15:9Z</time></trkpt>
<trkpt lat="48.892070770264" lon="2.6950664520264"><ele></ele><time>2025-5-16T23:15:12Z</time></trkpt>
<trkpt lat="48.892009735107" lon="2.6951563358307"><ele></ele><time>2025-5-16T23:15:15Z</time></trkpt>
<trkpt lat="48.89196395874" lon="2.6952793598175"><ele></ele><time>2025-5-16T23:15:18Z</time></trkpt>
<trkpt lat="48.89196395874" lon="2.6952793598175"><ele></ele><time>2025-5-16T23:15:21Z</time></trkpt>
<trkpt lat="48.891918182373" lon="2.6954140663147"><ele></ele><time>2025-5-16T23:15:24Z</time></trkpt>
<trkpt lat="48.891876220703" lon="2.6955585479736"><ele></ele><time>2025-5-16T23:15:27Z</time></trkpt>
<trkpt lat="48.89183807373" lon="2.6957113742828"><ele></ele><time>2025-5-16T23:15:30Z</time></trkpt>
<trkpt lat="48.89183807373" lon="2.6957113742828"><ele></ele><time>2025-5-16T23:15:33Z</time></trkpt>
<trkpt lat="48.891807556152" lon="2.695835351944"><ele></ele><time>2025-5-16T23:15:36Z</time></trkpt>
<trkpt lat="48.891735076904" lon="2.6958968639374"><ele></ele><time>2025-5-16T23:15:39Z</time></trkpt>
<trkpt lat="48.891658782959" lon="2.6959059238434"><ele></ele><time>2025-5-16T23:15:42Z</time></trkpt>
<trkpt lat="48.891658782959" lon="2.6959059238434"><ele></ele><time>2025-5-16T23:15:45Z</time></trkpt>
<trkpt lat="48.891571044922" lon="2.6959118843079"><ele></ele><time>2025-5-16T23:15:48Z</time></trkpt>
<trkpt lat="48.891468048096" lon="2.6958990097046"><ele></ele><time>2025-5-16T23:15:51Z</time></trkpt>
<trkpt lat="48.891380310059" lon="2.6958749294281"><ele></ele><time>2025-5-16T23:15:54Z</time></trkpt>
<trkpt lat="48.891380310059" lon="2.6958749294281"><ele></ele><time>2025-5-16T23:15:57Z</time></trkpt>
<trkpt lat="48.891273498535" lon="2.6958518028259"><ele></ele><time>2025-5-16T23:16:0Z</time></trkpt>
<trkpt lat="48.891143798828" lon="2.6958305835724"><ele></ele><time>2025-5-16T23:16:3Z</time></trkpt>
<trkpt lat="48.891010284424" lon="2.6958129405975"><ele></ele><time>2025-5-16T23:16:6Z</time></trkpt>
<trkpt lat="48.891010284424" lon="2.6958129405975"><ele></ele><time>2025-5-16T23:16:9Z</time></trkpt>
<trkpt lat="48.890872955322" lon="2.6957886219025"><ele></ele><time>2025-5-16T23:16:12Z</time></trkpt>
<trkpt lat="48.890724182129" lon="2.6957581043243"><ele></ele><time>2025-5-16T23:16:15Z</time></trkpt>
<trkpt lat="48.890567779541" lon="2.6957106590271"><ele></ele><time>2025-5-16T23:16:18Z</time></trkpt>
<trkpt lat="48.890403747559" lon="2.6956396102905"><ele></ele><time>2025-5-16T23:16:21Z</time></trkpt>
<trkpt lat="48.890239715576" lon="2.6955561637878"><ele></ele><time>2025-5-16T23:16:24Z</time></trkpt>
<trkpt lat="48.890239715576" lon="2.6955561637878"><ele></ele><time>2025-5-16T23:16:27Z</time></trkpt>
<trkpt lat="48.890064239502" lon="2.6954636573792"><ele></ele><time>2025-5-16T23:16:30Z</time></trkpt>
<trkpt lat="48.889888763428" lon="2.695369720459"><ele></ele><time>2025-5-16T23:16:33Z</time></trkpt>
<trkpt lat="48.889694213867" lon="2.6952700614929"><ele></ele><time>2025-5-16T23:16:36Z</time></trkpt>
<trkpt lat="48.889694213867" lon="2.6952700614929"><ele></ele><time>2025-5-16T23:16:39Z</time></trkpt>
<trkpt lat="48.889526367188" lon="2.6951761245728"><ele></ele><time>2025-5-16T23:16:42Z</time></trkpt>
<trkpt lat="48.8893699646" lon="2.6950843334198"><ele></ele><time>2025-5-16T23:16:45Z</time></trkpt>
<trkpt lat="48.889213562012" lon="2.6949951648712"><ele></ele><time>2025-5-16T23:16:48Z</time></trkpt>
<trkpt lat="48.889213562012" lon="2.6949951648712"><ele></ele><time>2025-5-16T23:16:51Z</time></trkpt>
<trkpt lat="48.889057159424" lon="2.6948959827423"><ele></ele><time>2025-5-16T23:16:54Z</time></trkpt>
<trkpt lat="48.888893127441" lon="2.6947884559631"><ele></ele><time>2025-5-16T23:16:57Z</time></trkpt>
<trkpt lat="48.888717651367" lon="2.6946620941162"><ele></ele><time>2025-5-16T23:17:0Z</time></trkpt>
<trkpt lat="48.888717651367" lon="2.6946620941162"><ele></ele><time>2025-5-16T23:17:3Z</time></trkpt>
<trkpt lat="48.888565063477" lon="2.6945345401764"><ele></ele><time>2025-5-16T23:17:6Z</time></trkpt>
<trkpt lat="48.888408660889" lon="2.6943790912628"><ele></ele><time>2025-5-16T23:17:9Z</time></trkpt>
<trkpt lat="48.888252258301" lon="2.6942069530487"><ele></ele><time>2025-5-16T23:17:12Z</time></trkpt>
<trkpt lat="48.888252258301" lon="2.6942069530487"><ele></ele><time>2025-5-16T23:17:15Z</time></trkpt>
<trkpt lat="48.888118743896" lon="2.6940324306488"><ele></ele><time>2025-5-16T23:17:18Z</time></trkpt>
<trkpt lat="48.887992858887" lon="2.6938548088074"><ele></ele><time>2025-5-16T23:17:21Z</time></trkpt>
<trkpt lat="48.887874603271" lon="2.6936721801758"><ele></ele><time>2025-5-16T23:17:24Z</time></trkpt>
<trkpt lat="48.887874603271" lon="2.6936721801758"><ele></ele><time>2025-5-16T23:17:27Z</time></trkpt>
<trkpt lat="48.887783050537" lon="2.6935338973999"><ele></ele><time>2025-5-16T23:17:30Z</time></trkpt>
<trkpt lat="48.887706756592" lon="2.6934549808502"><ele></ele><time>2025-5-16T23:17:33Z</time></trkpt>
<trkpt lat="48.887706756592" lon="2.6934549808502"><ele></ele><time>2025-5-16T23:17:36Z</time></trkpt>
<trkpt lat="48.887641906738" lon="2.6934044361115"><ele></ele><time>2025-5-16T23:17:39Z</time></trkpt>
<trkpt lat="48.887641906738" lon="2.6934044361115"><ele></ele><time>2025-5-16T23:17:42Z</time></trkpt>
<trkpt lat="48.887641906738" lon="2.6934044361115"><ele></ele><time>2025-5-16T23:17:45Z</time></trkpt>
<trkpt lat="48.887641906738" lon="2.6934044361115"><ele></ele><time>2025-5-16T23:17:48Z</time></trkpt>
<trkpt lat="48.887641906738" lon="2.6934044361115"><ele></ele><time>2025-5-16T23:17:51Z</time></trkpt>
<trkpt lat="48.887691497803" lon="2.6933267116547"><ele></ele><time>2025-5-16T23:17:54Z</time></trkpt>
<trkpt lat="48.887691497803" lon="2.6933267116547"><ele></ele><time>2025-5-16T23:17:57Z</time></trkpt>
<trkpt lat="48.887722015381" lon="2.6932551860809"><ele></ele><time>2025-5-16T23:18:0Z</time></trkpt>
<trkpt lat="48.887722015381" lon="2.6932551860809"><ele></ele><time>2025-5-16T23:18:3Z</time></trkpt>
<trkpt lat="48.88777923584" lon="2.6931631565094"><ele></ele><time>2025-5-16T23:18:6Z</time></trkpt>
<trkpt lat="48.887851715088" lon="2.6931209564209"><ele></ele><time>2025-5-16T23:18:9Z</time></trkpt>
<trkpt lat="48.887851715088" lon="2.6931209564209"><ele></ele><time>2025-5-16T23:18:12Z</time></trkpt>
<trkpt lat="48.887908935547" lon="2.6929914951324"><ele></ele><time>2025-5-16T23:18:15Z</time></trkpt>
<trkpt lat="48.887908935547" lon="2.6929914951324"><ele></ele><time>2025-5-16T23:18:18Z</time></trkpt>
<trkpt lat="48.887908935547" lon="2.6929914951324"><ele></ele><time>2025-5-16T23:18:21Z</time></trkpt>
<trkpt lat="48.888038635254" lon="2.6928598880768"><ele></ele><time>2025-5-16T23:18:24Z</time></trkpt>
<trkpt lat="48.888038635254" lon="2.6928598880768"><ele></ele><time>2025-5-16T23:18:27Z</time></trkpt>
<trkpt lat="48.888095855713" lon="2.69278216362"><ele></ele><time>2025-5-16T23:18:30Z</time></trkpt>
<trkpt lat="48.888095855713" lon="2.69278216362"><ele></ele><time>2025-5-16T23:18:33Z</time></trkpt>
<trkpt lat="48.888156890869" lon="2.6927213668823"><ele></ele><time>2025-5-16T23:18:36Z</time></trkpt>
<trkpt lat="48.888156890869" lon="2.6927213668823"><ele></ele><time>2025-5-16T23:18:39Z</time></trkpt>
<trkpt lat="48.888252258301" lon="2.6925666332245"><ele></ele><time>2025-5-16T23:18:42Z</time></trkpt>
<trkpt lat="48.888332366943" lon="2.6924653053284"><ele></ele><time>2025-5-16T23:18:45Z</time></trkpt>
<trkpt lat="48.888385772705" lon="2.6923866271973"><ele></ele><time>2025-5-16T23:18:48Z</time></trkpt>
<trkpt lat="48.888385772705" lon="2.6923866271973"><ele></ele><time>2025-5-16T23:18:51Z</time></trkpt>
<trkpt lat="48.888446807861" lon="2.6923043727875"><ele></ele><time>2025-5-16T23:18:54Z</time></trkpt>
<trkpt lat="48.88850402832" lon="2.6922292709351"><ele></ele><time>2025-5-16T23:18:57Z</time></trkpt>
<trkpt lat="48.888565063477" lon="2.6921479701996"><ele></ele><time>2025-5-16T23:19:0Z</time></trkpt>
<trkpt lat="48.888565063477" lon="2.6921479701996"><ele></ele><time>2025-5-16T23:19:3Z</time></trkpt>
<trkpt lat="48.888626098633" lon="2.6920697689056"><ele></ele><time>2025-5-16T23:19:6Z</time></trkpt>
<trkpt lat="48.888668060303" lon="2.691912651062"><ele></ele><time>2025-5-16T23:19:9Z</time></trkpt>
<trkpt lat="48.888671875" lon="2.6918034553528"><ele></ele><time>2025-5-16T23:19:12Z</time></trkpt>
<trkpt lat="48.888660430908" lon="2.6916880607605"><ele></ele><time>2025-5-16T23:19:15Z</time></trkpt>
<trkpt lat="48.888641357422" lon="2.6915714740753"><ele></ele><time>2025-5-16T23:19:18Z</time></trkpt>
<trkpt lat="48.888622283936" lon="2.6914491653442"><ele></ele><time>2025-5-16T23:19:21Z</time></trkpt>
<trkpt lat="48.888603210449" lon="2.6913344860077"><ele></ele><time>2025-5-16T23:19:24Z</time></trkpt>
<trkpt lat="48.888576507568" lon="2.6912178993225"><ele></ele><time>2025-5-16T23:19:27Z</time></trkpt>
<trkpt lat="48.888542175293" lon="2.6910927295685"><ele></ele><time>2025-5-16T23:19:30Z</time></trkpt>
<trkpt lat="48.888507843018" lon="2.6909358501434"><ele></ele><time>2025-5-16T23:19:33Z</time></trkpt>
<trkpt lat="48.888473510742" lon="2.6908061504364"><ele></ele><time>2025-5-16T23:19:36Z</time></trkpt>
<trkpt lat="48.888431549072" lon="2.6906859874725"><ele></ele><time>2025-5-16T23:19:39Z</time></trkpt>
<trkpt lat="48.888381958008" lon="2.6905527114868"><ele></ele><time>2025-5-16T23:19:42Z</time></trkpt>
<trkpt lat="48.888336181641" lon="2.690408706665"><ele></ele><time>2025-5-16T23:19:45Z</time></trkpt>
<trkpt lat="48.888294219971" lon="2.6902616024017"><ele></ele><time>2025-5-16T23:19:48Z</time></trkpt>
<trkpt lat="48.888259887695" lon="2.6901125907898"><ele></ele><time>2025-5-16T23:19:51Z</time></trkpt>
<trkpt lat="48.88822555542" lon="2.6899611949921"><ele></ele><time>2025-5-16T23:19:54Z</time></trkpt>
<trkpt lat="48.888202667236" lon="2.6898105144501"><ele></ele><time>2025-5-16T23:19:57Z</time></trkpt>
<trkpt lat="48.888175964355" lon="2.6896324157715"><ele></ele><time>2025-5-16T23:20:0Z</time></trkpt>
<trkpt lat="48.888149261475" lon="2.6894574165344"><ele></ele><time>2025-5-16T23:20:3Z</time></trkpt>
<trkpt lat="48.888149261475" lon="2.6894574165344"><ele></ele><time>2025-5-16T23:20:6Z</time></trkpt>
<trkpt lat="48.888118743896" lon="2.6892824172974"><ele></ele><time>2025-5-16T23:20:9Z</time></trkpt>
<trkpt lat="48.888088226318" lon="2.689110994339"><ele></ele><time>2025-5-16T23:20:12Z</time></trkpt>
<trkpt lat="48.888069152832" lon="2.688924074173"><ele></ele><time>2025-5-16T23:20:15Z</time></trkpt>
<trkpt lat="48.888069152832" lon="2.688924074173"><ele></ele><time>2025-5-16T23:20:18Z</time></trkpt>
<trkpt lat="48.88805770874" lon="2.6887543201447"><ele></ele><time>2025-5-16T23:20:21Z</time></trkpt>
<trkpt lat="48.888050079346" lon="2.6885809898376"><ele></ele><time>2025-5-16T23:20:24Z</time></trkpt>
<trkpt lat="48.888046264648" lon="2.6884214878082"><ele></ele><time>2025-5-16T23:20:27Z</time></trkpt>
<trkpt lat="48.888046264648" lon="2.6884214878082"><ele></ele><time>2025-5-16T23:20:30Z</time></trkpt>
<trkpt lat="48.888042449951" lon="2.6882736682892"><ele></ele><time>2025-5-16T23:20:33Z</time></trkpt>
<trkpt lat="48.888034820557" lon="2.6881356239319"><ele></ele><time>2025-5-16T23:20:36Z</time></trkpt>
<trkpt lat="48.888004302979" lon="2.6880054473877"><ele></ele><time>2025-5-16T23:20:39Z</time></trkpt>
<trkpt lat="48.888004302979" lon="2.6880054473877"><ele></ele><time>2025-5-16T23:20:42Z</time></trkpt>
<trkpt lat="48.887935638428" lon="2.6879200935364"><ele></ele><time>2025-5-16T23:20:45Z</time></trkpt>
<trkpt lat="48.887878417969" lon="2.6878170967102"><ele></ele><time>2025-5-16T23:20:48Z</time></trkpt>
<trkpt lat="48.887805938721" lon="2.6877746582031"><ele></ele><time>2025-5-16T23:20:51Z</time></trkpt>
<trkpt lat="48.887805938721" lon="2.6877746582031"><ele></ele><time>2025-5-16T23:20:54Z</time></trkpt>
<trkpt lat="48.887722015381" lon="2.6877717971802"><ele></ele><time>2025-5-16T23:20:57Z</time></trkpt>
<trkpt lat="48.887641906738" lon="2.6877820491791"><ele></ele><time>2025-5-16T23:21:0Z</time></trkpt>
<trkpt lat="48.887554168701" lon="2.6877779960632"><ele></ele><time>2025-5-16T23:21:3Z</time></trkpt>
<trkpt lat="48.887554168701" lon="2.6877779960632"><ele></ele><time>2025-5-16T23:21:6Z</time></trkpt>
<trkpt lat="48.887462615967" lon="2.6877920627594"><ele></ele><time>2025-5-16T23:21:9Z</time></trkpt>
<trkpt lat="48.887359619141" lon="2.6877930164337"><ele></ele><time>2025-5-16T23:21:12Z</time></trkpt>
<trkpt lat="48.887252807617" lon="2.6877846717834"><ele></ele><time>2025-5-16T23:21:15Z</time></trkpt>
<trkpt lat="48.887252807617" lon="2.6877846717834"><ele></ele><time>2025-5-16T23:21:18Z</time></trkpt>
<trkpt lat="48.887134552002" lon="2.6878006458282"><ele></ele><time>2025-5-16T23:21:21Z</time></trkpt>
<trkpt lat="48.887008666992" lon="2.6878311634064"><ele></ele><time>2025-5-16T23:21:24Z</time></trkpt>
<trkpt lat="48.886878967285" lon="2.6878595352173"><ele></ele><time>2025-5-16T23:21:27Z</time></trkpt>
<trkpt lat="48.886878967285" lon="2.6878595352173"><ele></ele><time>2025-5-16T23:21:30Z</time></trkpt>
<trkpt lat="48.886734008789" lon="2.6878941059113"><ele></ele><time>2025-5-16T23:21:33Z</time></trkpt>
<trkpt lat="48.886581420898" lon="2.6879270076752"><ele></ele><time>2025-5-16T23:21:36Z</time></trkpt>
<trkpt lat="48.886409759521" lon="2.6879696846008"><ele></ele><time>2025-5-16T23:21:39Z</time></trkpt>
<trkpt lat="48.886409759521" lon="2.6879696846008"><ele></ele><time>2025-5-16T23:21:42Z</time></trkpt>
<trkpt lat="48.886234283447" lon="2.6880083084106"><ele></ele><time>2025-5-16T23:21:45Z</time></trkpt>
<trkpt lat="48.886054992676" lon="2.6880476474762"><ele></ele><time>2025-5-16T23:21:48Z</time></trkpt>
<trkpt lat="48.886054992676" lon="2.6880476474762"><ele></ele><time>2025-5-16T23:21:51Z</time></trkpt>
<trkpt lat="48.885894775391" lon="2.6880834102631"><ele></ele><time>2025-5-16T23:21:54Z</time></trkpt>
<trkpt lat="48.885726928711" lon="2.6881165504456"><ele></ele><time>2025-5-16T23:21:57Z</time></trkpt>
<trkpt lat="48.885501861572" lon="2.6881713867188"><ele></ele><time>2025-5-16T23:22:0Z</time></trkpt>
<trkpt lat="48.885353088379" lon="2.6882133483887"><ele></ele><time>2025-5-16T23:22:3Z</time></trkpt>
<trkpt lat="48.885208129883" lon="2.6882717609406"><ele></ele><time>2025-5-16T23:22:6Z</time></trkpt>
<trkpt lat="48.885208129883" lon="2.6882717609406"><ele></ele><time>2025-5-16T23:22:9Z</time></trkpt>
<trkpt lat="48.885063171387" lon="2.6883568763733"><ele></ele><time>2025-5-16T23:22:12Z</time></trkpt>
<trkpt lat="48.884944915771" lon="2.6884305477142"><ele></ele><time>2025-5-16T23:22:15Z</time></trkpt>
<trkpt lat="48.884838104248" lon="2.6885228157043"><ele></ele><time>2025-5-16T23:22:18Z</time></trkpt>
<trkpt lat="48.884838104248" lon="2.6885228157043"><ele></ele><time>2025-5-16T23:22:21Z</time></trkpt>
<trkpt lat="48.884731292725" lon="2.6886570453644"><ele></ele><time>2025-5-16T23:22:24Z</time></trkpt>
<trkpt lat="48.884628295898" lon="2.6888229846954"><ele></ele><time>2025-5-16T23:22:27Z</time></trkpt>
<trkpt lat="48.884525299072" lon="2.6890232563019"><ele></ele><time>2025-5-16T23:22:30Z</time></trkpt>
<trkpt lat="48.884525299072" lon="2.6890232563019"><ele></ele><time>2025-5-16T23:22:33Z</time></trkpt>
<trkpt lat="48.884429931641" lon="2.6892020702362"><ele></ele><time>2025-5-16T23:22:36Z</time></trkpt>
<trkpt lat="48.884349822998" lon="2.6893675327301"><ele></ele><time>2025-5-16T23:22:39Z</time></trkpt>
<trkpt lat="48.884265899658" lon="2.6895372867584"><ele></ele><time>2025-5-16T23:22:42Z</time></trkpt>
<trkpt lat="48.884208679199" lon="2.6896669864655"><ele></ele><time>2025-5-16T23:22:45Z</time></trkpt>
<trkpt lat="48.884155273438" lon="2.6897599697113"><ele></ele><time>2025-5-16T23:22:48Z</time></trkpt>
<trkpt lat="48.884101867676" lon="2.6898391246796"><ele></ele><time>2025-5-16T23:22:51Z</time></trkpt>
<trkpt lat="48.884101867676" lon="2.6898391246796"><ele></ele><time>2025-5-16T23:22:54Z</time></trkpt>
<trkpt lat="48.884094238281" lon="2.6899425983429"><ele></ele><time>2025-5-16T23:22:57Z</time></trkpt>
<trkpt lat="48.884094238281" lon="2.6899425983429"><ele></ele><time>2025-5-16T23:23:0Z</time></trkpt>
<trkpt lat="48.884181976318" lon="2.6898672580719"><ele></ele><time>2025-5-16T23:23:3Z</time></trkpt>
<trkpt lat="48.884239196777" lon="2.6898016929626"><ele></ele><time>2025-5-16T23:23:6Z</time></trkpt>
<trkpt lat="48.884311676025" lon="2.6897428035736"><ele></ele><time>2025-5-16T23:23:9Z</time></trkpt>
<trkpt lat="48.884372711182" lon="2.6897041797638"><ele></ele><time>2025-5-16T23:23:12Z</time></trkpt>
<trkpt lat="48.884414672852" lon="2.6896486282349"><ele></ele><time>2025-5-16T23:23:15Z</time></trkpt>
<trkpt lat="48.884452819824" lon="2.6895751953125"><ele></ele><time>2025-5-16T23:23:18Z</time></trkpt>
<trkpt lat="48.884449005127" lon="2.6894571781158"><ele></ele><time>2025-5-16T23:23:21Z</time></trkpt>
<trkpt lat="48.884449005127" lon="2.6893446445465"><ele></ele><time>2025-5-16T23:23:24Z</time></trkpt>
<trkpt lat="48.88444519043" lon="2.6892282962799"><ele></ele><time>2025-5-16T23:23:27Z</time></trkpt>
<trkpt lat="48.884494781494" lon="2.6890621185303"><ele></ele><time>2025-5-16T23:23:30Z</time></trkpt>
<trkpt lat="48.884525299072" lon="2.688985824585"><ele></ele><time>2025-5-16T23:23:33Z</time></trkpt>
<trkpt lat="48.884525299072" lon="2.688985824585"><ele></ele><time>2025-5-16T23:23:36Z</time></trkpt>
<trkpt lat="48.884593963623" lon="2.6888720989227"><ele></ele><time>2025-5-16T23:23:39Z</time></trkpt>
<trkpt lat="48.884593963623" lon="2.6888720989227"><ele></ele><time>2025-5-16T23:23:42Z</time></trkpt>
<trkpt lat="48.884658813477" lon="2.6887683868408"><ele></ele><time>2025-5-16T23:23:45Z</time></trkpt>
<trkpt lat="48.884658813477" lon="2.6887683868408"><ele></ele><time>2025-5-16T23:23:48Z</time></trkpt>
<trkpt lat="48.884727478027" lon="2.6886649131775"><ele></ele><time>2025-5-16T23:23:51Z</time></trkpt>
<trkpt lat="48.884727478027" lon="2.6886649131775"><ele></ele><time>2025-5-16T23:23:54Z</time></trkpt>
<trkpt lat="48.884803771973" lon="2.6885778903961"><ele></ele><time>2025-5-16T23:23:57Z</time></trkpt>
<trkpt lat="48.884803771973" lon="2.6885778903961"><ele></ele><time>2025-5-16T23:24:0Z</time></trkpt>
<trkpt lat="48.884880065918" lon="2.6884939670563"><ele></ele><time>2025-5-16T23:24:3Z</time></trkpt>
<trkpt lat="48.884880065918" lon="2.6884939670563"><ele></ele><time>2025-5-16T23:24:6Z</time></trkpt>
<trkpt lat="48.884880065918" lon="2.6884939670563"><ele></ele><time>2025-5-16T23:24:9Z</time></trkpt>
<trkpt lat="48.884880065918" lon="2.6884939670563"><ele></ele><time>2025-5-16T23:24:12Z</time></trkpt>
<trkpt lat="48.885078430176" lon="2.6883368492126"><ele></ele><time>2025-5-16T23:24:15Z</time></trkpt>
<trkpt lat="48.885078430176" lon="2.6883368492126"><ele></ele><time>2025-5-16T23:24:18Z</time></trkpt>
<trkpt lat="48.885162353516" lon="2.6882917881012"><ele></ele><time>2025-5-16T23:24:21Z</time></trkpt>
<trkpt lat="48.885162353516" lon="2.6882917881012"><ele></ele><time>2025-5-16T23:24:24Z</time></trkpt>
<trkpt lat="48.885238647461" lon="2.6882531642914"><ele></ele><time>2025-5-16T23:24:27Z</time></trkpt>
<trkpt lat="48.885341644287" lon="2.6882140636444"><ele></ele><time>2025-5-16T23:24:30Z</time></trkpt>
<trkpt lat="48.885398864746" lon="2.6881940364838"><ele></ele><time>2025-5-16T23:24:33Z</time></trkpt>
<trkpt lat="48.885398864746" lon="2.6881940364838"><ele></ele><time>2025-5-16T23:24:36Z</time></trkpt>
<trkpt lat="48.88550567627" lon="2.6881687641144"><ele></ele><time>2025-5-16T23:24:39Z</time></trkpt>
<trkpt lat="48.88550567627" lon="2.6881687641144"><ele></ele><time>2025-5-16T23:24:42Z</time></trkpt>
<trkpt lat="48.885608673096" lon="2.6881635189056"><ele></ele><time>2025-5-16T23:24:45Z</time></trkpt>
<trkpt lat="48.885707855225" lon="2.6881382465363"><ele></ele><time>2025-5-16T23:24:48Z</time></trkpt>
<trkpt lat="48.885707855225" lon="2.6881382465363"><ele></ele><time>2025-5-16T23:24:51Z</time></trkpt>
<trkpt lat="48.885810852051" lon="2.6881086826324"><ele></ele><time>2025-5-16T23:24:54Z</time></trkpt>
<trkpt lat="48.885871887207" lon="2.688093662262"><ele></ele><time>2025-5-16T23:24:57Z</time></trkpt>
<trkpt lat="48.885948181152" lon="2.6880753040314"><ele></ele><time>2025-5-16T23:25:0Z</time></trkpt>
<trkpt lat="48.886016845703" lon="2.6880667209625"><ele></ele><time>2025-5-16T23:25:3Z</time></trkpt>
<trkpt lat="48.886131286621" lon="2.6880543231964"><ele></ele><time>2025-5-16T23:25:6Z</time></trkpt>
<trkpt lat="48.886192321777" lon="2.6880459785461"><ele></ele><time>2025-5-16T23:25:9Z</time></trkpt>
<trkpt lat="48.886192321777" lon="2.6880459785461"><ele></ele><time>2025-5-16T23:25:12Z</time></trkpt>
<trkpt lat="48.886306762695" lon="2.6880378723145"><ele></ele><time>2025-5-16T23:25:15Z</time></trkpt>
<trkpt lat="48.886363983154" lon="2.6880311965942"><ele></ele><time>2025-5-16T23:25:18Z</time></trkpt>
<trkpt lat="48.886363983154" lon="2.6880311965942"><ele></ele><time>2025-5-16T23:25:21Z</time></trkpt>
<trkpt lat="48.886463165283" lon="2.6880156993866"><ele></ele><time>2025-5-16T23:25:24Z</time></trkpt>
<trkpt lat="48.886463165283" lon="2.6880156993866"><ele></ele><time>2025-5-16T23:25:27Z</time></trkpt>
<trkpt lat="48.886562347412" lon="2.6879949569702"><ele></ele><time>2025-5-16T23:25:30Z</time></trkpt>
<trkpt lat="48.886562347412" lon="2.6879949569702"><ele></ele><time>2025-5-16T23:25:33Z</time></trkpt>
<trkpt lat="48.886665344238" lon="2.6879663467407"><ele></ele><time>2025-5-16T23:25:36Z</time></trkpt>
<trkpt lat="48.886665344238" lon="2.6879663467407"><ele></ele><time>2025-5-16T23:25:39Z</time></trkpt>
<trkpt lat="48.886756896973" lon="2.6879422664642"><ele></ele><time>2025-5-16T23:25:42Z</time></trkpt>
<trkpt lat="48.886859893799" lon="2.6879234313965"><ele></ele><time>2025-5-16T23:25:45Z</time></trkpt>
<trkpt lat="48.886859893799" lon="2.6879234313965"><ele></ele><time>2025-5-16T23:25:48Z</time></trkpt>
<trkpt lat="48.886974334717" lon="2.6879045963287"><ele></ele><time>2025-5-16T23:25:51Z</time></trkpt>
<trkpt lat="48.887031555176" lon="2.6878955364227"><ele></ele><time>2025-5-16T23:25:54Z</time></trkpt>
<trkpt lat="48.887031555176" lon="2.6878955364227"><ele></ele><time>2025-5-16T23:25:57Z</time></trkpt>
<trkpt lat="48.887145996094" lon="2.6878755092621"><ele></ele><time>2025-5-16T23:26:0Z</time></trkpt>
<trkpt lat="48.887203216553" lon="2.6878628730774"><ele></ele><time>2025-5-16T23:26:3Z</time></trkpt>
<trkpt lat="48.887260437012" lon="2.6878447532654"><ele></ele><time>2025-5-16T23:26:6Z</time></trkpt>
<trkpt lat="48.887317657471" lon="2.6878333091736"><ele></ele><time>2025-5-16T23:26:9Z</time></trkpt>
<trkpt lat="48.887420654297" lon="2.6878108978271"><ele></ele><time>2025-5-16T23:26:12Z</time></trkpt>
<trkpt lat="48.887420654297" lon="2.6878108978271"><ele></ele><time>2025-5-16T23:26:15Z</time></trkpt>
<trkpt lat="48.887535095215" lon="2.6877906322479"><ele></ele><time>2025-5-16T23:26:18Z</time></trkpt>
<trkpt lat="48.887596130371" lon="2.6877799034119"><ele></ele><time>2025-5-16T23:26:21Z</time></trkpt>
<trkpt lat="48.887710571289" lon="2.6877427101135"><ele></ele><time>2025-5-16T23:26:24Z</time></trkpt>
<trkpt lat="48.887771606445" lon="2.6877183914185"><ele></ele><time>2025-5-16T23:26:27Z</time></trkpt>
<trkpt lat="48.887771606445" lon="2.6877183914185"><ele></ele><time>2025-5-16T23:26:30Z</time></trkpt>
<trkpt lat="48.887874603271" lon="2.6876916885376"><ele></ele><time>2025-5-16T23:26:33Z</time></trkpt>
<trkpt lat="48.88793182373" lon="2.687685251236"><ele></ele><time>2025-5-16T23:26:36Z</time></trkpt>
<trkpt lat="48.887989044189" lon="2.6876575946808"><ele></ele><time>2025-5-16T23:26:39Z</time></trkpt>
<trkpt lat="48.888034820557" lon="2.6875996589661"><ele></ele><time>2025-5-16T23:26:42Z</time></trkpt>
<trkpt lat="48.888061523438" lon="2.6874914169312"><ele></ele><time>2025-5-16T23:26:45Z</time></trkpt>
<trkpt lat="48.888088226318" lon="2.6873641014099"><ele></ele><time>2025-5-16T23:26:48Z</time></trkpt>
<trkpt lat="48.888118743896" lon="2.6872398853302"><ele></ele><time>2025-5-16T23:26:51Z</time></trkpt>
<trkpt lat="48.888149261475" lon="2.6871252059937"><ele></ele><time>2025-5-16T23:26:54Z</time></trkpt>
<trkpt lat="48.888172149658" lon="2.6870019435883"><ele></ele><time>2025-5-16T23:26:57Z</time></trkpt>
<trkpt lat="48.888195037842" lon="2.6868586540222"><ele></ele><time>2025-5-16T23:27:0Z</time></trkpt>
<trkpt lat="48.888214111328" lon="2.6867046356201"><ele></ele><time>2025-5-16T23:27:3Z</time></trkpt>
<trkpt lat="48.888233184814" lon="2.6865513324738"><ele></ele><time>2025-5-16T23:27:6Z</time></trkpt>
<trkpt lat="48.888248443604" lon="2.6863920688629"><ele></ele><time>2025-5-16T23:27:9Z</time></trkpt>
<trkpt lat="48.88826751709" lon="2.6862201690674"><ele></ele><time>2025-5-16T23:27:12Z</time></trkpt>
<trkpt lat="48.888282775879" lon="2.6860377788544"><ele></ele><time>2025-5-16T23:27:15Z</time></trkpt>
<trkpt lat="48.888313293457" lon="2.6858515739441"><ele></ele><time>2025-5-16T23:27:18Z</time></trkpt>
<trkpt lat="48.888339996338" lon="2.6856651306152"><ele></ele><time>2025-5-16T23:27:21Z</time></trkpt>
<trkpt lat="48.888362884521" lon="2.6854782104492"><ele></ele><time>2025-5-16T23:27:24Z</time></trkpt>
<trkpt lat="48.888385772705" lon="2.6852974891663"><ele></ele><time>2025-5-16T23:27:27Z</time></trkpt>
<trkpt lat="48.888412475586" lon="2.6851186752319"><ele></ele><time>2025-5-16T23:27:30Z</time></trkpt>
<trkpt lat="48.888439178467" lon="2.6849484443665"><ele></ele><time>2025-5-16T23:27:33Z</time></trkpt>
<trkpt lat="48.888458251953" lon="2.684779882431"><ele></ele><time>2025-5-16T23:27:36Z</time></trkpt>
<trkpt lat="48.888488769531" lon="2.6846122741699"><ele></ele><time>2025-5-16T23:27:39Z</time></trkpt>
<trkpt lat="48.888511657715" lon="2.6844444274902"><ele></ele><time>2025-5-16T23:27:42Z</time></trkpt>
<trkpt lat="48.888534545898" lon="2.6842737197876"><ele></ele><time>2025-5-16T23:27:45Z</time></trkpt>
<trkpt lat="48.888565063477" lon="2.6841053962708"><ele></ele><time>2025-5-16T23:27:48Z</time></trkpt>
<trkpt lat="48.888591766357" lon="2.6839292049408"><ele></ele><time>2025-5-16T23:27:51Z</time></trkpt>
<trkpt lat="48.888618469238" lon="2.6837582588196"><ele></ele><time>2025-5-16T23:27:54Z</time></trkpt>
<trkpt lat="48.888645172119" lon="2.683584690094"><ele></ele><time>2025-5-16T23:27:57Z</time></trkpt>
<trkpt lat="48.888675689697" lon="2.6834070682526"><ele></ele><time>2025-5-16T23:28:0Z</time></trkpt>
<trkpt lat="48.888698577881" lon="2.6832330226898"><ele></ele><time>2025-5-16T23:28:3Z</time></trkpt>
<trkpt lat="48.888725280762" lon="2.6830565929413"><ele></ele><time>2025-5-16T23:28:6Z</time></trkpt>
<trkpt lat="48.88875579834" lon="2.6828849315643"><ele></ele><time>2025-5-16T23:28:9Z</time></trkpt>
<trkpt lat="48.888786315918" lon="2.6827123165131"><ele></ele><time>2025-5-16T23:28:12Z</time></trkpt>
<trkpt lat="48.888809204102" lon="2.6825406551361"><ele></ele><time>2025-5-16T23:28:15Z</time></trkpt>
<trkpt lat="48.88883972168" lon="2.6823666095734"><ele></ele><time>2025-5-16T23:28:18Z</time></trkpt>
<trkpt lat="48.888870239258" lon="2.6821889877319"><ele></ele><time>2025-5-16T23:28:21Z</time></trkpt>
<trkpt lat="48.888900756836" lon="2.6820142269135"><ele></ele><time>2025-5-16T23:28:24Z</time></trkpt>
<trkpt lat="48.888942718506" lon="2.6818339824677"><ele></ele><time>2025-5-16T23:28:27Z</time></trkpt>
<trkpt lat="48.888988494873" lon="2.6816568374634"><ele></ele><time>2025-5-16T23:28:30Z</time></trkpt>
<trkpt lat="48.88903427124" lon="2.6814856529236"><ele></ele><time>2025-5-16T23:28:33Z</time></trkpt>
<trkpt lat="48.889072418213" lon="2.6813185214996"><ele></ele><time>2025-5-16T23:28:36Z</time></trkpt>
<trkpt lat="48.889114379883" lon="2.6811702251434"><ele></ele><time>2025-5-16T23:28:39Z</time></trkpt>
<trkpt lat="48.889114379883" lon="2.6811702251434"><ele></ele><time>2025-5-16T23:28:42Z</time></trkpt>
<trkpt lat="48.889167785645" lon="2.6810138225555"><ele></ele><time>2025-5-16T23:28:45Z</time></trkpt>
<trkpt lat="48.889221191406" lon="2.6808559894562"><ele></ele><time>2025-5-16T23:28:48Z</time></trkpt>
<trkpt lat="48.889282226562" lon="2.6806950569153"><ele></ele><time>2025-5-16T23:28:51Z</time></trkpt>
<trkpt lat="48.889282226562" lon="2.6806950569153"><ele></ele><time>2025-5-16T23:28:54Z</time></trkpt>
<trkpt lat="48.889335632324" lon="2.6805436611176"><ele></ele><time>2025-5-16T23:28:57Z</time></trkpt>
<trkpt lat="48.88939666748" lon="2.6804003715515"><ele></ele><time>2025-5-16T23:29:0Z</time></trkpt>
<trkpt lat="48.889465332031" lon="2.6802539825439"><ele></ele><time>2025-5-16T23:29:3Z</time></trkpt>
<trkpt lat="48.889465332031" lon="2.6802539825439"><ele></ele><time>2025-5-16T23:29:6Z</time></trkpt>
<trkpt lat="48.889537811279" lon="2.6801025867462"><ele></ele><time>2025-5-16T23:29:9Z</time></trkpt>
<trkpt lat="48.88960647583" lon="2.6799578666687"><ele></ele><time>2025-5-16T23:29:12Z</time></trkpt>
<trkpt lat="48.889675140381" lon="2.6798219680786"><ele></ele><time>2025-5-16T23:29:15Z</time></trkpt>
<trkpt lat="48.889675140381" lon="2.6798219680786"><ele></ele><time>2025-5-16T23:29:18Z</time></trkpt>
<trkpt lat="48.889755249023" lon="2.6796846389771"><ele></ele><time>2025-5-16T23:29:21Z</time></trkpt>
<trkpt lat="48.889831542969" lon="2.6795456409454"><ele></ele><time>2025-5-16T23:29:24Z</time></trkpt>
<trkpt lat="48.889911651611" lon="2.6794030666351"><ele></ele><time>2025-5-16T23:29:27Z</time></trkpt>
<trkpt lat="48.889911651611" lon="2.6794030666351"><ele></ele><time>2025-5-16T23:29:30Z</time></trkpt>
<trkpt lat="48.889980316162" lon="2.6792523860931"><ele></ele><time>2025-5-16T23:29:33Z</time></trkpt>
<trkpt lat="48.890041351318" lon="2.6791110038757"><ele></ele><time>2025-5-16T23:29:36Z</time></trkpt>
<trkpt lat="48.890110015869" lon="2.6789848804474"><ele></ele><time>2025-5-16T23:29:39Z</time></trkpt>
<trkpt lat="48.890110015869" lon="2.6789848804474"><ele></ele><time>2025-5-16T23:29:42Z</time></trkpt>
<trkpt lat="48.89017868042" lon="2.6788620948792"><ele></ele><time>2025-5-16T23:29:45Z</time></trkpt>
<trkpt lat="48.890243530273" lon="2.6787457466125"><ele></ele><time>2025-5-16T23:29:48Z</time></trkpt>
<trkpt lat="48.890312194824" lon="2.6786391735077"><ele></ele><time>2025-5-16T23:29:51Z</time></trkpt>
<trkpt lat="48.890312194824" lon="2.6786391735077"><ele></ele><time>2025-5-16T23:29:54Z</time></trkpt>
<trkpt lat="48.890384674072" lon="2.6785416603088"><ele></ele><time>2025-5-16T23:29:57Z</time></trkpt>
<trkpt lat="48.89045715332" lon="2.6784451007843"><ele></ele><time>2025-5-16T23:30:0Z</time></trkpt>
<trkpt lat="48.890544891357" lon="2.678325176239"><ele></ele><time>2025-5-16T23:30:3Z</time></trkpt>
<trkpt lat="48.890544891357" lon="2.678325176239"><ele></ele><time>2025-5-16T23:30:6Z</time></trkpt>
<trkpt lat="48.890621185303" lon="2.6782162189484"><ele></ele><time>2025-5-16T23:30:9Z</time></trkpt>
<trkpt lat="48.890689849854" lon="2.6781129837036"><ele></ele><time>2025-5-16T23:30:12Z</time></trkpt>
<trkpt lat="48.890758514404" lon="2.678013086319"><ele></ele><time>2025-5-16T23:30:15Z</time></trkpt>
<trkpt lat="48.890758514404" lon="2.678013086319"><ele></ele><time>2025-5-16T23:30:18Z</time></trkpt>
<trkpt lat="48.890838623047" lon="2.677916765213"><ele></ele><time>2025-5-16T23:30:21Z</time></trkpt>
<trkpt lat="48.890949249268" lon="2.6777822971344"><ele></ele><time>2025-5-16T23:30:24Z</time></trkpt>
<trkpt lat="48.891021728516" lon="2.6776993274689"><ele></ele><time>2025-5-16T23:30:27Z</time></trkpt>
<trkpt lat="48.891090393066" lon="2.6776292324066"><ele></ele><time>2025-5-16T23:30:30Z</time></trkpt>
<trkpt lat="48.891162872314" lon="2.6775648593903"><ele></ele><time>2025-5-16T23:30:33Z</time></trkpt>
<trkpt lat="48.891162872314" lon="2.6775648593903"><ele></ele><time>2025-5-16T23:30:36Z</time></trkpt>
<trkpt lat="48.891231536865" lon="2.677499294281"><ele></ele><time>2025-5-16T23:30:39Z</time></trkpt>
<trkpt lat="48.891300201416" lon="2.6774392127991"><ele></ele><time>2025-5-16T23:30:42Z</time></trkpt>
<trkpt lat="48.891376495361" lon="2.6773834228516"><ele></ele><time>2025-5-16T23:30:45Z</time></trkpt>
<trkpt lat="48.891376495361" lon="2.6773834228516"><ele></ele><time>2025-5-16T23:30:48Z</time></trkpt>
<trkpt lat="48.891448974609" lon="2.6773319244385"><ele></ele><time>2025-5-16T23:30:51Z</time></trkpt>
<trkpt lat="48.891525268555" lon="2.6772875785828"><ele></ele><time>2025-5-16T23:30:54Z</time></trkpt>
<trkpt lat="48.8916015625" lon="2.677238702774"><ele></ele><time>2025-5-16T23:30:57Z</time></trkpt>
<trkpt lat="48.8916015625" lon="2.677238702774"><ele></ele><time>2025-5-16T23:31:0Z</time></trkpt>
<trkpt lat="48.891677856445" lon="2.6771957874298"><ele></ele><time>2025-5-16T23:31:3Z</time></trkpt>
<trkpt lat="48.891754150391" lon="2.6771500110626"><ele></ele><time>2025-5-16T23:31:6Z</time></trkpt>
<trkpt lat="48.891830444336" lon="2.6771109104156"><ele></ele><time>2025-5-16T23:31:9Z</time></trkpt>
<trkpt lat="48.891830444336" lon="2.6771109104156"><ele></ele><time>2025-5-16T23:31:12Z</time></trkpt>
<trkpt lat="48.891899108887" lon="2.6770706176758"><ele></ele><time>2025-5-16T23:31:15Z</time></trkpt>
<trkpt lat="48.89196395874" lon="2.6770341396332"><ele></ele><time>2025-5-16T23:31:18Z</time></trkpt>
<trkpt lat="48.892032623291" lon="2.6769971847534"><ele></ele><time>2025-5-16T23:31:21Z</time></trkpt>
<trkpt lat="48.892032623291" lon="2.6769971847534"><ele></ele><time>2025-5-16T23:31:24Z</time></trkpt>
<trkpt lat="48.892101287842" lon="2.6769607067108"><ele></ele><time>2025-5-16T23:31:27Z</time></trkpt>
<trkpt lat="48.892169952393" lon="2.676926612854"><ele></ele><time>2025-5-16T23:31:30Z</time></trkpt>
<trkpt lat="48.892234802246" lon="2.6769022941589"><ele></ele><time>2025-5-16T23:31:33Z</time></trkpt>
<trkpt lat="48.892234802246" lon="2.6769022941589"><ele></ele><time>2025-5-16T23:31:36Z</time></trkpt>
<trkpt lat="48.8922996521" lon="2.676873922348"><ele></ele><time>2025-5-16T23:31:39Z</time></trkpt>
<trkpt lat="48.892360687256" lon="2.6768424510956"><ele></ele><time>2025-5-16T23:31:42Z</time></trkpt>
<trkpt lat="48.892421722412" lon="2.6768131256104"><ele></ele><time>2025-5-16T23:31:45Z</time></trkpt>
<trkpt lat="48.892421722412" lon="2.6768131256104"><ele></ele><time>2025-5-16T23:31:48Z</time></trkpt>
<trkpt lat="48.892475128174" lon="2.6767802238464"><ele></ele><time>2025-5-16T23:31:51Z</time></trkpt>
<trkpt lat="48.892475128174" lon="2.6767802238464"><ele></ele><time>2025-5-16T23:31:54Z</time></trkpt>
<trkpt lat="48.892570495605" lon="2.6767296791077"><ele></ele><time>2025-5-16T23:31:57Z</time></trkpt>
<trkpt lat="48.892570495605" lon="2.6767296791077"><ele></ele><time>2025-5-16T23:32:0Z</time></trkpt>
<trkpt lat="48.892570495605" lon="2.6767296791077"><ele></ele><time>2025-5-16T23:32:3Z</time></trkpt>
<trkpt lat="48.892654418945" lon="2.6766591072083"><ele></ele><time>2025-5-16T23:32:6Z</time></trkpt>
<trkpt lat="48.892654418945" lon="2.6766591072083"><ele></ele><time>2025-5-16T23:32:9Z</time></trkpt>
<trkpt lat="48.892654418945" lon="2.6766591072083"><ele></ele><time>2025-5-16T23:32:12Z</time></trkpt>
<trkpt lat="48.89270401001" lon="2.6765995025635"><ele></ele><time>2025-5-16T23:32:15Z</time></trkpt>
<trkpt lat="48.892826080322" lon="2.6766102313995"><ele></ele><time>2025-5-16T23:32:18Z</time></trkpt>
<trkpt lat="48.892925262451" lon="2.6765620708466"><ele></ele><time>2025-5-16T23:32:21Z</time></trkpt>
<trkpt lat="48.892925262451" lon="2.6765620708466"><ele></ele><time>2025-5-16T23:32:24Z</time></trkpt>
<trkpt lat="48.89298248291" lon="2.6765339374542"><ele></ele><time>2025-5-16T23:32:27Z</time></trkpt>
<trkpt lat="48.893043518066" lon="2.6765112876892"><ele></ele><time>2025-5-16T23:32:30Z</time></trkpt>
<trkpt lat="48.893043518066" lon="2.6765112876892"><ele></ele><time>2025-5-16T23:32:33Z</time></trkpt>
<trkpt lat="48.893146514893" lon="2.6764709949493"><ele></ele><time>2025-5-16T23:32:36Z</time></trkpt>
<trkpt lat="48.893199920654" lon="2.6764445304871"><ele></ele><time>2025-5-16T23:32:39Z</time></trkpt>
<trkpt lat="48.893260955811" lon="2.6764132976532"><ele></ele><time>2025-5-16T23:32:42Z</time></trkpt>
<trkpt lat="48.893260955811" lon="2.6764132976532"><ele></ele><time>2025-5-16T23:32:45Z</time></trkpt>
<trkpt lat="48.89331817627" lon="2.676381111145"><ele></ele><time>2025-5-16T23:32:48Z</time></trkpt>
<trkpt lat="48.89331817627" lon="2.676381111145"><ele></ele><time>2025-5-16T23:32:51Z</time></trkpt>
<trkpt lat="48.893424987793" lon="2.6763277053833"><ele></ele><time>2025-5-16T23:32:54Z</time></trkpt>
<trkpt lat="48.893424987793" lon="2.6763277053833"><ele></ele><time>2025-5-16T23:32:57Z</time></trkpt>
<trkpt lat="48.893478393555" lon="2.6762983798981"><ele></ele><time>2025-5-16T23:33:0Z</time></trkpt>
<trkpt lat="48.893478393555" lon="2.6762983798981"><ele></ele><time>2025-5-16T23:33:3Z</time></trkpt>
<trkpt lat="48.893577575684" lon="2.6762413978577"><ele></ele><time>2025-5-16T23:33:6Z</time></trkpt>
<trkpt lat="48.893577575684" lon="2.6762413978577"><ele></ele><time>2025-5-16T23:33:9Z</time></trkpt>
<trkpt lat="48.893630981445" lon="2.6762208938599"><ele></ele><time>2025-5-16T23:33:12Z</time></trkpt>
<trkpt lat="48.893718719482" lon="2.6761844158173"><ele></ele><time>2025-5-16T23:33:15Z</time></trkpt>
<trkpt lat="48.893718719482" lon="2.6761844158173"><ele></ele><time>2025-5-16T23:33:18Z</time></trkpt>
<trkpt lat="48.893718719482" lon="2.6761844158173"><ele></ele><time>2025-5-16T23:33:21Z</time></trkpt>
<trkpt lat="48.893718719482" lon="2.6761844158173"><ele></ele><time>2025-5-16T23:33:24Z</time></trkpt>
<trkpt lat="48.893718719482" lon="2.6761844158173"><ele></ele><time>2025-5-16T23:33:27Z</time></trkpt>
<trkpt lat="48.893718719482" lon="2.6761844158173"><ele></ele><time>2025-5-16T23:33:30Z</time></trkpt>
<trkpt lat="48.893718719482" lon="2.6761844158173"><ele></ele><time>2025-5-16T23:33:33Z</time></trkpt>
<trkpt lat="48.893718719482" lon="2.6761844158173"><ele></ele><time>2025-5-16T23:33:36Z</time></trkpt>
<trkpt lat="48.893718719482" lon="2.6761844158173"><ele></ele><time>2025-5-16T23:33:39Z</time></trkpt>
<trkpt lat="48.893718719482" lon="2.6761844158173"><ele></ele><time>2025-5-16T23:33:42Z</time></trkpt>
<trkpt lat="48.893718719482" lon="2.6761844158173"><ele></ele><time>2025-5-16T23:33:45Z</time></trkpt>
<trkpt lat="48.893718719482" lon="2.6761844158173"><ele></ele><time>2025-5-16T23:33:48Z</time></trkpt>
<trkpt lat="48.895938873291" lon="2.6751625537872"><ele></ele><time>2025-5-16T23:33:51Z</time></trkpt>
<trkpt lat="48.895938873291" lon="2.6751625537872"><ele></ele><time>2025-5-16T23:33:54Z</time></trkpt>
<trkpt lat="48.89608001709" lon="2.6751022338867"><ele></ele><time>2025-5-16T23:33:57Z</time></trkpt>
<trkpt lat="48.896183013916" lon="2.6750566959381"><ele></ele><time>2025-5-16T23:34:0Z</time></trkpt>
<trkpt lat="48.896286010742" lon="2.6750054359436"><ele></ele><time>2025-5-16T23:34:3Z</time></trkpt>
<trkpt lat="48.896389007568" lon="2.6749575138092"><ele></ele><time>2025-5-16T23:34:6Z</time></trkpt>
<trkpt lat="48.896499633789" lon="2.6749095916748"><ele></ele><time>2025-5-16T23:34:9Z</time></trkpt>
<trkpt lat="48.896606445312" lon="2.6748592853546"><ele></ele><time>2025-5-16T23:34:12Z</time></trkpt>
<trkpt lat="48.896606445312" lon="2.6748592853546"><ele></ele><time>2025-5-16T23:34:15Z</time></trkpt>
<trkpt lat="48.896732330322" lon="2.6747968196869"><ele></ele><time>2025-5-16T23:34:18Z</time></trkpt>
<trkpt lat="48.896858215332" lon="2.6747350692749"><ele></ele><time>2025-5-16T23:34:21Z</time></trkpt>
<trkpt lat="48.896984100342" lon="2.6746754646301"><ele></ele><time>2025-5-16T23:34:24Z</time></trkpt>
<trkpt lat="48.896984100342" lon="2.6746754646301"><ele></ele><time>2025-5-16T23:34:27Z</time></trkpt>
<trkpt lat="48.897109985352" lon="2.6746172904968"><ele></ele><time>2025-5-16T23:34:30Z</time></trkpt>
<trkpt lat="48.897235870361" lon="2.6745574474335"><ele></ele><time>2025-5-16T23:34:33Z</time></trkpt>
<trkpt lat="48.897365570068" lon="2.6744964122772"><ele></ele><time>2025-5-16T23:34:36Z</time></trkpt>
<trkpt lat="48.897365570068" lon="2.6744964122772"><ele></ele><time>2025-5-16T23:34:39Z</time></trkpt>
<trkpt lat="48.897491455078" lon="2.674437046051"><ele></ele><time>2025-5-16T23:34:42Z</time></trkpt>
<trkpt lat="48.897617340088" lon="2.6743774414062"><ele></ele><time>2025-5-16T23:34:45Z</time></trkpt>
<trkpt lat="48.8977394104" lon="2.6743216514587"><ele></ele><time>2025-5-16T23:34:48Z</time></trkpt>
<trkpt lat="48.8977394104" lon="2.6743216514587"><ele></ele><time>2025-5-16T23:34:51Z</time></trkpt>
<trkpt lat="48.897914886475" lon="2.6742436885834"><ele></ele><time>2025-5-16T23:34:54Z</time></trkpt>
<trkpt lat="48.898010253906" lon="2.6742024421692"><ele></ele><time>2025-5-16T23:34:57Z</time></trkpt>
<trkpt lat="48.898097991943" lon="2.6741669178009"><ele></ele><time>2025-5-16T23:35:0Z</time></trkpt>
<trkpt lat="48.89818572998" lon="2.6741316318512"><ele></ele><time>2025-5-16T23:35:3Z</time></trkpt>
<trkpt lat="48.898277282715" lon="2.6740961074829"><ele></ele><time>2025-5-16T23:35:6Z</time></trkpt>
<trkpt lat="48.89835357666" lon="2.6740579605103"><ele></ele><time>2025-5-16T23:35:9Z</time></trkpt>
<trkpt lat="48.898429870605" lon="2.6740131378174"><ele></ele><time>2025-5-16T23:35:12Z</time></trkpt>
<trkpt lat="48.898509979248" lon="2.6739609241486"><ele></ele><time>2025-5-16T23:35:15Z</time></trkpt>
<trkpt lat="48.898601531982" lon="2.673905134201"><ele></ele><time>2025-5-16T23:35:18Z</time></trkpt>
<trkpt lat="48.898693084717" lon="2.6738533973694"><ele></ele><time>2025-5-16T23:35:21Z</time></trkpt>
<trkpt lat="48.898765563965" lon="2.6738080978394"><ele></ele><time>2025-5-16T23:35:24Z</time></trkpt>
<trkpt lat="48.898838043213" lon="2.673766374588"><ele></ele><time>2025-5-16T23:35:27Z</time></trkpt>
<trkpt lat="48.898914337158" lon="2.673730134964"><ele></ele><time>2025-5-16T23:35:30Z</time></trkpt>
<trkpt lat="48.898990631104" lon="2.6736917495728"><ele></ele><time>2025-5-16T23:35:33Z</time></trkpt>
<trkpt lat="48.899063110352" lon="2.6736433506012"><ele></ele><time>2025-5-16T23:35:36Z</time></trkpt>
<trkpt lat="48.8991355896" lon="2.6735844612122"><ele></ele><time>2025-5-16T23:35:39Z</time></trkpt>
<trkpt lat="48.899196624756" lon="2.6735010147095"><ele></ele><time>2025-5-16T23:35:42Z</time></trkpt>
<trkpt lat="48.899257659912" lon="2.673407793045"><ele></ele><time>2025-5-16T23:35:45Z</time></trkpt>
<trkpt lat="48.899326324463" lon="2.6733090877533"><ele></ele><time>2025-5-16T23:35:48Z</time></trkpt>
<trkpt lat="48.899394989014" lon="2.6732156276703"><ele></ele><time>2025-5-16T23:35:51Z</time></trkpt>
<trkpt lat="48.899463653564" lon="2.6731250286102"><ele></ele><time>2025-5-16T23:35:54Z</time></trkpt>
<trkpt lat="48.899536132812" lon="2.6730251312256"><ele></ele><time>2025-5-16T23:35:57Z</time></trkpt>
<trkpt lat="48.899612426758" lon="2.6729357242584"><ele></ele><time>2025-5-16T23:36:0Z</time></trkpt>
<trkpt lat="48.899684906006" lon="2.6728510856628"><ele></ele><time>2025-5-16T23:36:3Z</time></trkpt>
<trkpt lat="48.899765014648" lon="2.6727590560913"><ele></ele><time>2025-5-16T23:36:6Z</time></trkpt>
<trkpt lat="48.899841308594" lon="2.6726675033569"><ele></ele><time>2025-5-16T23:36:9Z</time></trkpt>
<trkpt lat="48.899929046631" lon="2.6725997924805"><ele></ele><time>2025-5-16T23:36:12Z</time></trkpt>
<trkpt lat="48.90002822876" lon="2.6725623607635"><ele></ele><time>2025-5-16T23:36:15Z</time></trkpt>
<trkpt lat="48.900127410889" lon="2.6725337505341"><ele></ele><time>2025-5-16T23:36:18Z</time></trkpt>
<trkpt lat="48.900211334229" lon="2.6725134849548"><ele></ele><time>2025-5-16T23:36:21Z</time></trkpt>
<trkpt lat="48.900283813477" lon="2.6724977493286"><ele></ele><time>2025-5-16T23:36:24Z</time></trkpt>
<trkpt lat="48.900360107422" lon="2.6724832057953"><ele></ele><time>2025-5-16T23:36:27Z</time></trkpt>
<trkpt lat="48.900436401367" lon="2.672464132309"><ele></ele><time>2025-5-16T23:36:30Z</time></trkpt>
<trkpt lat="48.900527954102" lon="2.6724469661713"><ele></ele><time>2025-5-16T23:36:33Z</time></trkpt>
<trkpt lat="48.900623321533" lon="2.6724224090576"><ele></ele><time>2025-5-16T23:36:36Z</time></trkpt>
<trkpt lat="48.900714874268" lon="2.6723935604095"><ele></ele><time>2025-5-16T23:36:39Z</time></trkpt>
<trkpt lat="48.900798797607" lon="2.6723568439484"><ele></ele><time>2025-5-16T23:36:42Z</time></trkpt>
<trkpt lat="48.90087890625" lon="2.6723086833954"><ele></ele><time>2025-5-16T23:36:45Z</time></trkpt>
<trkpt lat="48.900943756104" lon="2.6722569465637"><ele></ele><time>2025-5-16T23:36:48Z</time></trkpt>
<trkpt lat="48.901016235352" lon="2.6721951961517"><ele></ele><time>2025-5-16T23:36:51Z</time></trkpt>
<trkpt lat="48.9010887146" lon="2.6721084117889"><ele></ele><time>2025-5-16T23:36:54Z</time></trkpt>
<trkpt lat="48.901161193848" lon="2.6720108985901"><ele></ele><time>2025-5-16T23:36:57Z</time></trkpt>
<trkpt lat="48.901233673096" lon="2.6718881130219"><ele></ele><time>2025-5-16T23:37:0Z</time></trkpt>
<trkpt lat="48.901313781738" lon="2.671756029129"><ele></ele><time>2025-5-16T23:37:3Z</time></trkpt>
<trkpt lat="48.901386260986" lon="2.6716253757477"><ele></ele><time>2025-5-16T23:37:6Z</time></trkpt>
<trkpt lat="48.901458740234" lon="2.671487569809"><ele></ele><time>2025-5-16T23:37:9Z</time></trkpt>
<trkpt lat="48.901527404785" lon="2.6713621616364"><ele></ele><time>2025-5-16T23:37:12Z</time></trkpt>
<trkpt lat="48.901599884033" lon="2.6712481975555"><ele></ele><time>2025-5-16T23:37:15Z</time></trkpt>
<trkpt lat="48.901672363281" lon="2.6711435317993"><ele></ele><time>2025-5-16T23:37:18Z</time></trkpt>
<trkpt lat="48.901744842529" lon="2.6710455417633"><ele></ele><time>2025-5-16T23:37:21Z</time></trkpt>
<trkpt lat="48.901821136475" lon="2.6709387302399"><ele></ele><time>2025-5-16T23:37:24Z</time></trkpt>
<trkpt lat="48.901885986328" lon="2.6708388328552"><ele></ele><time>2025-5-16T23:37:27Z</time></trkpt>
<trkpt lat="48.901954650879" lon="2.6707344055176"><ele></ele><time>2025-5-16T23:37:30Z</time></trkpt>
<trkpt lat="48.90202331543" lon="2.67063331604"><ele></ele><time>2025-5-16T23:37:33Z</time></trkpt>
<trkpt lat="48.902088165283" lon="2.6705319881439"><ele></ele><time>2025-5-16T23:37:36Z</time></trkpt>
<trkpt lat="48.902145385742" lon="2.670440196991"><ele></ele><time>2025-5-16T23:37:39Z</time></trkpt>
<trkpt lat="48.902145385742" lon="2.670440196991"><ele></ele><time>2025-5-16T23:37:42Z</time></trkpt>
<trkpt lat="48.902198791504" lon="2.6703519821167"><ele></ele><time>2025-5-16T23:37:45Z</time></trkpt>
<trkpt lat="48.902267456055" lon="2.6702556610107"><ele></ele><time>2025-5-16T23:37:48Z</time></trkpt>
<trkpt lat="48.902324676514" lon="2.6701703071594"><ele></ele><time>2025-5-16T23:37:51Z</time></trkpt>
<trkpt lat="48.902324676514" lon="2.6701703071594"><ele></ele><time>2025-5-16T23:37:54Z</time></trkpt>
<trkpt lat="48.902381896973" lon="2.6700839996338"><ele></ele><time>2025-5-16T23:37:57Z</time></trkpt>
<trkpt lat="48.902435302734" lon="2.6700041294098"><ele></ele><time>2025-5-16T23:38:0Z</time></trkpt>
<trkpt lat="48.902496337891" lon="2.6699123382568"><ele></ele><time>2025-5-16T23:38:3Z</time></trkpt>
<trkpt lat="48.902591705322" lon="2.669771194458"><ele></ele><time>2025-5-16T23:38:6Z</time></trkpt>
<trkpt lat="48.902656555176" lon="2.6696741580963"><ele></ele><time>2025-5-16T23:38:9Z</time></trkpt>
<trkpt lat="48.902656555176" lon="2.6696741580963"><ele></ele><time>2025-5-16T23:38:12Z</time></trkpt>
<trkpt lat="48.902717590332" lon="2.6695790290833"><ele></ele><time>2025-5-16T23:38:15Z</time></trkpt>
<trkpt lat="48.902812957764" lon="2.6694374084473"><ele></ele><time>2025-5-16T23:38:18Z</time></trkpt>
<trkpt lat="48.902870178223" lon="2.6693451404572"><ele></ele><time>2025-5-16T23:38:21Z</time></trkpt>
<trkpt lat="48.902927398682" lon="2.6692531108856"><ele></ele><time>2025-5-16T23:38:24Z</time></trkpt>
<trkpt lat="48.902984619141" lon="2.6691589355469"><ele></ele><time>2025-5-16T23:38:27Z</time></trkpt>
<trkpt lat="48.903038024902" lon="2.6690628528595"><ele></ele><time>2025-5-16T23:38:30Z</time></trkpt>
<trkpt lat="48.903038024902" lon="2.6690628528595"><ele></ele><time>2025-5-16T23:38:33Z</time></trkpt>
<trkpt lat="48.903099060059" lon="2.6689600944519"><ele></ele><time>2025-5-16T23:38:36Z</time></trkpt>
<trkpt lat="48.903160095215" lon="2.6688568592072"><ele></ele><time>2025-5-16T23:38:39Z</time></trkpt>
<trkpt lat="48.903213500977" lon="2.6687602996826"><ele></ele><time>2025-5-16T23:38:42Z</time></trkpt>
<trkpt lat="48.903270721436" lon="2.6686596870422"><ele></ele><time>2025-5-16T23:38:45Z</time></trkpt>
<trkpt lat="48.903324127197" lon="2.668566942215"><ele></ele><time>2025-5-16T23:38:48Z</time></trkpt>
<trkpt lat="48.903381347656" lon="2.6684858798981"><ele></ele><time>2025-5-16T23:38:51Z</time></trkpt>
<trkpt lat="48.903381347656" lon="2.6684858798981"><ele></ele><time>2025-5-16T23:38:54Z</time></trkpt>
<trkpt lat="48.903442382812" lon="2.6684091091156"><ele></ele><time>2025-5-16T23:38:57Z</time></trkpt>
<trkpt lat="48.903499603271" lon="2.6683139801025"><ele></ele><time>2025-5-16T23:39:0Z</time></trkpt>
<trkpt lat="48.90355682373" lon="2.6682286262512"><ele></ele><time>2025-5-16T23:39:3Z</time></trkpt>
<trkpt lat="48.90355682373" lon="2.6682286262512"><ele></ele><time>2025-5-16T23:39:6Z</time></trkpt>
<trkpt lat="48.903614044189" lon="2.668140411377"><ele></ele><time>2025-5-16T23:39:9Z</time></trkpt>
<trkpt lat="48.903659820557" lon="2.6680619716644"><ele></ele><time>2025-5-16T23:39:12Z</time></trkpt>
<trkpt lat="48.903713226318" lon="2.6679749488831"><ele></ele><time>2025-5-16T23:39:15Z</time></trkpt>
<trkpt lat="48.903774261475" lon="2.6678893566132"><ele></ele><time>2025-5-16T23:39:18Z</time></trkpt>
<trkpt lat="48.903831481934" lon="2.6678147315979"><ele></ele><time>2025-5-16T23:39:21Z</time></trkpt>
<trkpt lat="48.903896331787" lon="2.6677377223969"><ele></ele><time>2025-5-16T23:39:24Z</time></trkpt>
<trkpt lat="48.903957366943" lon="2.6676604747772"><ele></ele><time>2025-5-16T23:39:27Z</time></trkpt>
<trkpt lat="48.904026031494" lon="2.6675870418549"><ele></ele><time>2025-5-16T23:39:30Z</time></trkpt>
<trkpt lat="48.90408706665" lon="2.6675231456757"><ele></ele><time>2025-5-16T23:39:33Z</time></trkpt>
<trkpt lat="48.904151916504" lon="2.6674571037292"><ele></ele><time>2025-5-16T23:39:36Z</time></trkpt>
<trkpt lat="48.904220581055" lon="2.667388677597"><ele></ele><time>2025-5-16T23:39:39Z</time></trkpt>
<trkpt lat="48.904289245605" lon="2.6673181056976"><ele></ele><time>2025-5-16T23:39:42Z</time></trkpt>
<trkpt lat="48.904357910156" lon="2.6672489643097"><ele></ele><time>2025-5-16T23:39:45Z</time></trkpt>
<trkpt lat="48.904430389404" lon="2.6671755313873"><ele></ele><time>2025-5-16T23:39:48Z</time></trkpt>
<trkpt lat="48.904499053955" lon="2.667097568512"><ele></ele><time>2025-5-16T23:39:51Z</time></trkpt>
<trkpt lat="48.904556274414" lon="2.6670308113098"><ele></ele><time>2025-5-16T23:39:54Z</time></trkpt>
<trkpt lat="48.904609680176" lon="2.6669657230377"><ele></ele><time>2025-5-16T23:39:57Z</time></trkpt>
<trkpt lat="48.904670715332" lon="2.6668944358826"><ele></ele><time>2025-5-16T23:40:0Z</time></trkpt>
<trkpt lat="48.904727935791" lon="2.6668219566345"><ele></ele><time>2025-5-16T23:40:3Z</time></trkpt>
<trkpt lat="48.904777526855" lon="2.6667454242706"><ele></ele><time>2025-5-16T23:40:6Z</time></trkpt>
<trkpt lat="48.904823303223" lon="2.6666738986969"><ele></ele><time>2025-5-16T23:40:9Z</time></trkpt>
<trkpt lat="48.904865264893" lon="2.6665978431702"><ele></ele><time>2025-5-16T23:40:12Z</time></trkpt>
<trkpt lat="48.904865264893" lon="2.6665978431702"><ele></ele><time>2025-5-16T23:40:15Z</time></trkpt>
<trkpt lat="48.904937744141" lon="2.6664757728577"><ele></ele><time>2025-5-16T23:40:18Z</time></trkpt>
<trkpt lat="48.904975891113" lon="2.6664006710052"><ele></ele><time>2025-5-16T23:40:21Z</time></trkpt>
<trkpt lat="48.90502166748" lon="2.666300535202"><ele></ele><time>2025-5-16T23:40:24Z</time></trkpt>
<trkpt lat="48.905067443848" lon="2.6661977767944"><ele></ele><time>2025-5-16T23:40:27Z</time></trkpt>
<trkpt lat="48.905109405518" lon="2.6660888195038"><ele></ele><time>2025-5-16T23:40:30Z</time></trkpt>
<trkpt lat="48.905151367188" lon="2.6659662723541"><ele></ele><time>2025-5-16T23:40:33Z</time></trkpt>
<trkpt lat="48.905197143555" lon="2.6658384799957"><ele></ele><time>2025-5-16T23:40:36Z</time></trkpt>
<trkpt lat="48.905235290527" lon="2.6656806468964"><ele></ele><time>2025-5-16T23:40:39Z</time></trkpt>
<trkpt lat="48.905277252197" lon="2.6655163764954"><ele></ele><time>2025-5-16T23:40:42Z</time></trkpt>
<trkpt lat="48.90531539917" lon="2.6653559207916"><ele></ele><time>2025-5-16T23:40:45Z</time></trkpt>
<trkpt lat="48.905361175537" lon="2.665177822113"><ele></ele><time>2025-5-16T23:40:48Z</time></trkpt>
<trkpt lat="48.905410766602" lon="2.6650049686432"><ele></ele><time>2025-5-16T23:40:51Z</time></trkpt>
<trkpt lat="48.905448913574" lon="2.664844751358"><ele></ele><time>2025-5-16T23:40:54Z</time></trkpt>
<trkpt lat="48.905494689941" lon="2.6646730899811"><ele></ele><time>2025-5-16T23:40:57Z</time></trkpt>
<trkpt lat="48.905540466309" lon="2.6644761562347"><ele></ele><time>2025-5-16T23:41:0Z</time></trkpt>
<trkpt lat="48.905590057373" lon="2.6642756462097"><ele></ele><time>2025-5-16T23:41:3Z</time></trkpt>
<trkpt lat="48.905643463135" lon="2.6640841960907"><ele></ele><time>2025-5-16T23:41:6Z</time></trkpt>
<trkpt lat="48.905693054199" lon="2.6639060974121"><ele></ele><time>2025-5-16T23:41:9Z</time></trkpt>
<trkpt lat="48.905746459961" lon="2.6637132167816"><ele></ele><time>2025-5-16T23:41:12Z</time></trkpt>
<trkpt lat="48.905799865723" lon="2.6635122299194"><ele></ele><time>2025-5-16T23:41:15Z</time></trkpt>
<trkpt lat="48.905860900879" lon="2.6633024215698"><ele></ele><time>2025-5-16T23:41:18Z</time></trkpt>
<trkpt lat="48.905910491943" lon="2.6630985736847"><ele></ele><time>2025-5-16T23:41:21Z</time></trkpt>
<trkpt lat="48.9059715271" lon="2.6628885269165"><ele></ele><time>2025-5-16T23:41:24Z</time></trkpt>
<trkpt lat="48.906024932861" lon="2.6626694202423"><ele></ele><time>2025-5-16T23:41:27Z</time></trkpt>
<trkpt lat="48.906078338623" lon="2.6624553203583"><ele></ele><time>2025-5-16T23:41:30Z</time></trkpt>
<trkpt lat="48.906131744385" lon="2.6622364521027"><ele></ele><time>2025-5-16T23:41:33Z</time></trkpt>
<trkpt lat="48.906192779541" lon="2.6620132923126"><ele></ele><time>2025-5-16T23:41:36Z</time></trkpt>
<trkpt lat="48.90625" lon="2.6617751121521"><ele></ele><time>2025-5-16T23:41:39Z</time></trkpt>
<trkpt lat="48.906314849854" lon="2.661518573761"><ele></ele><time>2025-5-16T23:41:42Z</time></trkpt>
<trkpt lat="48.906379699707" lon="2.6612756252289"><ele></ele><time>2025-5-16T23:41:45Z</time></trkpt>
<trkpt lat="48.906440734863" lon="2.6610486507416"><ele></ele><time>2025-5-16T23:41:48Z</time></trkpt>
<trkpt lat="48.906505584717" lon="2.6608209609985"><ele></ele><time>2025-5-16T23:41:51Z</time></trkpt>
<trkpt lat="48.90657043457" lon="2.6605954170227"><ele></ele><time>2025-5-16T23:41:54Z</time></trkpt>
<trkpt lat="48.906635284424" lon="2.6603565216064"><ele></ele><time>2025-5-16T23:41:57Z</time></trkpt>
<trkpt lat="48.906703948975" lon="2.6601266860962"><ele></ele><time>2025-5-16T23:42:0Z</time></trkpt>
<trkpt lat="48.906768798828" lon="2.6598975658417"><ele></ele><time>2025-5-16T23:42:3Z</time></trkpt>
<trkpt lat="48.906833648682" lon="2.6596579551697"><ele></ele><time>2025-5-16T23:42:6Z</time></trkpt>
<trkpt lat="48.906898498535" lon="2.6594226360321"><ele></ele><time>2025-5-16T23:42:9Z</time></trkpt>
<trkpt lat="48.906955718994" lon="2.6592059135437"><ele></ele><time>2025-5-16T23:42:12Z</time></trkpt>
<trkpt lat="48.907024383545" lon="2.658970117569"><ele></ele><time>2025-5-16T23:42:15Z</time></trkpt>
<trkpt lat="48.907089233398" lon="2.658753156662"><ele></ele><time>2025-5-16T23:42:18Z</time></trkpt>
<trkpt lat="48.907154083252" lon="2.6585552692413"><ele></ele><time>2025-5-16T23:42:21Z</time></trkpt>
<trkpt lat="48.907207489014" lon="2.6583700180054"><ele></ele><time>2025-5-16T23:42:24Z</time></trkpt>
<trkpt lat="48.907260894775" lon="2.6581938266754"><ele></ele><time>2025-5-16T23:42:27Z</time></trkpt>
<trkpt lat="48.90731048584" lon="2.6580247879028"><ele></ele><time>2025-5-16T23:42:30Z</time></trkpt>
<trkpt lat="48.907356262207" lon="2.6578683853149"><ele></ele><time>2025-5-16T23:42:33Z</time></trkpt>
<trkpt lat="48.907398223877" lon="2.6577107906342"><ele></ele><time>2025-5-16T23:42:36Z</time></trkpt>
<trkpt lat="48.907440185547" lon="2.6575593948364"><ele></ele><time>2025-5-16T23:42:39Z</time></trkpt>
<trkpt lat="48.907485961914" lon="2.6574151515961"><ele></ele><time>2025-5-16T23:42:42Z</time></trkpt>
<trkpt lat="48.907527923584" lon="2.657274723053"><ele></ele><time>2025-5-16T23:42:45Z</time></trkpt>
<trkpt lat="48.907566070557" lon="2.6571469306946"><ele></ele><time>2025-5-16T23:42:48Z</time></trkpt>
<trkpt lat="48.907604217529" lon="2.6570191383362"><ele></ele><time>2025-5-16T23:42:51Z</time></trkpt>
<trkpt lat="48.907642364502" lon="2.6568937301636"><ele></ele><time>2025-5-16T23:42:54Z</time></trkpt>
<trkpt lat="48.907676696777" lon="2.6567676067352"><ele></ele><time>2025-5-16T23:42:57Z</time></trkpt>
<trkpt lat="48.907711029053" lon="2.6566417217255"><ele></ele><time>2025-5-16T23:43:0Z</time></trkpt>
<trkpt lat="48.907745361328" lon="2.656512260437"><ele></ele><time>2025-5-16T23:43:3Z</time></trkpt>
<trkpt lat="48.907775878906" lon="2.6563806533813"><ele></ele><time>2025-5-16T23:43:6Z</time></trkpt>
<trkpt lat="48.907806396484" lon="2.6562476158142"><ele></ele><time>2025-5-16T23:43:9Z</time></trkpt>
<trkpt lat="48.907833099365" lon="2.6561152935028"><ele></ele><time>2025-5-16T23:43:12Z</time></trkpt>
<trkpt lat="48.907855987549" lon="2.6559910774231"><ele></ele><time>2025-5-16T23:43:15Z</time></trkpt>
<trkpt lat="48.907871246338" lon="2.6558771133423"><ele></ele><time>2025-5-16T23:43:18Z</time></trkpt>
<trkpt lat="48.907875061035" lon="2.6557521820068"><ele></ele><time>2025-5-16T23:43:21Z</time></trkpt>
<trkpt lat="48.907886505127" lon="2.6556339263916"><ele></ele><time>2025-5-16T23:43:24Z</time></trkpt>
<trkpt lat="48.907886505127" lon="2.6556339263916"><ele></ele><time>2025-5-16T23:43:27Z</time></trkpt>
<trkpt lat="48.907844543457" lon="2.6555051803589"><ele></ele><time>2025-5-16T23:43:30Z</time></trkpt>
<trkpt lat="48.907718658447" lon="2.6553971767426"><ele></ele><time>2025-5-16T23:43:33Z</time></trkpt>
<trkpt lat="48.907608032227" lon="2.6553239822388"><ele></ele><time>2025-5-16T23:43:36Z</time></trkpt>
<trkpt lat="48.907485961914" lon="2.6552610397339"><ele></ele><time>2025-5-16T23:43:39Z</time></trkpt>
<trkpt lat="48.907356262207" lon="2.6552014350891"><ele></ele><time>2025-5-16T23:43:42Z</time></trkpt>
<trkpt lat="48.907222747803" lon="2.6551425457001"><ele></ele><time>2025-5-16T23:43:45Z</time></trkpt>
<trkpt lat="48.907093048096" lon="2.6550807952881"><ele></ele><time>2025-5-16T23:43:48Z</time></trkpt>
<trkpt lat="48.906959533691" lon="2.6550056934357"><ele></ele><time>2025-5-16T23:43:51Z</time></trkpt>
<trkpt lat="48.906833648682" lon="2.6549243927002"><ele></ele><time>2025-5-16T23:43:54Z</time></trkpt>
<trkpt lat="48.906745910645" lon="2.6548547744751"><ele></ele><time>2025-5-16T23:43:57Z</time></trkpt>
<trkpt lat="48.906642913818" lon="2.6547667980194"><ele></ele><time>2025-5-16T23:44:0Z</time></trkpt>
<trkpt lat="48.906520843506" lon="2.6546516418457"><ele></ele><time>2025-5-16T23:44:3Z</time></trkpt>
<trkpt lat="48.906391143799" lon="2.654527425766"><ele></ele><time>2025-5-16T23:44:6Z</time></trkpt>
<trkpt lat="48.906265258789" lon="2.654411315918"><ele></ele><time>2025-5-16T23:44:9Z</time></trkpt>
<trkpt lat="48.906147003174" lon="2.654296875"><ele></ele><time>2025-5-16T23:44:12Z</time></trkpt>
<trkpt lat="48.906024932861" lon="2.654168844223"><ele></ele><time>2025-5-16T23:44:15Z</time></trkpt>
<trkpt lat="48.905899047852" lon="2.6540334224701"><ele></ele><time>2025-5-16T23:44:18Z</time></trkpt>
<trkpt lat="48.905780792236" lon="2.6539046764374"><ele></ele><time>2025-5-16T23:44:21Z</time></trkpt>
<trkpt lat="48.905651092529" lon="2.6537618637085"><ele></ele><time>2025-5-16T23:44:24Z</time></trkpt>
<trkpt lat="48.905517578125" lon="2.6536195278168"><ele></ele><time>2025-5-16T23:44:27Z</time></trkpt>
<trkpt lat="48.905517578125" lon="2.6536195278168"><ele></ele><time>2025-5-16T23:44:30Z</time></trkpt>
<trkpt lat="48.905395507812" lon="2.6534900665283"><ele></ele><time>2025-5-16T23:44:33Z</time></trkpt>
<trkpt lat="48.9052734375" lon="2.65336561203"><ele></ele><time>2025-5-16T23:44:36Z</time></trkpt>
<trkpt lat="48.905155181885" lon="2.653254032135"><ele></ele><time>2025-5-16T23:44:39Z</time></trkpt>
<trkpt lat="48.905055999756" lon="2.6531574726105"><ele></ele><time>2025-5-16T23:44:42Z</time></trkpt>
<trkpt lat="48.90495300293" lon="2.6530575752258"><ele></ele><time>2025-5-16T23:44:45Z</time></trkpt>
<trkpt lat="48.904853820801" lon="2.6529715061188"><ele></ele><time>2025-5-16T23:44:48Z</time></trkpt>
<trkpt lat="48.904758453369" lon="2.6528923511505"><ele></ele><time>2025-5-16T23:44:51Z</time></trkpt>
<trkpt lat="48.90465927124" lon="2.652804851532"><ele></ele><time>2025-5-16T23:44:54Z</time></trkpt>
<trkpt lat="48.904552459717" lon="2.652708530426"><ele></ele><time>2025-5-16T23:44:57Z</time></trkpt>
<trkpt lat="48.904445648193" lon="2.6526138782501"><ele></ele><time>2025-5-16T23:45:0Z</time></trkpt>
<trkpt lat="48.904346466064" lon="2.6525249481201"><ele></ele><time>2025-5-16T23:45:3Z</time></trkpt>
<trkpt lat="48.904258728027" lon="2.652441740036"><ele></ele><time>2025-5-16T23:45:6Z</time></trkpt>
<trkpt lat="48.904159545898" lon="2.6523554325104"><ele></ele><time>2025-5-16T23:45:9Z</time></trkpt>
<trkpt lat="48.90406036377" lon="2.6522598266602"><ele></ele><time>2025-5-16T23:45:12Z</time></trkpt>
<trkpt lat="48.903957366943" lon="2.652158498764"><ele></ele><time>2025-5-16T23:45:15Z</time></trkpt>
<trkpt lat="48.903861999512" lon="2.6520581245422"><ele></ele><time>2025-5-16T23:45:18Z</time></trkpt>
<trkpt lat="48.90376663208" lon="2.6519613265991"><ele></ele><time>2025-5-16T23:45:21Z</time></trkpt>
<trkpt lat="48.903671264648" lon="2.6518547534943"><ele></ele><time>2025-5-16T23:45:24Z</time></trkpt>
<trkpt lat="48.903583526611" lon="2.6517417430878"><ele></ele><time>2025-5-16T23:45:27Z</time></trkpt>
<trkpt lat="48.90348815918" lon="2.6516180038452"><ele></ele><time>2025-5-16T23:45:30Z</time></trkpt>
<trkpt lat="48.903400421143" lon="2.6514804363251"><ele></ele><time>2025-5-16T23:45:33Z</time></trkpt>
<trkpt lat="48.903335571289" lon="2.6513483524323"><ele></ele><time>2025-5-16T23:45:36Z</time></trkpt>
<trkpt lat="48.903274536133" lon="2.6512150764465"><ele></ele><time>2025-5-16T23:45:39Z</time></trkpt>
<trkpt lat="48.903221130371" lon="2.6510870456696"><ele></ele><time>2025-5-16T23:45:42Z</time></trkpt>
<trkpt lat="48.903167724609" lon="2.6509625911713"><ele></ele><time>2025-5-16T23:45:45Z</time></trkpt>
<trkpt lat="48.903118133545" lon="2.6508431434631"><ele></ele><time>2025-5-16T23:45:48Z</time></trkpt>
<trkpt lat="48.903060913086" lon="2.650732755661"><ele></ele><time>2025-5-16T23:45:51Z</time></trkpt>
<trkpt lat="48.902992248535" lon="2.6506288051605"><ele></ele><time>2025-5-16T23:45:54Z</time></trkpt>
<trkpt lat="48.902942657471" lon="2.6505386829376"><ele></ele><time>2025-5-16T23:45:57Z</time></trkpt>
<trkpt lat="48.902881622314" lon="2.6504082679749"><ele></ele><time>2025-5-16T23:46:0Z</time></trkpt>
<trkpt lat="48.902809143066" lon="2.6502628326416"><ele></ele><time>2025-5-16T23:46:3Z</time></trkpt>
<trkpt lat="48.902732849121" lon="2.6501202583313"><ele></ele><time>2025-5-16T23:46:6Z</time></trkpt>
<trkpt lat="48.902652740479" lon="2.649994134903"><ele></ele><time>2025-5-16T23:46:9Z</time></trkpt>
<trkpt lat="48.90255355835" lon="2.6498467922211"><ele></ele><time>2025-5-16T23:46:12Z</time></trkpt>
<trkpt lat="48.90246963501" lon="2.6497402191162"><ele></ele><time>2025-5-16T23:46:15Z</time></trkpt>
<trkpt lat="48.902378082275" lon="2.6496555805206"><ele></ele><time>2025-5-16T23:46:18Z</time></trkpt>
<trkpt lat="48.902290344238" lon="2.6495697498322"><ele></ele><time>2025-5-16T23:46:21Z</time></trkpt>
<trkpt lat="48.902202606201" lon="2.6494753360748"><ele></ele><time>2025-5-16T23:46:24Z</time></trkpt>
<trkpt lat="48.902122497559" lon="2.6493904590607"><ele></ele><time>2025-5-16T23:46:27Z</time></trkpt>
<trkpt lat="48.902042388916" lon="2.649307012558"><ele></ele><time>2025-5-16T23:46:30Z</time></trkpt>
<trkpt lat="48.901962280273" lon="2.6492323875427"><ele></ele><time>2025-5-16T23:46:33Z</time></trkpt>
<trkpt lat="48.901882171631" lon="2.6491756439209"><ele></ele><time>2025-5-16T23:46:36Z</time></trkpt>
<trkpt lat="48.901882171631" lon="2.6491756439209"><ele></ele><time>2025-5-16T23:46:39Z</time></trkpt>
<trkpt lat="48.901802062988" lon="2.6491043567657"><ele></ele><time>2025-5-16T23:46:42Z</time></trkpt>
<trkpt lat="48.901737213135" lon="2.6490240097046"><ele></ele><time>2025-5-16T23:46:45Z</time></trkpt>
<trkpt lat="48.901649475098" lon="2.6489636898041"><ele></ele><time>2025-5-16T23:46:48Z</time></trkpt>
<trkpt lat="48.901557922363" lon="2.6488921642303"><ele></ele><time>2025-5-16T23:46:51Z</time></trkpt>
<trkpt lat="48.901481628418" lon="2.648827791214"><ele></ele><time>2025-5-16T23:46:54Z</time></trkpt>
<trkpt lat="48.901481628418" lon="2.648827791214"><ele></ele><time>2025-5-16T23:46:57Z</time></trkpt>
<trkpt lat="48.901481628418" lon="2.648827791214"><ele></ele><time>2025-5-16T23:47:0Z</time></trkpt>
<trkpt lat="48.901424407959" lon="2.6487617492676"><ele></ele><time>2025-5-16T23:47:3Z</time></trkpt>
<trkpt lat="48.901424407959" lon="2.6487617492676"><ele></ele><time>2025-5-16T23:47:6Z</time></trkpt>
<trkpt lat="48.901424407959" lon="2.6487617492676"><ele></ele><time>2025-5-16T23:47:9Z</time></trkpt>
<trkpt lat="48.901336669922" lon="2.6486616134644"><ele></ele><time>2025-5-16T23:47:12Z</time></trkpt>
<trkpt lat="48.901264190674" lon="2.6485896110535"><ele></ele><time>2025-5-16T23:47:15Z</time></trkpt>
<trkpt lat="48.901187896729" lon="2.6485321521759"><ele></ele><time>2025-5-16T23:47:18Z</time></trkpt>
<trkpt lat="48.901187896729" lon="2.6485321521759"><ele></ele><time>2025-5-16T23:47:21Z</time></trkpt>
<trkpt lat="48.901092529297" lon="2.6484632492065"><ele></ele><time>2025-5-16T23:47:24Z</time></trkpt>
<trkpt lat="48.900997161865" lon="2.6483912467957"><ele></ele><time>2025-5-16T23:47:27Z</time></trkpt>
<trkpt lat="48.900894165039" lon="2.6483330726624"><ele></ele><time>2025-5-16T23:47:30Z</time></trkpt>
<trkpt lat="48.900894165039" lon="2.6483330726624"><ele></ele><time>2025-5-16T23:47:33Z</time></trkpt>
<trkpt lat="48.900779724121" lon="2.6482834815979"><ele></ele><time>2025-5-16T23:47:36Z</time></trkpt>
<trkpt lat="48.900661468506" lon="2.6482357978821"><ele></ele><time>2025-5-16T23:47:39Z</time></trkpt>
<trkpt lat="48.900543212891" lon="2.6481950283051"><ele></ele><time>2025-5-16T23:47:42Z</time></trkpt>
<trkpt lat="48.900543212891" lon="2.6481950283051"><ele></ele><time>2025-5-16T23:47:45Z</time></trkpt>
<trkpt lat="48.900440216064" lon="2.6481719017029"><ele></ele><time>2025-5-16T23:47:48Z</time></trkpt>
<trkpt lat="48.900321960449" lon="2.6481597423553"><ele></ele><time>2025-5-16T23:47:51Z</time></trkpt>
<trkpt lat="48.900177001953" lon="2.6481552124023"><ele></ele><time>2025-5-16T23:47:54Z</time></trkpt>
<trkpt lat="48.900177001953" lon="2.6481552124023"><ele></ele><time>2025-5-16T23:47:57Z</time></trkpt>
<trkpt lat="48.900032043457" lon="2.6481487751007"><ele></ele><time>2025-5-16T23:48:0Z</time></trkpt>
<trkpt lat="48.89990234375" lon="2.648143529892"><ele></ele><time>2025-5-16T23:48:3Z</time></trkpt>
<trkpt lat="48.899749755859" lon="2.648143529892"><ele></ele><time>2025-5-16T23:48:6Z</time></trkpt>
<trkpt lat="48.899749755859" lon="2.648143529892"><ele></ele><time>2025-5-16T23:48:9Z</time></trkpt>
<trkpt lat="48.899589538574" lon="2.6481375694275"><ele></ele><time>2025-5-16T23:48:12Z</time></trkpt>
<trkpt lat="48.899448394775" lon="2.6481223106384"><ele></ele><time>2025-5-16T23:48:15Z</time></trkpt>
<trkpt lat="48.899318695068" lon="2.6480860710144"><ele></ele><time>2025-5-16T23:48:18Z</time></trkpt>
<trkpt lat="48.899318695068" lon="2.6480860710144"><ele></ele><time>2025-5-16T23:48:21Z</time></trkpt>
<trkpt lat="48.899185180664" lon="2.648020029068"><ele></ele><time>2025-5-16T23:48:24Z</time></trkpt>
<trkpt lat="48.899063110352" lon="2.6479287147522"><ele></ele><time>2025-5-16T23:48:27Z</time></trkpt>
<trkpt lat="48.898944854736" lon="2.6478037834167"><ele></ele><time>2025-5-16T23:48:30Z</time></trkpt>
<trkpt lat="48.898944854736" lon="2.6478037834167"><ele></ele><time>2025-5-16T23:48:33Z</time></trkpt>
<trkpt lat="48.898834228516" lon="2.6476671695709"><ele></ele><time>2025-5-16T23:48:36Z</time></trkpt>
<trkpt lat="48.898723602295" lon="2.6475343704224"><ele></ele><time>2025-5-16T23:48:39Z</time></trkpt>
<trkpt lat="48.898628234863" lon="2.6474084854126"><ele></ele><time>2025-5-16T23:48:42Z</time></trkpt>
<trkpt lat="48.898628234863" lon="2.6474084854126"><ele></ele><time>2025-5-16T23:48:45Z</time></trkpt>
<trkpt lat="48.898536682129" lon="2.6472964286804"><ele></ele><time>2025-5-16T23:48:48Z</time></trkpt>
<trkpt lat="48.898536682129" lon="2.6472964286804"><ele></ele><time>2025-5-16T23:48:51Z</time></trkpt>
<trkpt lat="48.898441314697" lon="2.6471889019012"><ele></ele><time>2025-5-16T23:48:54Z</time></trkpt>
<trkpt lat="48.898265838623" lon="2.6469991207123"><ele></ele><time>2025-5-16T23:48:57Z</time></trkpt>
<trkpt lat="48.898162841797" lon="2.6468875408173"><ele></ele><time>2025-5-16T23:49:0Z</time></trkpt>
<trkpt lat="48.898078918457" lon="2.6467878818512"><ele></ele><time>2025-5-16T23:49:3Z</time></trkpt>
<trkpt lat="48.898002624512" lon="2.646696805954"><ele></ele><time>2025-5-16T23:49:6Z</time></trkpt>
<trkpt lat="48.897914886475" lon="2.6465945243835"><ele></ele><time>2025-5-16T23:49:9Z</time></trkpt>
<trkpt lat="48.897830963135" lon="2.6465044021606"><ele></ele><time>2025-5-16T23:49:12Z</time></trkpt>
<trkpt lat="48.897743225098" lon="2.6464216709137"><ele></ele><time>2025-5-16T23:49:15Z</time></trkpt>
<trkpt lat="48.89767074585" lon="2.6463510990143"><ele></ele><time>2025-5-16T23:49:18Z</time></trkpt>
<trkpt lat="48.897613525391" lon="2.646283864975"><ele></ele><time>2025-5-16T23:49:21Z</time></trkpt>
<trkpt lat="48.897571563721" lon="2.6462199687958"><ele></ele><time>2025-5-16T23:49:24Z</time></trkpt>
<trkpt lat="48.897571563721" lon="2.6462199687958"><ele></ele><time>2025-5-16T23:49:27Z</time></trkpt>
<trkpt lat="48.897579193115" lon="2.646050453186"><ele></ele><time>2025-5-16T23:49:30Z</time></trkpt>
<trkpt lat="48.897613525391" lon="2.6459429264069"><ele></ele><time>2025-5-16T23:49:33Z</time></trkpt>
<trkpt lat="48.897613525391" lon="2.6459429264069"><ele></ele><time>2025-5-16T23:49:36Z</time></trkpt>
<trkpt lat="48.897567749023" lon="2.6458077430725"><ele></ele><time>2025-5-16T23:49:39Z</time></trkpt>
<trkpt lat="48.897567749023" lon="2.6458077430725"><ele></ele><time>2025-5-16T23:49:42Z</time></trkpt>
<trkpt lat="48.897567749023" lon="2.6458077430725"><ele></ele><time>2025-5-16T23:49:45Z</time></trkpt>
<trkpt lat="48.897541046143" lon="2.645715713501"><ele></ele><time>2025-5-16T23:49:48Z</time></trkpt>
<trkpt lat="48.897491455078" lon="2.6455612182617"><ele></ele><time>2025-5-16T23:49:51Z</time></trkpt>
<trkpt lat="48.897491455078" lon="2.6455612182617"><ele></ele><time>2025-5-16T23:49:54Z</time></trkpt>
<trkpt lat="48.897468566895" lon="2.6454648971558"><ele></ele><time>2025-5-16T23:49:57Z</time></trkpt>
<trkpt lat="48.897457122803" lon="2.6453692913055"><ele></ele><time>2025-5-16T23:50:0Z</time></trkpt>
<trkpt lat="48.897457122803" lon="2.6453692913055"><ele></ele><time>2025-5-16T23:50:3Z</time></trkpt>
<trkpt lat="48.897476196289" lon="2.6451971530914"><ele></ele><time>2025-5-16T23:50:6Z</time></trkpt>
<trkpt lat="48.897476196289" lon="2.6451971530914"><ele></ele><time>2025-5-16T23:50:9Z</time></trkpt>
<trkpt lat="48.897499084473" lon="2.6450324058533"><ele></ele><time>2025-5-16T23:50:12Z</time></trkpt>
<trkpt lat="48.897499084473" lon="2.6450324058533"><ele></ele><time>2025-5-16T23:50:15Z</time></trkpt>
<trkpt lat="48.897499084473" lon="2.6450324058533"><ele></ele><time>2025-5-16T23:50:18Z</time></trkpt>
<trkpt lat="48.897411346436" lon="2.6449332237244"><ele></ele><time>2025-5-16T23:50:21Z</time></trkpt>
<trkpt lat="48.897411346436" lon="2.6449332237244"><ele></ele><time>2025-5-16T23:50:24Z</time></trkpt>
<trkpt lat="48.897361755371" lon="2.6448497772217"><ele></ele><time>2025-5-16T23:50:27Z</time></trkpt>
<trkpt lat="48.897308349609" lon="2.6447448730469"><ele></ele><time>2025-5-16T23:50:30Z</time></trkpt>
<trkpt lat="48.897270202637" lon="2.6446316242218"><ele></ele><time>2025-5-16T23:50:33Z</time></trkpt>
<trkpt lat="48.897270202637" lon="2.6446316242218"><ele></ele><time>2025-5-16T23:50:36Z</time></trkpt>
<trkpt lat="48.897239685059" lon="2.6445410251617"><ele></ele><time>2025-5-16T23:50:39Z</time></trkpt>
<trkpt lat="48.897205352783" lon="2.6444561481476"><ele></ele><time>2025-5-16T23:50:42Z</time></trkpt>
<trkpt lat="48.897171020508" lon="2.6443481445312"><ele></ele><time>2025-5-16T23:50:45Z</time></trkpt>
<trkpt lat="48.897171020508" lon="2.6443481445312"><ele></ele><time>2025-5-16T23:50:48Z</time></trkpt>
<trkpt lat="48.897003173828" lon="2.6441740989685"><ele></ele><time>2025-5-16T23:50:51Z</time></trkpt>
<trkpt lat="48.896900177002" lon="2.6440641880035"><ele></ele><time>2025-5-16T23:50:54Z</time></trkpt>
<trkpt lat="48.896900177002" lon="2.6440641880035"><ele></ele><time>2025-5-16T23:50:57Z</time></trkpt>
<trkpt lat="48.896797180176" lon="2.6439294815063"><ele></ele><time>2025-5-16T23:51:0Z</time></trkpt>
<trkpt lat="48.896743774414" lon="2.6437537670135"><ele></ele><time>2025-5-16T23:51:3Z</time></trkpt>
<trkpt lat="48.89669418335" lon="2.6435766220093"><ele></ele><time>2025-5-16T23:51:6Z</time></trkpt>
<trkpt lat="48.89669418335" lon="2.6435766220093"><ele></ele><time>2025-5-16T23:51:9Z</time></trkpt>
<trkpt lat="48.896625518799" lon="2.6434497833252"><ele></ele><time>2025-5-16T23:51:12Z</time></trkpt>
<trkpt lat="48.896564483643" lon="2.6433486938477"><ele></ele><time>2025-5-16T23:51:15Z</time></trkpt>
<trkpt lat="48.896564483643" lon="2.6433486938477"><ele></ele><time>2025-5-16T23:51:18Z</time></trkpt>
<trkpt lat="48.896564483643" lon="2.6433486938477"><ele></ele><time>2025-5-16T23:51:21Z</time></trkpt>
<trkpt lat="48.89661026001" lon="2.6431963443756"><ele></ele><time>2025-5-16T23:51:24Z</time></trkpt>
<trkpt lat="48.89661026001" lon="2.6431963443756"><ele></ele><time>2025-5-16T23:51:27Z</time></trkpt>
<trkpt lat="48.896625518799" lon="2.6430234909058"><ele></ele><time>2025-5-16T23:51:30Z</time></trkpt>
<trkpt lat="48.896625518799" lon="2.6430234909058"><ele></ele><time>2025-5-16T23:51:33Z</time></trkpt>
<trkpt lat="48.896591186523" lon="2.6429467201233"><ele></ele><time>2025-5-16T23:51:36Z</time></trkpt>
<trkpt lat="48.896591186523" lon="2.6429467201233"><ele></ele><time>2025-5-16T23:51:39Z</time></trkpt>
<trkpt lat="48.89652633667" lon="2.6427898406982"><ele></ele><time>2025-5-16T23:51:42Z</time></trkpt>
<trkpt lat="48.89652633667" lon="2.6427898406982"><ele></ele><time>2025-5-16T23:51:45Z</time></trkpt>
<trkpt lat="48.896476745605" lon="2.6427154541016"><ele></ele><time>2025-5-16T23:51:48Z</time></trkpt>
<trkpt lat="48.896430969238" lon="2.6426365375519"><ele></ele><time>2025-5-16T23:51:51Z</time></trkpt>
<trkpt lat="48.896430969238" lon="2.6426365375519"><ele></ele><time>2025-5-16T23:51:54Z</time></trkpt>
<trkpt lat="48.896430969238" lon="2.6426365375519"><ele></ele><time>2025-5-16T23:51:57Z</time></trkpt>
<trkpt lat="48.896362304688" lon="2.6424915790558"><ele></ele><time>2025-5-16T23:52:0Z</time></trkpt>
<trkpt lat="48.896327972412" lon="2.642406463623"><ele></ele><time>2025-5-16T23:52:3Z</time></trkpt>
<trkpt lat="48.89627456665" lon="2.6422829627991"><ele></ele><time>2025-5-16T23:52:6Z</time></trkpt>
<trkpt lat="48.89627456665" lon="2.6422829627991"><ele></ele><time>2025-5-16T23:52:9Z</time></trkpt>
<trkpt lat="48.896224975586" lon="2.6421759128571"><ele></ele><time>2025-5-16T23:52:12Z</time></trkpt>
<trkpt lat="48.896167755127" lon="2.642067193985"><ele></ele><time>2025-5-16T23:52:15Z</time></trkpt>
<trkpt lat="48.896114349365" lon="2.6419854164124"><ele></ele><time>2025-5-16T23:52:18Z</time></trkpt>
<trkpt lat="48.896114349365" lon="2.6419854164124"><ele></ele><time>2025-5-16T23:52:21Z</time></trkpt>
<trkpt lat="48.896087646484" lon="2.641898393631"><ele></ele><time>2025-5-16T23:52:24Z</time></trkpt>
<trkpt lat="48.896053314209" lon="2.6417660713196"><ele></ele><time>2025-5-16T23:52:27Z</time></trkpt>
<trkpt lat="48.896022796631" lon="2.641608953476"><ele></ele><time>2025-5-16T23:52:30Z</time></trkpt>
<trkpt lat="48.896022796631" lon="2.641608953476"><ele></ele><time>2025-5-16T23:52:33Z</time></trkpt>
<trkpt lat="48.895977020264" lon="2.6414875984192"><ele></ele><time>2025-5-16T23:52:36Z</time></trkpt>
<trkpt lat="48.895893096924" lon="2.641375541687"><ele></ele><time>2025-5-16T23:52:39Z</time></trkpt>
<trkpt lat="48.895812988281" lon="2.6412837505341"><ele></ele><time>2025-5-16T23:52:42Z</time></trkpt>
<trkpt lat="48.895812988281" lon="2.6412837505341"><ele></ele><time>2025-5-16T23:52:45Z</time></trkpt>
<trkpt lat="48.895740509033" lon="2.6411678791046"><ele></ele><time>2025-5-16T23:52:48Z</time></trkpt>
<trkpt lat="48.895668029785" lon="2.6410262584686"><ele></ele><time>2025-5-16T23:52:51Z</time></trkpt>
<trkpt lat="48.89559173584" lon="2.6408751010895"><ele></ele><time>2025-5-16T23:52:54Z</time></trkpt>
<trkpt lat="48.89559173584" lon="2.6408751010895"><ele></ele><time>2025-5-16T23:52:57Z</time></trkpt>
<trkpt lat="48.895523071289" lon="2.6407418251038"><ele></ele><time>2025-5-16T23:53:0Z</time></trkpt>
<trkpt lat="48.895446777344" lon="2.6405951976776"><ele></ele><time>2025-5-16T23:53:3Z</time></trkpt>
<trkpt lat="48.895351409912" lon="2.640429019928"><ele></ele><time>2025-5-16T23:53:6Z</time></trkpt>
<trkpt lat="48.895351409912" lon="2.640429019928"><ele></ele><time>2025-5-16T23:53:9Z</time></trkpt>
<trkpt lat="48.895267486572" lon="2.6402859687805"><ele></ele><time>2025-5-16T23:53:12Z</time></trkpt>
<trkpt lat="48.895198822021" lon="2.6401536464691"><ele></ele><time>2025-5-16T23:53:15Z</time></trkpt>
<trkpt lat="48.895137786865" lon="2.6400365829468"><ele></ele><time>2025-5-16T23:53:18Z</time></trkpt>
<trkpt lat="48.895080566406" lon="2.6399381160736"><ele></ele><time>2025-5-16T23:53:21Z</time></trkpt>
<trkpt lat="48.89501953125" lon="2.6398406028748"><ele></ele><time>2025-5-16T23:53:24Z</time></trkpt>
<trkpt lat="48.894969940186" lon="2.6397540569305"><ele></ele><time>2025-5-16T23:53:27Z</time></trkpt>
<trkpt lat="48.89489364624" lon="2.6396746635437"><ele></ele><time>2025-5-16T23:53:30Z</time></trkpt>
<trkpt lat="48.894828796387" lon="2.639585018158"><ele></ele><time>2025-5-16T23:53:33Z</time></trkpt>
<trkpt lat="48.894828796387" lon="2.639585018158"><ele></ele><time>2025-5-16T23:53:36Z</time></trkpt>
<trkpt lat="48.894710540771" lon="2.639356136322"><ele></ele><time>2025-5-16T23:53:39Z</time></trkpt>
<trkpt lat="48.894634246826" lon="2.6392188072205"><ele></ele><time>2025-5-16T23:53:42Z</time></trkpt>
<trkpt lat="48.894538879395" lon="2.6390707492828"><ele></ele><time>2025-5-16T23:53:45Z</time></trkpt>
<trkpt lat="48.894439697266" lon="2.6389384269714"><ele></ele><time>2025-5-16T23:53:48Z</time></trkpt>
<trkpt lat="48.894229888916" lon="2.6386497020721"><ele></ele><time>2025-5-16T23:53:51Z</time></trkpt>
<trkpt lat="48.894229888916" lon="2.6386497020721"><ele></ele><time>2025-5-16T23:53:54Z</time></trkpt>
<trkpt lat="48.894050598145" lon="2.6385242938995"><ele></ele><time>2025-5-16T23:53:57Z</time></trkpt>
<trkpt lat="48.893928527832" lon="2.6384847164154"><ele></ele><time>2025-5-16T23:54:0Z</time></trkpt>
<trkpt lat="48.893829345703" lon="2.6384899616241"><ele></ele><time>2025-5-16T23:54:3Z</time></trkpt>
<trkpt lat="48.89372253418" lon="2.6385180950165"><ele></ele><time>2025-5-16T23:54:6Z</time></trkpt>
<trkpt lat="48.893615722656" lon="2.6385459899902"><ele></ele><time>2025-5-16T23:54:9Z</time></trkpt>
<trkpt lat="48.893516540527" lon="2.6385576725006"><ele></ele><time>2025-5-16T23:54:12Z</time></trkpt>
<trkpt lat="48.893455505371" lon="2.6385447978973"><ele></ele><time>2025-5-16T23:54:15Z</time></trkpt>
<trkpt lat="48.893455505371" lon="2.6385447978973"><ele></ele><time>2025-5-16T23:54:18Z</time></trkpt>
<trkpt lat="48.893402099609" lon="2.6383721828461"><ele></ele><time>2025-5-16T23:54:21Z</time></trkpt>
<trkpt lat="48.89334487915" lon="2.638233423233"><ele></ele><time>2025-5-16T23:54:24Z</time></trkpt>
<trkpt lat="48.893264770508" lon="2.6382145881653"><ele></ele><time>2025-5-16T23:54:27Z</time></trkpt>
<trkpt lat="48.893264770508" lon="2.6382145881653"><ele></ele><time>2025-5-16T23:54:30Z</time></trkpt>
<trkpt lat="48.893264770508" lon="2.6382145881653"><ele></ele><time>2025-5-16T23:54:33Z</time></trkpt>
<trkpt lat="48.893188476562" lon="2.6381442546844"><ele></ele><time>2025-5-16T23:54:36Z</time></trkpt>
<trkpt lat="48.893093109131" lon="2.637934923172"><ele></ele><time>2025-5-16T23:54:39Z</time></trkpt>
<trkpt lat="48.893009185791" lon="2.6377754211426"><ele></ele><time>2025-5-16T23:54:42Z</time></trkpt>
<trkpt lat="48.892936706543" lon="2.637615442276"><ele></ele><time>2025-5-16T23:54:45Z</time></trkpt>
<trkpt lat="48.892871856689" lon="2.6374552249908"><ele></ele><time>2025-5-16T23:54:48Z</time></trkpt>
<trkpt lat="48.89281463623" lon="2.6373255252838"><ele></ele><time>2025-5-16T23:54:51Z</time></trkpt>
<trkpt lat="48.892742156982" lon="2.6372640132904"><ele></ele><time>2025-5-16T23:54:54Z</time></trkpt>
<trkpt lat="48.892742156982" lon="2.6372640132904"><ele></ele><time>2025-5-16T23:54:57Z</time></trkpt>
<trkpt lat="48.892684936523" lon="2.6370854377747"><ele></ele><time>2025-5-16T23:55:0Z</time></trkpt>
<trkpt lat="48.892684936523" lon="2.6370854377747"><ele></ele><time>2025-5-16T23:55:3Z</time></trkpt>
<trkpt lat="48.892631530762" lon="2.6369078159332"><ele></ele><time>2025-5-16T23:55:6Z</time></trkpt>
<trkpt lat="48.892585754395" lon="2.6368093490601"><ele></ele><time>2025-5-16T23:55:9Z</time></trkpt>
<trkpt lat="48.892585754395" lon="2.6368093490601"><ele></ele><time>2025-5-16T23:55:12Z</time></trkpt>
<trkpt lat="48.892585754395" lon="2.6368093490601"><ele></ele><time>2025-5-16T23:55:15Z</time></trkpt>
<trkpt lat="48.892585754395" lon="2.6368093490601"><ele></ele><time>2025-5-16T23:55:18Z</time></trkpt>
<trkpt lat="48.892517089844" lon="2.6363248825073"><ele></ele><time>2025-5-16T23:55:21Z</time></trkpt>
<trkpt lat="48.892482757568" lon="2.6361417770386"><ele></ele><time>2025-5-16T23:55:24Z</time></trkpt>
<trkpt lat="48.892482757568" lon="2.6361417770386"><ele></ele><time>2025-5-16T23:55:27Z</time></trkpt>
<trkpt lat="48.892440795898" lon="2.6359262466431"><ele></ele><time>2025-5-16T23:55:30Z</time></trkpt>
<trkpt lat="48.892395019531" lon="2.635844707489"><ele></ele><time>2025-5-16T23:55:33Z</time></trkpt>
<trkpt lat="48.892345428467" lon="2.6357820034027"><ele></ele><time>2025-5-16T23:55:36Z</time></trkpt>
<trkpt lat="48.892345428467" lon="2.6357820034027"><ele></ele><time>2025-5-16T23:55:39Z</time></trkpt>
<trkpt lat="48.892292022705" lon="2.6356346607208"><ele></ele><time>2025-5-16T23:55:42Z</time></trkpt>
<trkpt lat="48.892284393311" lon="2.6355476379395"><ele></ele><time>2025-5-16T23:55:45Z</time></trkpt>
<trkpt lat="48.892253875732" lon="2.6353251934052"><ele></ele><time>2025-5-16T23:55:48Z</time></trkpt>
<trkpt lat="48.892253875732" lon="2.6353251934052"><ele></ele><time>2025-5-16T23:55:51Z</time></trkpt>
<trkpt lat="48.892185211182" lon="2.6352124214172"><ele></ele><time>2025-5-16T23:55:54Z</time></trkpt>
<trkpt lat="48.892116546631" lon="2.6350932121277"><ele></ele><time>2025-5-16T23:55:57Z</time></trkpt>
<trkpt lat="48.892066955566" lon="2.6349585056305"><ele></ele><time>2025-5-16T23:56:0Z</time></trkpt>
<trkpt lat="48.892066955566" lon="2.6349585056305"><ele></ele><time>2025-5-16T23:56:3Z</time></trkpt>
<trkpt lat="48.892017364502" lon="2.6347088813782"><ele></ele><time>2025-5-16T23:56:6Z</time></trkpt>
<trkpt lat="48.891975402832" lon="2.6345744132996"><ele></ele><time>2025-5-16T23:56:9Z</time></trkpt>
<trkpt lat="48.891975402832" lon="2.6345744132996"><ele></ele><time>2025-5-16T23:56:12Z</time></trkpt>
<trkpt lat="48.891876220703" lon="2.6343824863434"><ele></ele><time>2025-5-16T23:56:15Z</time></trkpt>
<trkpt lat="48.891799926758" lon="2.6342248916626"><ele></ele><time>2025-5-16T23:56:18Z</time></trkpt>
<trkpt lat="48.891716003418" lon="2.6340939998627"><ele></ele><time>2025-5-16T23:56:21Z</time></trkpt>
<trkpt lat="48.891620635986" lon="2.6339647769928"><ele></ele><time>2025-5-16T23:56:24Z</time></trkpt>
<trkpt lat="48.891525268555" lon="2.6338450908661"><ele></ele><time>2025-5-16T23:56:27Z</time></trkpt>
<trkpt lat="48.891471862793" lon="2.6337432861328"><ele></ele><time>2025-5-16T23:56:30Z</time></trkpt>
<trkpt lat="48.891372680664" lon="2.6336054801941"><ele></ele><time>2025-5-16T23:56:33Z</time></trkpt>
<trkpt lat="48.891372680664" lon="2.6336054801941"><ele></ele><time>2025-5-16T23:56:36Z</time></trkpt>
<trkpt lat="48.891246795654" lon="2.633451461792"><ele></ele><time>2025-5-16T23:56:39Z</time></trkpt>
<trkpt lat="48.891193389893" lon="2.6333835124969"><ele></ele><time>2025-5-16T23:56:42Z</time></trkpt>
<trkpt lat="48.891128540039" lon="2.6332750320435"><ele></ele><time>2025-5-16T23:56:45Z</time></trkpt>
<trkpt lat="48.891056060791" lon="2.6331667900085"><ele></ele><time>2025-5-16T23:56:48Z</time></trkpt>
<trkpt lat="48.890979766846" lon="2.6330785751343"><ele></ele><time>2025-5-16T23:56:51Z</time></trkpt>
<trkpt lat="48.890933990479" lon="2.6329934597015"><ele></ele><time>2025-5-16T23:56:54Z</time></trkpt>
<trkpt lat="48.890933990479" lon="2.6329934597015"><ele></ele><time>2025-5-16T23:56:57Z</time></trkpt>
<trkpt lat="48.890914916992" lon="2.6328153610229"><ele></ele><time>2025-5-16T23:57:0Z</time></trkpt>
<trkpt lat="48.890872955322" lon="2.6327302455902"><ele></ele><time>2025-5-16T23:57:3Z</time></trkpt>
<trkpt lat="48.890823364258" lon="2.6326296329498"><ele></ele><time>2025-5-16T23:57:6Z</time></trkpt>
<trkpt lat="48.890789031982" lon="2.632551908493"><ele></ele><time>2025-5-16T23:57:9Z</time></trkpt>
<trkpt lat="48.890789031982" lon="2.632551908493"><ele></ele><time>2025-5-16T23:57:12Z</time></trkpt>
<trkpt lat="48.890727996826" lon="2.6323978900909"><ele></ele><time>2025-5-16T23:57:15Z</time></trkpt>
<trkpt lat="48.890682220459" lon="2.6323344707489"><ele></ele><time>2025-5-16T23:57:18Z</time></trkpt>
<trkpt lat="48.890682220459" lon="2.6323344707489"><ele></ele><time>2025-5-16T23:57:21Z</time></trkpt>
<trkpt lat="48.890617370605" lon="2.6322407722473"><ele></ele><time>2025-5-16T23:57:24Z</time></trkpt>
<trkpt lat="48.890560150146" lon="2.6321153640747"><ele></ele><time>2025-5-16T23:57:27Z</time></trkpt>
<trkpt lat="48.890495300293" lon="2.6319599151611"><ele></ele><time>2025-5-16T23:57:30Z</time></trkpt>
<trkpt lat="48.890426635742" lon="2.6318066120148"><ele></ele><time>2025-5-16T23:57:33Z</time></trkpt>
<trkpt lat="48.890335083008" lon="2.631623506546"><ele></ele><time>2025-5-16T23:57:36Z</time></trkpt>
<trkpt lat="48.890232086182" lon="2.6314406394958"><ele></ele><time>2025-5-16T23:57:39Z</time></trkpt>
<trkpt lat="48.890121459961" lon="2.6312487125397"><ele></ele><time>2025-5-16T23:57:42Z</time></trkpt>
<trkpt lat="48.890014648438" lon="2.6310541629791"><ele></ele><time>2025-5-16T23:57:45Z</time></trkpt>
<trkpt lat="48.889911651611" lon="2.6308646202087"><ele></ele><time>2025-5-16T23:57:48Z</time></trkpt>
<trkpt lat="48.88981628418" lon="2.6306803226471"><ele></ele><time>2025-5-16T23:57:51Z</time></trkpt>
<trkpt lat="48.889724731445" lon="2.6304960250854"><ele></ele><time>2025-5-16T23:57:54Z</time></trkpt>
<trkpt lat="48.889629364014" lon="2.6303176879883"><ele></ele><time>2025-5-16T23:57:57Z</time></trkpt>
<trkpt lat="48.889533996582" lon="2.6301431655884"><ele></ele><time>2025-5-16T23:58:0Z</time></trkpt>
<trkpt lat="48.889446258545" lon="2.6299796104431"><ele></ele><time>2025-5-16T23:58:3Z</time></trkpt>
<trkpt lat="48.889408111572" lon="2.6298453807831"><ele></ele><time>2025-5-16T23:58:6Z</time></trkpt>
<trkpt lat="48.889362335205" lon="2.629736661911"><ele></ele><time>2025-5-16T23:58:9Z</time></trkpt>
<trkpt lat="48.889301300049" lon="2.6296234130859"><ele></ele><time>2025-5-16T23:58:12Z</time></trkpt>
<trkpt lat="48.889236450195" lon="2.6295130252838"><ele></ele><time>2025-5-16T23:58:15Z</time></trkpt>
<trkpt lat="48.889236450195" lon="2.6295130252838"><ele></ele><time>2025-5-16T23:58:18Z</time></trkpt>
<trkpt lat="48.889179229736" lon="2.6294193267822"><ele></ele><time>2025-5-16T23:58:21Z</time></trkpt>
<trkpt lat="48.889129638672" lon="2.6293363571167"><ele></ele><time>2025-5-16T23:58:24Z</time></trkpt>
<trkpt lat="48.889083862305" lon="2.6292605400085"><ele></ele><time>2025-5-16T23:58:27Z</time></trkpt>
<trkpt lat="48.889083862305" lon="2.6292605400085"><ele></ele><time>2025-5-16T23:58:30Z</time></trkpt>
<trkpt lat="48.889011383057" lon="2.6291320323944"><ele></ele><time>2025-5-16T23:58:33Z</time></trkpt>
<trkpt lat="48.888969421387" lon="2.6290514469147"><ele></ele><time>2025-5-16T23:58:36Z</time></trkpt>
<trkpt lat="48.88892364502" lon="2.6289734840393"><ele></ele><time>2025-5-16T23:58:39Z</time></trkpt>
<trkpt lat="48.888870239258" lon="2.6288819313049"><ele></ele><time>2025-5-16T23:58:42Z</time></trkpt>
<trkpt lat="48.888809204102" lon="2.6287822723389"><ele></ele><time>2025-5-16T23:58:45Z</time></trkpt>
<trkpt lat="48.888748168945" lon="2.6286702156067"><ele></ele><time>2025-5-16T23:58:48Z</time></trkpt>
<trkpt lat="48.888694763184" lon="2.6285722255707"><ele></ele><time>2025-5-16T23:58:51Z</time></trkpt>
<trkpt lat="48.888645172119" lon="2.6284830570221"><ele></ele><time>2025-5-16T23:58:54Z</time></trkpt>
<trkpt lat="48.888595581055" lon="2.6283900737762"><ele></ele><time>2025-5-16T23:58:57Z</time></trkpt>
<trkpt lat="48.88854598999" lon="2.6282999515533"><ele></ele><time>2025-5-16T23:59:0Z</time></trkpt>
<trkpt lat="48.888492584229" lon="2.6282007694244"><ele></ele><time>2025-5-16T23:59:3Z</time></trkpt>
<trkpt lat="48.888431549072" lon="2.628086566925"><ele></ele><time>2025-5-16T23:59:6Z</time></trkpt>
<trkpt lat="48.888378143311" lon="2.6279947757721"><ele></ele><time>2025-5-16T23:59:9Z</time></trkpt>
<trkpt lat="48.888378143311" lon="2.6279947757721"><ele></ele><time>2025-5-16T23:59:12Z</time></trkpt>
<trkpt lat="48.888328552246" lon="2.627902507782"><ele></ele><time>2025-5-16T23:59:15Z</time></trkpt>
<trkpt lat="48.888282775879" lon="2.6278111934662"><ele></ele><time>2025-5-16T23:59:18Z</time></trkpt>
<trkpt lat="48.888233184814" lon="2.6277191638947"><ele></ele><time>2025-5-16T23:59:21Z</time></trkpt>
<trkpt lat="48.888233184814" lon="2.6277191638947"><ele></ele><time>2025-5-16T23:59:24Z</time></trkpt>
<trkpt lat="48.888179779053" lon="2.6276166439056"><ele></ele><time>2025-5-16T23:59:27Z</time></trkpt>
<trkpt lat="48.888118743896" lon="2.6275126934052"><ele></ele><time>2025-5-16T23:59:30Z</time></trkpt>
<trkpt lat="48.888061523438" lon="2.6274094581604"><ele></ele><time>2025-5-16T23:59:33Z</time></trkpt>
<trkpt lat="48.888061523438" lon="2.6274094581604"><ele></ele><time>2025-5-16T23:59:36Z</time></trkpt>
<trkpt lat="48.888011932373" lon="2.6273102760315"><ele></ele><time>2025-5-16T23:59:39Z</time></trkpt>
<trkpt lat="48.887958526611" lon="2.6272065639496"><ele></ele><time>2025-5-16T23:59:42Z</time></trkpt>
<trkpt lat="48.887901306152" lon="2.6271057128906"><ele></ele><time>2025-5-16T23:59:45Z</time></trkpt>
<trkpt lat="48.887847900391" lon="2.6270089149475"><ele></ele><time>2025-5-16T23:59:48Z</time></trkpt>
<trkpt lat="48.887798309326" lon="2.6269204616547"><ele></ele><time>2025-5-16T23:59:51Z</time></trkpt>
<trkpt lat="48.887741088867" lon="2.6268403530121"><ele></ele><time>2025-5-16T23:59:54Z</time></trkpt>
<trkpt lat="48.887741088867" lon="2.6268403530121"><ele></ele><time>2025-5-16T23:59:57Z</time></trkpt>
<trkpt lat="48.887683868408" lon="2.6267764568329"><ele></ele><time>2025-5-17T0:0:0Z</time></trkpt>
<trkpt lat="48.887619018555" lon="2.6267802715302"><ele></ele><time>2025-5-17T0:0:3Z</time></trkpt>
<trkpt lat="48.887550354004" lon="2.6268458366394"><ele></ele><time>2025-5-17T0:0:6Z</time></trkpt>
<trkpt lat="48.887550354004" lon="2.6268458366394"><ele></ele><time>2025-5-17T0:0:9Z</time></trkpt>
<trkpt lat="48.887474060059" lon="2.6269361972809"><ele></ele><time>2025-5-17T0:0:12Z</time></trkpt>
<trkpt lat="48.887413024902" lon="2.6270310878754"><ele></ele><time>2025-5-17T0:0:15Z</time></trkpt>
<trkpt lat="48.887378692627" lon="2.6271078586578"><ele></ele><time>2025-5-17T0:0:18Z</time></trkpt>
<trkpt lat="48.887378692627" lon="2.6271078586578"><ele></ele><time>2025-5-17T0:0:21Z</time></trkpt>
<trkpt lat="48.887378692627" lon="2.6271078586578"><ele></ele><time>2025-5-17T0:0:24Z</time></trkpt>
<trkpt lat="48.887378692627" lon="2.6271078586578"><ele></ele><time>2025-5-17T0:0:27Z</time></trkpt>
<trkpt lat="48.887302398682" lon="2.6272144317627"><ele></ele><time>2025-5-17T0:0:30Z</time></trkpt>
<trkpt lat="48.887302398682" lon="2.6272144317627"><ele></ele><time>2025-5-17T0:0:33Z</time></trkpt>
<trkpt lat="48.887237548828" lon="2.6273131370544"><ele></ele><time>2025-5-17T0:0:36Z</time></trkpt>
<trkpt lat="48.887180328369" lon="2.6273896694183"><ele></ele><time>2025-5-17T0:0:39Z</time></trkpt>
<trkpt lat="48.887115478516" lon="2.627464056015"><ele></ele><time>2025-5-17T0:0:42Z</time></trkpt>
<trkpt lat="48.887115478516" lon="2.627464056015"><ele></ele><time>2025-5-17T0:0:45Z</time></trkpt>
<trkpt lat="48.887058258057" lon="2.6275384426117"><ele></ele><time>2025-5-17T0:0:48Z</time></trkpt>
<trkpt lat="48.8869972229" lon="2.6276166439056"><ele></ele><time>2025-5-17T0:0:51Z</time></trkpt>
<trkpt lat="48.886940002441" lon="2.6276907920837"><ele></ele><time>2025-5-17T0:0:54Z</time></trkpt>
<trkpt lat="48.886940002441" lon="2.6276907920837"><ele></ele><time>2025-5-17T0:0:57Z</time></trkpt>
<trkpt lat="48.886878967285" lon="2.6277585029602"><ele></ele><time>2025-5-17T0:1:0Z</time></trkpt>
<trkpt lat="48.886817932129" lon="2.6278011798859"><ele></ele><time>2025-5-17T0:1:3Z</time></trkpt>
<trkpt lat="48.886764526367" lon="2.6278455257416"><ele></ele><time>2025-5-17T0:1:6Z</time></trkpt>
<trkpt lat="48.886764526367" lon="2.6278455257416"><ele></ele><time>2025-5-17T0:1:9Z</time></trkpt>
<trkpt lat="48.886695861816" lon="2.6279010772705"><ele></ele><time>2025-5-17T0:1:12Z</time></trkpt>
<trkpt lat="48.886623382568" lon="2.6279599666595"><ele></ele><time>2025-5-17T0:1:15Z</time></trkpt>
<trkpt lat="48.886562347412" lon="2.6280138492584"><ele></ele><time>2025-5-17T0:1:18Z</time></trkpt>
<trkpt lat="48.886562347412" lon="2.6280138492584"><ele></ele><time>2025-5-17T0:1:21Z</time></trkpt>
<trkpt lat="48.88650894165" lon="2.6280665397644"><ele></ele><time>2025-5-17T0:1:24Z</time></trkpt>
<trkpt lat="48.886459350586" lon="2.6281273365021"><ele></ele><time>2025-5-17T0:1:27Z</time></trkpt>
<trkpt lat="48.886409759521" lon="2.6282029151917"><ele></ele><time>2025-5-17T0:1:30Z</time></trkpt>
<trkpt lat="48.886409759521" lon="2.6282029151917"><ele></ele><time>2025-5-17T0:1:33Z</time></trkpt>
<trkpt lat="48.886360168457" lon="2.6282830238342"><ele></ele><time>2025-5-17T0:1:36Z</time></trkpt>
<trkpt lat="48.886306762695" lon="2.6283612251282"><ele></ele><time>2025-5-17T0:1:39Z</time></trkpt>
<trkpt lat="48.886245727539" lon="2.6284189224243"><ele></ele><time>2025-5-17T0:1:42Z</time></trkpt>
<trkpt lat="48.886245727539" lon="2.6284189224243"><ele></ele><time>2025-5-17T0:1:45Z</time></trkpt>
<trkpt lat="48.886184692383" lon="2.6284687519073"><ele></ele><time>2025-5-17T0:1:48Z</time></trkpt>
<trkpt lat="48.886127471924" lon="2.6285252571106"><ele></ele><time>2025-5-17T0:1:51Z</time></trkpt>
<trkpt lat="48.886081695557" lon="2.6285791397095"><ele></ele><time>2025-5-17T0:1:54Z</time></trkpt>
<trkpt lat="48.886081695557" lon="2.6285791397095"><ele></ele><time>2025-5-17T0:1:57Z</time></trkpt>
<trkpt lat="48.886081695557" lon="2.6285791397095"><ele></ele><time>2025-5-17T0:2:0Z</time></trkpt>
<trkpt lat="48.886039733887" lon="2.6286590099335"><ele></ele><time>2025-5-17T0:2:3Z</time></trkpt>
<trkpt lat="48.886039733887" lon="2.6286590099335"><ele></ele><time>2025-5-17T0:2:6Z</time></trkpt>
<trkpt lat="48.88599395752" lon="2.628764629364"><ele></ele><time>2025-5-17T0:2:9Z</time></trkpt>
<trkpt lat="48.885948181152" lon="2.6288251876831"><ele></ele><time>2025-5-17T0:2:12Z</time></trkpt>
<trkpt lat="48.885894775391" lon="2.6288995742798"><ele></ele><time>2025-5-17T0:2:15Z</time></trkpt>
<trkpt lat="48.885829925537" lon="2.6289675235748"><ele></ele><time>2025-5-17T0:2:18Z</time></trkpt>
<trkpt lat="48.885765075684" lon="2.6290144920349"><ele></ele><time>2025-5-17T0:2:21Z</time></trkpt>
<trkpt lat="48.885707855225" lon="2.6290490627289"><ele></ele><time>2025-5-17T0:2:24Z</time></trkpt>
<trkpt lat="48.885707855225" lon="2.6290490627289"><ele></ele><time>2025-5-17T0:2:27Z</time></trkpt>
<trkpt lat="48.885707855225" lon="2.6290490627289"><ele></ele><time>2025-5-17T0:2:30Z</time></trkpt>
<trkpt lat="48.885597229004" lon="2.6290221214294"><ele></ele><time>2025-5-17T0:2:33Z</time></trkpt>
<trkpt lat="48.885513305664" lon="2.629047870636"><ele></ele><time>2025-5-17T0:2:36Z</time></trkpt>
<trkpt lat="48.885437011719" lon="2.6291108131409"><ele></ele><time>2025-5-17T0:2:39Z</time></trkpt>
<trkpt lat="48.885372161865" lon="2.6291811466217"><ele></ele><time>2025-5-17T0:2:42Z</time></trkpt>
<trkpt lat="48.885307312012" lon="2.6292614936829"><ele></ele><time>2025-5-17T0:2:45Z</time></trkpt>
<trkpt lat="48.885238647461" lon="2.6293382644653"><ele></ele><time>2025-5-17T0:2:48Z</time></trkpt>
<trkpt lat="48.885150909424" lon="2.6294236183167"><ele></ele><time>2025-5-17T0:2:51Z</time></trkpt>
<trkpt lat="48.885066986084" lon="2.6295125484467"><ele></ele><time>2025-5-17T0:2:54Z</time></trkpt>
<trkpt lat="48.884990692139" lon="2.629604101181"><ele></ele><time>2025-5-17T0:2:57Z</time></trkpt>
<trkpt lat="48.884922027588" lon="2.6296873092651"><ele></ele><time>2025-5-17T0:3:0Z</time></trkpt>
<trkpt lat="48.884845733643" lon="2.6297838687897"><ele></ele><time>2025-5-17T0:3:3Z</time></trkpt>
<trkpt lat="48.884757995605" lon="2.6298859119415"><ele></ele><time>2025-5-17T0:3:6Z</time></trkpt>
<trkpt lat="48.884696960449" lon="2.6299760341644"><ele></ele><time>2025-5-17T0:3:9Z</time></trkpt>
<trkpt lat="48.88463973999" lon="2.6300804615021"><ele></ele><time>2025-5-17T0:3:12Z</time></trkpt>
<trkpt lat="48.884574890137" lon="2.6301472187042"><ele></ele><time>2025-5-17T0:3:15Z</time></trkpt>
<trkpt lat="48.884498596191" lon="2.63023686409"><ele></ele><time>2025-5-17T0:3:18Z</time></trkpt>
<trkpt lat="48.884498596191" lon="2.63023686409"><ele></ele><time>2025-5-17T0:3:21Z</time></trkpt>
<trkpt lat="48.884429931641" lon="2.6303310394287"><ele></ele><time>2025-5-17T0:3:24Z</time></trkpt>
<trkpt lat="48.884372711182" lon="2.630402803421"><ele></ele><time>2025-5-17T0:3:27Z</time></trkpt>
<trkpt lat="48.884307861328" lon="2.6304862499237"><ele></ele><time>2025-5-17T0:3:30Z</time></trkpt>
<trkpt lat="48.884307861328" lon="2.6304862499237"><ele></ele><time>2025-5-17T0:3:33Z</time></trkpt>
<trkpt lat="48.884239196777" lon="2.6305730342865"><ele></ele><time>2025-5-17T0:3:36Z</time></trkpt>
<trkpt lat="48.884170532227" lon="2.6306490898132"><ele></ele><time>2025-5-17T0:3:39Z</time></trkpt>
<trkpt lat="48.884113311768" lon="2.6307096481323"><ele></ele><time>2025-5-17T0:3:42Z</time></trkpt>
<trkpt lat="48.884113311768" lon="2.6307096481323"><ele></ele><time>2025-5-17T0:3:45Z</time></trkpt>
<trkpt lat="48.884052276611" lon="2.6307642459869"><ele></ele><time>2025-5-17T0:3:48Z</time></trkpt>
<trkpt lat="48.883995056152" lon="2.6308197975159"><ele></ele><time>2025-5-17T0:3:51Z</time></trkpt>
<trkpt lat="48.883937835693" lon="2.630854845047"><ele></ele><time>2025-5-17T0:3:54Z</time></trkpt>
<trkpt lat="48.883937835693" lon="2.630854845047"><ele></ele><time>2025-5-17T0:3:57Z</time></trkpt>
<trkpt lat="48.883937835693" lon="2.630854845047"><ele></ele><time>2025-5-17T0:4:0Z</time></trkpt>
<trkpt lat="48.883857727051" lon="2.6308572292328"><ele></ele><time>2025-5-17T0:4:3Z</time></trkpt>
<trkpt lat="48.883857727051" lon="2.6308572292328"><ele></ele><time>2025-5-17T0:4:6Z</time></trkpt>
<trkpt lat="48.883857727051" lon="2.6308572292328"><ele></ele><time>2025-5-17T0:4:9Z</time></trkpt>
<trkpt lat="48.883857727051" lon="2.6308572292328"><ele></ele><time>2025-5-17T0:4:12Z</time></trkpt>
<trkpt lat="48.883857727051" lon="2.630763053894"><ele></ele><time>2025-5-17T0:4:15Z</time></trkpt>
<trkpt lat="48.883857727051" lon="2.630763053894"><ele></ele><time>2025-5-17T0:4:18Z</time></trkpt>
</trkseg></trk></gpx>